<?xml version="1.0" encoding="UTF-8" standalone="no" ?>
<gpx xmlns="http://www.topografix.com/GPX/1/1" xmlns:xsi="http://www.w3.org/2001/XMLSchema-instance" xsi:schemaLocation="http://www.topografix.com/GPX/1/1 http://www.topografix.com/GPX/1/1/gpx.xsd" version="1.1" creator="VisuGPX - https://www.visugpx.com">
  <metadata>
    <name>ski st martin de Belleville - J1</name>
    <desc><![CDATA[1ere journee de ski a st martin de Belleville
26 janvier 2014]]></desc>
  </metadata>
  <trk>
    <name><![CDATA[2014-01-26 09:34]]></name>
    <desc><![CDATA[<h1>OruxMaps</h1><br /><hr align="center" width="480" style="height: 2px; width: 517px"/><h2>Nom: 2014-01-26 09:34</h2><br /><p>Temps de départ: 01/26/2014 09:34</p><p>Temps d'arrivée: 01/26/2014 16:52</p><p>Distance: 95 km (07:15)</p><p>Temps déplacement: 05:15</p><p>Vitesse moyenne: 13,1 km/h</p><p>Vitesse moyenne: 18 km/h</p><p>Vitess Max.: 59 km/h</p><p>Altitude minimale: 1413 m</p><p>Altitude maximale: 2937 m</p><p>Vitesse d'élévation: 3471,1 m/h</p><p>Vitesse de descente: -2904,2 m/h</p><p>Gain Altitude: 10849 m</p><p>Perte Altitude: -10983 m</p><p>Temps d'élévation: 03:07</p><p>Temps de descente: 03:46</p><hr align="center" width="480" style="height: 2px; width: 517px"/>]]></desc>
    <trkseg>
      <trkpt lat="45.37777" lon="6.50374">
        <ele>1413.42</ele>
        <time>2014-01-26T08:34:37Z</time>
      </trkpt>
      <trkpt lat="45.3774" lon="6.50457">
        <ele>1424.56</ele>
        <time>2014-01-26T08:35:20Z</time>
      </trkpt>
      <trkpt lat="45.37723" lon="6.50426">
        <ele>1423.96</ele>
        <time>2014-01-26T08:36:59Z</time>
      </trkpt>
      <trkpt lat="45.37689" lon="6.50447">
        <ele>1426.11</ele>
        <time>2014-01-26T08:37:47Z</time>
      </trkpt>
      <trkpt lat="45.37671" lon="6.50463">
        <ele>1427.78</ele>
        <time>2014-01-26T08:40:15Z</time>
      </trkpt>
      <trkpt lat="45.37664" lon="6.50518">
        <ele>1435.03</ele>
        <time>2014-01-26T08:40:24Z</time>
      </trkpt>
      <trkpt lat="45.37659" lon="6.50576">
        <ele>1446.86</ele>
        <time>2014-01-26T08:40:35Z</time>
      </trkpt>
      <trkpt lat="45.3765" lon="6.50632">
        <ele>1456.67</ele>
        <time>2014-01-26T08:40:46Z</time>
      </trkpt>
      <trkpt lat="45.37639" lon="6.50686">
        <ele>1473.76</ele>
        <time>2014-01-26T08:40:56Z</time>
      </trkpt>
      <trkpt lat="45.37631" lon="6.50742">
        <ele>1486.44</ele>
        <time>2014-01-26T08:41:06Z</time>
      </trkpt>
      <trkpt lat="45.3762" lon="6.50794">
        <ele>1491.72</ele>
        <time>2014-01-26T08:41:16Z</time>
      </trkpt>
      <trkpt lat="45.37618" lon="6.5085">
        <ele>1498.5</ele>
        <time>2014-01-26T08:41:26Z</time>
      </trkpt>
      <trkpt lat="45.37612" lon="6.50901">
        <ele>1509.56</ele>
        <time>2014-01-26T08:41:36Z</time>
      </trkpt>
      <trkpt lat="45.37602" lon="6.50957">
        <ele>1519.75</ele>
        <time>2014-01-26T08:41:46Z</time>
      </trkpt>
      <trkpt lat="45.37592" lon="6.51009">
        <ele>1533.56</ele>
        <time>2014-01-26T08:41:56Z</time>
      </trkpt>
      <trkpt lat="45.37583" lon="6.51059">
        <ele>1543.57</ele>
        <time>2014-01-26T08:42:06Z</time>
      </trkpt>
      <trkpt lat="45.37577" lon="6.5112">
        <ele>1555.83</ele>
        <time>2014-01-26T08:42:18Z</time>
      </trkpt>
      <trkpt lat="45.37567" lon="6.51177">
        <ele>1574.71</ele>
        <time>2014-01-26T08:42:28Z</time>
      </trkpt>
      <trkpt lat="45.37557" lon="6.51232">
        <ele>1581.77</ele>
        <time>2014-01-26T08:42:39Z</time>
      </trkpt>
      <trkpt lat="45.37551" lon="6.51287">
        <ele>1586.68</ele>
        <time>2014-01-26T08:42:50Z</time>
      </trkpt>
      <trkpt lat="45.37543" lon="6.51342">
        <ele>1592.34</ele>
        <time>2014-01-26T08:43:00Z</time>
      </trkpt>
      <trkpt lat="45.37537" lon="6.51396">
        <ele>1596.55</ele>
        <time>2014-01-26T08:43:10Z</time>
      </trkpt>
      <trkpt lat="45.37527" lon="6.51451">
        <ele>1600.02</ele>
        <time>2014-01-26T08:43:21Z</time>
      </trkpt>
      <trkpt lat="45.37518" lon="6.51505">
        <ele>1609.79</ele>
        <time>2014-01-26T08:43:31Z</time>
      </trkpt>
      <trkpt lat="45.37508" lon="6.51557">
        <ele>1616.56</ele>
        <time>2014-01-26T08:43:41Z</time>
      </trkpt>
      <trkpt lat="45.37499" lon="6.51612">
        <ele>1617.97</ele>
        <time>2014-01-26T08:43:51Z</time>
      </trkpt>
      <trkpt lat="45.37483" lon="6.51666">
        <ele>1616.29</ele>
        <time>2014-01-26T08:44:01Z</time>
      </trkpt>
      <trkpt lat="45.37474" lon="6.51724">
        <ele>1615.46</ele>
        <time>2014-01-26T08:44:11Z</time>
      </trkpt>
      <trkpt lat="45.37468" lon="6.51782">
        <ele>1615.34</ele>
        <time>2014-01-26T08:44:21Z</time>
      </trkpt>
      <trkpt lat="45.37462" lon="6.51838">
        <ele>1618.59</ele>
        <time>2014-01-26T08:44:31Z</time>
      </trkpt>
      <trkpt lat="45.37452" lon="6.51894">
        <ele>1625.76</ele>
        <time>2014-01-26T08:44:41Z</time>
      </trkpt>
      <trkpt lat="45.37442" lon="6.51947">
        <ele>1639.24</ele>
        <time>2014-01-26T08:44:51Z</time>
      </trkpt>
      <trkpt lat="45.37433" lon="6.52001">
        <ele>1655.85</ele>
        <time>2014-01-26T08:45:02Z</time>
      </trkpt>
      <trkpt lat="45.37427" lon="6.52059">
        <ele>1674.08</ele>
        <time>2014-01-26T08:45:13Z</time>
      </trkpt>
      <trkpt lat="45.37421" lon="6.52112">
        <ele>1691.62</ele>
        <time>2014-01-26T08:45:23Z</time>
      </trkpt>
      <trkpt lat="45.37412" lon="6.52168">
        <ele>1706.1</ele>
        <time>2014-01-26T08:45:33Z</time>
      </trkpt>
      <trkpt lat="45.37401" lon="6.52222">
        <ele>1719.83</ele>
        <time>2014-01-26T08:45:43Z</time>
      </trkpt>
      <trkpt lat="45.37392" lon="6.52278">
        <ele>1735.31</ele>
        <time>2014-01-26T08:45:53Z</time>
      </trkpt>
      <trkpt lat="45.37383" lon="6.52331">
        <ele>1745.95</ele>
        <time>2014-01-26T08:46:03Z</time>
      </trkpt>
      <trkpt lat="45.37374" lon="6.52383">
        <ele>1756.9</ele>
        <time>2014-01-26T08:46:13Z</time>
      </trkpt>
      <trkpt lat="45.37364" lon="6.52436">
        <ele>1771.14</ele>
        <time>2014-01-26T08:46:23Z</time>
      </trkpt>
      <trkpt lat="45.37355" lon="6.52489">
        <ele>1781.5</ele>
        <time>2014-01-26T08:46:33Z</time>
      </trkpt>
      <trkpt lat="45.37346" lon="6.52541">
        <ele>1778.81</ele>
        <time>2014-01-26T08:46:44Z</time>
      </trkpt>
      <trkpt lat="45.37342" lon="6.52593">
        <ele>1777.45</ele>
        <time>2014-01-26T08:46:53Z</time>
      </trkpt>
      <trkpt lat="45.37336" lon="6.52649">
        <ele>1778.55</ele>
        <time>2014-01-26T08:47:03Z</time>
      </trkpt>
      <trkpt lat="45.37329" lon="6.52704">
        <ele>1783.94</ele>
        <time>2014-01-26T08:47:13Z</time>
      </trkpt>
      <trkpt lat="45.37322" lon="6.52758">
        <ele>1789.94</ele>
        <time>2014-01-26T08:47:23Z</time>
      </trkpt>
      <trkpt lat="45.37316" lon="6.52811">
        <ele>1792</ele>
        <time>2014-01-26T08:47:33Z</time>
      </trkpt>
      <trkpt lat="45.37307" lon="6.52866">
        <ele>1795.65</ele>
        <time>2014-01-26T08:47:44Z</time>
      </trkpt>
      <trkpt lat="45.37271" lon="6.52863">
        <ele>1790.49</ele>
        <time>2014-01-26T08:49:37Z</time>
      </trkpt>
      <trkpt lat="45.3725" lon="6.52911">
        <ele>1792.09</ele>
        <time>2014-01-26T08:50:52Z</time>
      </trkpt>
      <trkpt lat="45.37236" lon="6.52968">
        <ele>1802.92</ele>
        <time>2014-01-26T08:51:02Z</time>
      </trkpt>
      <trkpt lat="45.37221" lon="6.5302">
        <ele>1809.84</ele>
        <time>2014-01-26T08:51:10Z</time>
      </trkpt>
      <trkpt lat="45.37205" lon="6.53075">
        <ele>1817.38</ele>
        <time>2014-01-26T08:51:20Z</time>
      </trkpt>
      <trkpt lat="45.37189" lon="6.53124">
        <ele>1828.19</ele>
        <time>2014-01-26T08:51:31Z</time>
      </trkpt>
      <trkpt lat="45.37176" lon="6.53178">
        <ele>1848.73</ele>
        <time>2014-01-26T08:51:40Z</time>
      </trkpt>
      <trkpt lat="45.37167" lon="6.53234">
        <ele>1865.8</ele>
        <time>2014-01-26T08:51:50Z</time>
      </trkpt>
      <trkpt lat="45.37149" lon="6.5328">
        <ele>1875.51</ele>
        <time>2014-01-26T08:51:59Z</time>
      </trkpt>
      <trkpt lat="45.37136" lon="6.53331">
        <ele>1882.11</ele>
        <time>2014-01-26T08:52:08Z</time>
      </trkpt>
      <trkpt lat="45.37121" lon="6.53386">
        <ele>1888.71</ele>
        <time>2014-01-26T08:52:18Z</time>
      </trkpt>
      <trkpt lat="45.37107" lon="6.53443">
        <ele>1899.06</ele>
        <time>2014-01-26T08:52:28Z</time>
      </trkpt>
      <trkpt lat="45.37095" lon="6.53503">
        <ele>1907.56</ele>
        <time>2014-01-26T08:52:38Z</time>
      </trkpt>
      <trkpt lat="45.37087" lon="6.53565">
        <ele>1919.48</ele>
        <time>2014-01-26T08:52:48Z</time>
      </trkpt>
      <trkpt lat="45.37074" lon="6.53617">
        <ele>1932.14</ele>
        <time>2014-01-26T08:52:58Z</time>
      </trkpt>
      <trkpt lat="45.37061" lon="6.53675">
        <ele>1947.49</ele>
        <time>2014-01-26T08:53:07Z</time>
      </trkpt>
      <trkpt lat="45.37048" lon="6.53724">
        <ele>1959.12</ele>
        <time>2014-01-26T08:53:16Z</time>
      </trkpt>
      <trkpt lat="45.3703" lon="6.53773">
        <ele>1971.28</ele>
        <time>2014-01-26T08:53:26Z</time>
      </trkpt>
      <trkpt lat="45.37011" lon="6.53821">
        <ele>1978.08</ele>
        <time>2014-01-26T08:53:36Z</time>
      </trkpt>
      <trkpt lat="45.36995" lon="6.53876">
        <ele>1994.78</ele>
        <time>2014-01-26T08:53:46Z</time>
      </trkpt>
      <trkpt lat="45.36979" lon="6.5393">
        <ele>2000.89</ele>
        <time>2014-01-26T08:53:56Z</time>
      </trkpt>
      <trkpt lat="45.36963" lon="6.53982">
        <ele>2005.61</ele>
        <time>2014-01-26T08:54:05Z</time>
      </trkpt>
      <trkpt lat="45.36951" lon="6.54035">
        <ele>2013.88</ele>
        <time>2014-01-26T08:54:14Z</time>
      </trkpt>
      <trkpt lat="45.36939" lon="6.5409">
        <ele>2028.1</ele>
        <time>2014-01-26T08:54:24Z</time>
      </trkpt>
      <trkpt lat="45.36922" lon="6.54144">
        <ele>2054.48</ele>
        <time>2014-01-26T08:54:34Z</time>
      </trkpt>
      <trkpt lat="45.36915" lon="6.542">
        <ele>2077.1</ele>
        <time>2014-01-26T08:54:44Z</time>
      </trkpt>
      <trkpt lat="45.36896" lon="6.54252">
        <ele>2088.23</ele>
        <time>2014-01-26T08:54:54Z</time>
      </trkpt>
      <trkpt lat="45.36878" lon="6.54303">
        <ele>2101.24</ele>
        <time>2014-01-26T08:55:04Z</time>
      </trkpt>
      <trkpt lat="45.36859" lon="6.54357">
        <ele>2099.42</ele>
        <time>2014-01-26T08:55:15Z</time>
      </trkpt>
      <trkpt lat="45.36836" lon="6.54404">
        <ele>2101.16</ele>
        <time>2014-01-26T08:55:25Z</time>
      </trkpt>
      <trkpt lat="45.36821" lon="6.54456">
        <ele>2107.99</ele>
        <time>2014-01-26T08:55:40Z</time>
      </trkpt>
      <trkpt lat="45.36806" lon="6.54509">
        <ele>2122.66</ele>
        <time>2014-01-26T08:55:56Z</time>
      </trkpt>
      <trkpt lat="45.3679" lon="6.54564">
        <ele>2128.59</ele>
        <time>2014-01-26T08:56:08Z</time>
      </trkpt>
      <trkpt lat="45.36774" lon="6.5462">
        <ele>2132.01</ele>
        <time>2014-01-26T08:56:18Z</time>
      </trkpt>
      <trkpt lat="45.3676" lon="6.54676">
        <ele>2143.55</ele>
        <time>2014-01-26T08:56:28Z</time>
      </trkpt>
      <trkpt lat="45.36746" lon="6.54731">
        <ele>2168.29</ele>
        <time>2014-01-26T08:56:39Z</time>
      </trkpt>
      <trkpt lat="45.36736" lon="6.54788">
        <ele>2192.06</ele>
        <time>2014-01-26T08:56:49Z</time>
      </trkpt>
      <trkpt lat="45.36716" lon="6.54837">
        <ele>2191.45</ele>
        <time>2014-01-26T08:56:58Z</time>
      </trkpt>
      <trkpt lat="45.36698" lon="6.54893">
        <ele>2197.88</ele>
        <time>2014-01-26T08:57:08Z</time>
      </trkpt>
      <trkpt lat="45.36682" lon="6.54949">
        <ele>2194.12</ele>
        <time>2014-01-26T08:57:18Z</time>
      </trkpt>
      <trkpt lat="45.36665" lon="6.55005">
        <ele>2200.44</ele>
        <time>2014-01-26T08:57:28Z</time>
      </trkpt>
      <trkpt lat="45.36653" lon="6.55062">
        <ele>2213.25</ele>
        <time>2014-01-26T08:57:38Z</time>
      </trkpt>
      <trkpt lat="45.36637" lon="6.55115">
        <ele>2228.03</ele>
        <time>2014-01-26T08:57:48Z</time>
      </trkpt>
      <trkpt lat="45.36624" lon="6.55172">
        <ele>2243.62</ele>
        <time>2014-01-26T08:57:58Z</time>
      </trkpt>
      <trkpt lat="45.36605" lon="6.55225">
        <ele>2252.88</ele>
        <time>2014-01-26T08:58:08Z</time>
      </trkpt>
      <trkpt lat="45.36591" lon="6.55277">
        <ele>2261.65</ele>
        <time>2014-01-26T08:58:17Z</time>
      </trkpt>
      <trkpt lat="45.36575" lon="6.55333">
        <ele>2265.19</ele>
        <time>2014-01-26T08:58:28Z</time>
      </trkpt>
      <trkpt lat="45.3656" lon="6.55387">
        <ele>2280.35</ele>
        <time>2014-01-26T08:58:37Z</time>
      </trkpt>
      <trkpt lat="45.36545" lon="6.55442">
        <ele>2291.31</ele>
        <time>2014-01-26T08:58:47Z</time>
      </trkpt>
      <trkpt lat="45.36532" lon="6.55498">
        <ele>2299.18</ele>
        <time>2014-01-26T08:58:57Z</time>
      </trkpt>
      <trkpt lat="45.36524" lon="6.55551">
        <ele>2315.78</ele>
        <time>2014-01-26T08:59:07Z</time>
      </trkpt>
      <trkpt lat="45.3652" lon="6.55608">
        <ele>2337.42</ele>
        <time>2014-01-26T08:59:17Z</time>
      </trkpt>
      <trkpt lat="45.3651" lon="6.55661">
        <ele>2371.16</ele>
        <time>2014-01-26T08:59:27Z</time>
      </trkpt>
      <trkpt lat="45.36497" lon="6.55715">
        <ele>2396.56</ele>
        <time>2014-01-26T08:59:38Z</time>
      </trkpt>
      <trkpt lat="45.36469" lon="6.5574">
        <ele>2395.9</ele>
        <time>2014-01-26T08:59:56Z</time>
      </trkpt>
      <trkpt lat="45.36507" lon="6.55729">
        <ele>2403</ele>
        <time>2014-01-26T09:00:39Z</time>
      </trkpt>
      <trkpt lat="45.36543" lon="6.55709">
        <ele>2402.79</ele>
        <time>2014-01-26T09:00:54Z</time>
      </trkpt>
      <trkpt lat="45.36576" lon="6.55683">
        <ele>2399.42</ele>
        <time>2014-01-26T09:01:41Z</time>
      </trkpt>
      <trkpt lat="45.36613" lon="6.55651">
        <ele>2381.72</ele>
        <time>2014-01-26T09:01:47Z</time>
      </trkpt>
      <trkpt lat="45.36656" lon="6.55618">
        <ele>2364.86</ele>
        <time>2014-01-26T09:01:52Z</time>
      </trkpt>
      <trkpt lat="45.3669" lon="6.55582">
        <ele>2353.08</ele>
        <time>2014-01-26T09:01:56Z</time>
      </trkpt>
      <trkpt lat="45.36713" lon="6.55542">
        <ele>2345.71</ele>
        <time>2014-01-26T09:02:00Z</time>
      </trkpt>
      <trkpt lat="45.36735" lon="6.5549">
        <ele>2338.63</ele>
        <time>2014-01-26T09:02:06Z</time>
      </trkpt>
      <trkpt lat="45.36755" lon="6.55432">
        <ele>2338.1</ele>
        <time>2014-01-26T09:02:14Z</time>
      </trkpt>
      <trkpt lat="45.36792" lon="6.55461">
        <ele>2334.07</ele>
        <time>2014-01-26T09:03:03Z</time>
      </trkpt>
      <trkpt lat="45.36833" lon="6.55474">
        <ele>2314.88</ele>
        <time>2014-01-26T09:03:08Z</time>
      </trkpt>
      <trkpt lat="45.36869" lon="6.55447">
        <ele>2301.55</ele>
        <time>2014-01-26T09:03:23Z</time>
      </trkpt>
      <trkpt lat="45.369" lon="6.55439">
        <ele>2289.72</ele>
        <time>2014-01-26T09:03:35Z</time>
      </trkpt>
      <trkpt lat="45.36938" lon="6.55427">
        <ele>2276.4</ele>
        <time>2014-01-26T09:04:00Z</time>
      </trkpt>
      <trkpt lat="45.36976" lon="6.55405">
        <ele>2266.16</ele>
        <time>2014-01-26T09:04:05Z</time>
      </trkpt>
      <trkpt lat="45.37017" lon="6.5539">
        <ele>2257.72</ele>
        <time>2014-01-26T09:04:11Z</time>
      </trkpt>
      <trkpt lat="45.37059" lon="6.55387">
        <ele>2249.75</ele>
        <time>2014-01-26T09:04:18Z</time>
      </trkpt>
      <trkpt lat="45.37093" lon="6.55408">
        <ele>2243.43</ele>
        <time>2014-01-26T09:04:28Z</time>
      </trkpt>
      <trkpt lat="45.37134" lon="6.55418">
        <ele>2229.92</ele>
        <time>2014-01-26T09:04:35Z</time>
      </trkpt>
      <trkpt lat="45.3718" lon="6.5543">
        <ele>2212.69</ele>
        <time>2014-01-26T09:04:39Z</time>
      </trkpt>
      <trkpt lat="45.37219" lon="6.55458">
        <ele>2202.2</ele>
        <time>2014-01-26T09:04:46Z</time>
      </trkpt>
      <trkpt lat="45.37252" lon="6.55478">
        <ele>2197.07</ele>
        <time>2014-01-26T09:04:52Z</time>
      </trkpt>
      <trkpt lat="45.37288" lon="6.555">
        <ele>2190.29</ele>
        <time>2014-01-26T09:05:20Z</time>
      </trkpt>
      <trkpt lat="45.37336" lon="6.55508">
        <ele>2174.09</ele>
        <time>2014-01-26T09:05:30Z</time>
      </trkpt>
      <trkpt lat="45.37334" lon="6.55559">
        <ele>2167.05</ele>
        <time>2014-01-26T09:05:45Z</time>
      </trkpt>
      <trkpt lat="45.37375" lon="6.55567">
        <ele>2141.59</ele>
        <time>2014-01-26T09:05:59Z</time>
      </trkpt>
      <trkpt lat="45.374" lon="6.55607">
        <ele>2117.46</ele>
        <time>2014-01-26T09:06:06Z</time>
      </trkpt>
      <trkpt lat="45.37431" lon="6.5564">
        <ele>2101.22</ele>
        <time>2014-01-26T09:06:11Z</time>
      </trkpt>
      <trkpt lat="45.37465" lon="6.55656">
        <ele>2099.73</ele>
        <time>2014-01-26T09:06:35Z</time>
      </trkpt>
      <trkpt lat="45.37506" lon="6.55646">
        <ele>2096.13</ele>
        <time>2014-01-26T09:06:46Z</time>
      </trkpt>
      <trkpt lat="45.37548" lon="6.55651">
        <ele>2079.99</ele>
        <time>2014-01-26T09:06:52Z</time>
      </trkpt>
      <trkpt lat="45.37588" lon="6.55659">
        <ele>2071.04</ele>
        <time>2014-01-26T09:06:59Z</time>
      </trkpt>
      <trkpt lat="45.37627" lon="6.55643">
        <ele>2064.44</ele>
        <time>2014-01-26T09:07:07Z</time>
      </trkpt>
      <trkpt lat="45.3767" lon="6.5566">
        <ele>2041.31</ele>
        <time>2014-01-26T09:07:15Z</time>
      </trkpt>
      <trkpt lat="45.37689" lon="6.55686">
        <ele>2030.64</ele>
        <time>2014-01-26T09:07:20Z</time>
      </trkpt>
      <trkpt lat="45.37714" lon="6.55734">
        <ele>2016.01</ele>
        <time>2014-01-26T09:07:25Z</time>
      </trkpt>
      <trkpt lat="45.37713" lon="6.55795">
        <ele>2008.26</ele>
        <time>2014-01-26T09:08:40Z</time>
      </trkpt>
      <trkpt lat="45.37728" lon="6.55862">
        <ele>1992</ele>
        <time>2014-01-26T09:08:46Z</time>
      </trkpt>
      <trkpt lat="45.37743" lon="6.55921">
        <ele>1980.48</ele>
        <time>2014-01-26T09:08:52Z</time>
      </trkpt>
      <trkpt lat="45.37757" lon="6.55971">
        <ele>1973.04</ele>
        <time>2014-01-26T09:08:59Z</time>
      </trkpt>
      <trkpt lat="45.37751" lon="6.56025">
        <ele>1967.18</ele>
        <time>2014-01-26T09:09:10Z</time>
      </trkpt>
      <trkpt lat="45.37744" lon="6.5609">
        <ele>1957.53</ele>
        <time>2014-01-26T09:09:21Z</time>
      </trkpt>
      <trkpt lat="45.37732" lon="6.56151">
        <ele>1947.65</ele>
        <time>2014-01-26T09:09:27Z</time>
      </trkpt>
      <trkpt lat="45.37718" lon="6.56205">
        <ele>1940.81</ele>
        <time>2014-01-26T09:09:35Z</time>
      </trkpt>
      <trkpt lat="45.37715" lon="6.56258">
        <ele>1931.07</ele>
        <time>2014-01-26T09:09:43Z</time>
      </trkpt>
      <trkpt lat="45.37707" lon="6.56312">
        <ele>1922.1</ele>
        <time>2014-01-26T09:09:52Z</time>
      </trkpt>
      <trkpt lat="45.3767" lon="6.56322">
        <ele>1923.49</ele>
        <time>2014-01-26T09:11:10Z</time>
      </trkpt>
      <trkpt lat="45.37634" lon="6.56298">
        <ele>1931.22</ele>
        <time>2014-01-26T09:11:29Z</time>
      </trkpt>
      <trkpt lat="45.37599" lon="6.56281">
        <ele>1940.67</ele>
        <time>2014-01-26T09:11:42Z</time>
      </trkpt>
      <trkpt lat="45.37561" lon="6.56265">
        <ele>1955.07</ele>
        <time>2014-01-26T09:11:54Z</time>
      </trkpt>
      <trkpt lat="45.37522" lon="6.5625">
        <ele>1968.33</ele>
        <time>2014-01-26T09:12:06Z</time>
      </trkpt>
      <trkpt lat="45.37485" lon="6.56235">
        <ele>1978.74</ele>
        <time>2014-01-26T09:12:12Z</time>
      </trkpt>
      <trkpt lat="45.37444" lon="6.56219">
        <ele>1985.95</ele>
        <time>2014-01-26T09:12:19Z</time>
      </trkpt>
      <trkpt lat="45.37408" lon="6.56205">
        <ele>1993.7</ele>
        <time>2014-01-26T09:12:29Z</time>
      </trkpt>
      <trkpt lat="45.37371" lon="6.56189">
        <ele>2006.5</ele>
        <time>2014-01-26T09:12:40Z</time>
      </trkpt>
      <trkpt lat="45.37332" lon="6.56175">
        <ele>2018.99</ele>
        <time>2014-01-26T09:12:52Z</time>
      </trkpt>
      <trkpt lat="45.37295" lon="6.56159">
        <ele>2023.91</ele>
        <time>2014-01-26T09:13:03Z</time>
      </trkpt>
      <trkpt lat="45.37257" lon="6.5614">
        <ele>2038.23</ele>
        <time>2014-01-26T09:13:12Z</time>
      </trkpt>
      <trkpt lat="45.37219" lon="6.56124">
        <ele>2052.89</ele>
        <time>2014-01-26T09:13:19Z</time>
      </trkpt>
      <trkpt lat="45.3718" lon="6.5611">
        <ele>2078.19</ele>
        <time>2014-01-26T09:13:33Z</time>
      </trkpt>
      <trkpt lat="45.37136" lon="6.56096">
        <ele>2106.1</ele>
        <time>2014-01-26T09:13:46Z</time>
      </trkpt>
      <trkpt lat="45.37096" lon="6.56081">
        <ele>2130.83</ele>
        <time>2014-01-26T09:13:55Z</time>
      </trkpt>
      <trkpt lat="45.37057" lon="6.56063">
        <ele>2152.19</ele>
        <time>2014-01-26T09:14:07Z</time>
      </trkpt>
      <trkpt lat="45.37019" lon="6.56046">
        <ele>2169.28</ele>
        <time>2014-01-26T09:14:17Z</time>
      </trkpt>
      <trkpt lat="45.3698" lon="6.56032">
        <ele>2181.63</ele>
        <time>2014-01-26T09:14:27Z</time>
      </trkpt>
      <trkpt lat="45.36942" lon="6.56017">
        <ele>2190.93</ele>
        <time>2014-01-26T09:14:37Z</time>
      </trkpt>
      <trkpt lat="45.36906" lon="6.56002">
        <ele>2205.87</ele>
        <time>2014-01-26T09:14:47Z</time>
      </trkpt>
      <trkpt lat="45.36867" lon="6.55986">
        <ele>2218.33</ele>
        <time>2014-01-26T09:14:59Z</time>
      </trkpt>
      <trkpt lat="45.36829" lon="6.5597">
        <ele>2230.56</ele>
        <time>2014-01-26T09:15:12Z</time>
      </trkpt>
      <trkpt lat="45.36792" lon="6.55956">
        <ele>2250.42</ele>
        <time>2014-01-26T09:15:23Z</time>
      </trkpt>
      <trkpt lat="45.36753" lon="6.5594">
        <ele>2269.48</ele>
        <time>2014-01-26T09:15:35Z</time>
      </trkpt>
      <trkpt lat="45.36716" lon="6.55925">
        <ele>2288.52</ele>
        <time>2014-01-26T09:15:45Z</time>
      </trkpt>
      <trkpt lat="45.36673" lon="6.5591">
        <ele>2308.68</ele>
        <time>2014-01-26T09:15:53Z</time>
      </trkpt>
      <trkpt lat="45.36636" lon="6.55894">
        <ele>2327.56</ele>
        <time>2014-01-26T09:16:03Z</time>
      </trkpt>
      <trkpt lat="45.36597" lon="6.55878">
        <ele>2340.51</ele>
        <time>2014-01-26T09:16:15Z</time>
      </trkpt>
      <trkpt lat="45.36557" lon="6.55862">
        <ele>2350.69</ele>
        <time>2014-01-26T09:16:27Z</time>
      </trkpt>
      <trkpt lat="45.36519" lon="6.55845">
        <ele>2368.77</ele>
        <time>2014-01-26T09:16:41Z</time>
      </trkpt>
      <trkpt lat="45.36482" lon="6.55831">
        <ele>2388.93</ele>
        <time>2014-01-26T09:16:53Z</time>
      </trkpt>
      <trkpt lat="45.36443" lon="6.55819">
        <ele>2402.6</ele>
        <time>2014-01-26T09:16:57Z</time>
      </trkpt>
      <trkpt lat="45.36405" lon="6.55805">
        <ele>2411.97</ele>
        <time>2014-01-26T09:17:05Z</time>
      </trkpt>
      <trkpt lat="45.36405" lon="6.55755">
        <ele>2393.98</ele>
        <time>2014-01-26T09:18:23Z</time>
      </trkpt>
      <trkpt lat="45.36363" lon="6.55733">
        <ele>2387.25</ele>
        <time>2014-01-26T09:18:29Z</time>
      </trkpt>
      <trkpt lat="45.36321" lon="6.55715">
        <ele>2379.04</ele>
        <time>2014-01-26T09:18:35Z</time>
      </trkpt>
      <trkpt lat="45.36276" lon="6.55697">
        <ele>2373.3</ele>
        <time>2014-01-26T09:18:41Z</time>
      </trkpt>
      <trkpt lat="45.36232" lon="6.55682">
        <ele>2362.09</ele>
        <time>2014-01-26T09:18:46Z</time>
      </trkpt>
      <trkpt lat="45.36188" lon="6.55681">
        <ele>2360.52</ele>
        <time>2014-01-26T09:18:51Z</time>
      </trkpt>
      <trkpt lat="45.3614" lon="6.55652">
        <ele>2351.13</ele>
        <time>2014-01-26T09:18:57Z</time>
      </trkpt>
      <trkpt lat="45.36089" lon="6.55642">
        <ele>2340.07</ele>
        <time>2014-01-26T09:19:03Z</time>
      </trkpt>
      <trkpt lat="45.36043" lon="6.55632">
        <ele>2337.82</ele>
        <time>2014-01-26T09:19:09Z</time>
      </trkpt>
      <trkpt lat="45.36004" lon="6.5561">
        <ele>2328.08</ele>
        <time>2014-01-26T09:19:15Z</time>
      </trkpt>
      <trkpt lat="45.3596" lon="6.55581">
        <ele>2317.51</ele>
        <time>2014-01-26T09:19:21Z</time>
      </trkpt>
      <trkpt lat="45.35925" lon="6.55563">
        <ele>2307.71</ele>
        <time>2014-01-26T09:19:28Z</time>
      </trkpt>
      <trkpt lat="45.35882" lon="6.5555">
        <ele>2299.96</ele>
        <time>2014-01-26T09:19:34Z</time>
      </trkpt>
      <trkpt lat="45.35842" lon="6.55554">
        <ele>2294.3</ele>
        <time>2014-01-26T09:19:38Z</time>
      </trkpt>
      <trkpt lat="45.35797" lon="6.55569">
        <ele>2286.88</ele>
        <time>2014-01-26T09:19:43Z</time>
      </trkpt>
      <trkpt lat="45.3576" lon="6.55581">
        <ele>2285.87</ele>
        <time>2014-01-26T09:19:47Z</time>
      </trkpt>
      <trkpt lat="45.35717" lon="6.55588">
        <ele>2289.69</ele>
        <time>2014-01-26T09:19:53Z</time>
      </trkpt>
      <trkpt lat="45.35674" lon="6.55571">
        <ele>2282.33</ele>
        <time>2014-01-26T09:20:01Z</time>
      </trkpt>
      <trkpt lat="45.35634" lon="6.55548">
        <ele>2281.33</ele>
        <time>2014-01-26T09:20:07Z</time>
      </trkpt>
      <trkpt lat="45.35596" lon="6.55517">
        <ele>2276.71</ele>
        <time>2014-01-26T09:20:13Z</time>
      </trkpt>
      <trkpt lat="45.35554" lon="6.55481">
        <ele>2271.01</ele>
        <time>2014-01-26T09:20:19Z</time>
      </trkpt>
      <trkpt lat="45.35516" lon="6.55446">
        <ele>2260.81</ele>
        <time>2014-01-26T09:20:24Z</time>
      </trkpt>
      <trkpt lat="45.3547" lon="6.55411">
        <ele>2255.12</ele>
        <time>2014-01-26T09:20:30Z</time>
      </trkpt>
      <trkpt lat="45.35435" lon="6.55371">
        <ele>2250.83</ele>
        <time>2014-01-26T09:20:36Z</time>
      </trkpt>
      <trkpt lat="45.35397" lon="6.55349">
        <ele>2246.95</ele>
        <time>2014-01-26T09:20:43Z</time>
      </trkpt>
      <trkpt lat="45.35361" lon="6.55359">
        <ele>2248.59</ele>
        <time>2014-01-26T09:21:01Z</time>
      </trkpt>
      <trkpt lat="45.35325" lon="6.55342">
        <ele>2244.99</ele>
        <time>2014-01-26T09:21:49Z</time>
      </trkpt>
      <trkpt lat="45.35287" lon="6.55327">
        <ele>2244.81</ele>
        <time>2014-01-26T09:22:00Z</time>
      </trkpt>
      <trkpt lat="45.35258" lon="6.55278">
        <ele>2248.83</ele>
        <time>2014-01-26T09:22:08Z</time>
      </trkpt>
      <trkpt lat="45.35255" lon="6.55218">
        <ele>2245.03</ele>
        <time>2014-01-26T09:22:14Z</time>
      </trkpt>
      <trkpt lat="45.35235" lon="6.55158">
        <ele>2229.82</ele>
        <time>2014-01-26T09:22:20Z</time>
      </trkpt>
      <trkpt lat="45.35199" lon="6.55109">
        <ele>2226.06</ele>
        <time>2014-01-26T09:22:26Z</time>
      </trkpt>
      <trkpt lat="45.35168" lon="6.55074">
        <ele>2221.16</ele>
        <time>2014-01-26T09:22:32Z</time>
      </trkpt>
      <trkpt lat="45.35123" lon="6.55058">
        <ele>2210.91</ele>
        <time>2014-01-26T09:22:39Z</time>
      </trkpt>
      <trkpt lat="45.35076" lon="6.5505">
        <ele>2209.68</ele>
        <time>2014-01-26T09:22:45Z</time>
      </trkpt>
      <trkpt lat="45.35035" lon="6.55036">
        <ele>2206.66</ele>
        <time>2014-01-26T09:22:51Z</time>
      </trkpt>
      <trkpt lat="45.34996" lon="6.55027">
        <ele>2200.67</ele>
        <time>2014-01-26T09:22:57Z</time>
      </trkpt>
      <trkpt lat="45.3495" lon="6.55015">
        <ele>2194.43</ele>
        <time>2014-01-26T09:23:03Z</time>
      </trkpt>
      <trkpt lat="45.34916" lon="6.54971">
        <ele>2185.84</ele>
        <time>2014-01-26T09:23:08Z</time>
      </trkpt>
      <trkpt lat="45.3489" lon="6.54912">
        <ele>2180.69</ele>
        <time>2014-01-26T09:23:12Z</time>
      </trkpt>
      <trkpt lat="45.3487" lon="6.5486">
        <ele>2179.92</ele>
        <time>2014-01-26T09:23:16Z</time>
      </trkpt>
      <trkpt lat="45.34847" lon="6.54796">
        <ele>2176.5</ele>
        <time>2014-01-26T09:23:22Z</time>
      </trkpt>
      <trkpt lat="45.34825" lon="6.54733">
        <ele>2173.11</ele>
        <time>2014-01-26T09:23:28Z</time>
      </trkpt>
      <trkpt lat="45.34806" lon="6.54681">
        <ele>2169.53</ele>
        <time>2014-01-26T09:23:36Z</time>
      </trkpt>
      <trkpt lat="45.34779" lon="6.54636">
        <ele>2164.55</ele>
        <time>2014-01-26T09:23:45Z</time>
      </trkpt>
      <trkpt lat="45.34747" lon="6.54606">
        <ele>2160.76</ele>
        <time>2014-01-26T09:24:24Z</time>
      </trkpt>
      <trkpt lat="45.34707" lon="6.54588">
        <ele>2156.2</ele>
        <time>2014-01-26T09:24:32Z</time>
      </trkpt>
      <trkpt lat="45.34666" lon="6.54577">
        <ele>2147.28</ele>
        <time>2014-01-26T09:24:38Z</time>
      </trkpt>
      <trkpt lat="45.34622" lon="6.5457">
        <ele>2147.3</ele>
        <time>2014-01-26T09:24:44Z</time>
      </trkpt>
      <trkpt lat="45.34582" lon="6.54543">
        <ele>2147.46</ele>
        <time>2014-01-26T09:24:50Z</time>
      </trkpt>
      <trkpt lat="45.34543" lon="6.54509">
        <ele>2140.58</ele>
        <time>2014-01-26T09:24:56Z</time>
      </trkpt>
      <trkpt lat="45.34495" lon="6.54484">
        <ele>2131.34</ele>
        <time>2014-01-26T09:25:02Z</time>
      </trkpt>
      <trkpt lat="45.34457" lon="6.5447">
        <ele>2125.39</ele>
        <time>2014-01-26T09:25:07Z</time>
      </trkpt>
      <trkpt lat="45.34419" lon="6.54458">
        <ele>2121.17</ele>
        <time>2014-01-26T09:25:11Z</time>
      </trkpt>
      <trkpt lat="45.34382" lon="6.54447">
        <ele>2116.89</ele>
        <time>2014-01-26T09:25:15Z</time>
      </trkpt>
      <trkpt lat="45.34346" lon="6.54435">
        <ele>2111.41</ele>
        <time>2014-01-26T09:25:19Z</time>
      </trkpt>
      <trkpt lat="45.3431" lon="6.54418">
        <ele>2105.66</ele>
        <time>2014-01-26T09:25:23Z</time>
      </trkpt>
      <trkpt lat="45.34271" lon="6.54398">
        <ele>2101.42</ele>
        <time>2014-01-26T09:25:27Z</time>
      </trkpt>
      <trkpt lat="45.34228" lon="6.54374">
        <ele>2100.63</ele>
        <time>2014-01-26T09:25:32Z</time>
      </trkpt>
      <trkpt lat="45.3419" lon="6.54349">
        <ele>2095.63</ele>
        <time>2014-01-26T09:25:38Z</time>
      </trkpt>
      <trkpt lat="45.34151" lon="6.54328">
        <ele>2090.37</ele>
        <time>2014-01-26T09:25:43Z</time>
      </trkpt>
      <trkpt lat="45.34112" lon="6.54313">
        <ele>2086.93</ele>
        <time>2014-01-26T09:25:47Z</time>
      </trkpt>
      <trkpt lat="45.34074" lon="6.54312">
        <ele>2079.4</ele>
        <time>2014-01-26T09:25:51Z</time>
      </trkpt>
      <trkpt lat="45.34036" lon="6.54349">
        <ele>2063.85</ele>
        <time>2014-01-26T09:25:57Z</time>
      </trkpt>
      <trkpt lat="45.34001" lon="6.54403">
        <ele>2052.44</ele>
        <time>2014-01-26T09:26:03Z</time>
      </trkpt>
      <trkpt lat="45.33971" lon="6.54436">
        <ele>2054.95</ele>
        <time>2014-01-26T09:26:07Z</time>
      </trkpt>
      <trkpt lat="45.33938" lon="6.5446">
        <ele>2053.67</ele>
        <time>2014-01-26T09:26:11Z</time>
      </trkpt>
      <trkpt lat="45.33901" lon="6.54474">
        <ele>2051.55</ele>
        <time>2014-01-26T09:26:15Z</time>
      </trkpt>
      <trkpt lat="45.33857" lon="6.54463">
        <ele>2048.47</ele>
        <time>2014-01-26T09:26:20Z</time>
      </trkpt>
      <trkpt lat="45.3382" lon="6.54437">
        <ele>2046.41</ele>
        <time>2014-01-26T09:26:24Z</time>
      </trkpt>
      <trkpt lat="45.33781" lon="6.54401">
        <ele>2039.38</ele>
        <time>2014-01-26T09:26:29Z</time>
      </trkpt>
      <trkpt lat="45.33729" lon="6.54392">
        <ele>2029.08</ele>
        <time>2014-01-26T09:26:35Z</time>
      </trkpt>
      <trkpt lat="45.3369" lon="6.54399">
        <ele>2026.52</ele>
        <time>2014-01-26T09:26:39Z</time>
      </trkpt>
      <trkpt lat="45.33646" lon="6.54392">
        <ele>2024.39</ele>
        <time>2014-01-26T09:26:44Z</time>
      </trkpt>
      <trkpt lat="45.33607" lon="6.54365">
        <ele>2026.55</ele>
        <time>2014-01-26T09:26:49Z</time>
      </trkpt>
      <trkpt lat="45.33572" lon="6.5433">
        <ele>2015.96</ele>
        <time>2014-01-26T09:26:55Z</time>
      </trkpt>
      <trkpt lat="45.33529" lon="6.54329">
        <ele>2004.78</ele>
        <time>2014-01-26T09:27:01Z</time>
      </trkpt>
      <trkpt lat="45.33478" lon="6.54338">
        <ele>2003.27</ele>
        <time>2014-01-26T09:27:07Z</time>
      </trkpt>
      <trkpt lat="45.33428" lon="6.54328">
        <ele>1998.34</ele>
        <time>2014-01-26T09:27:13Z</time>
      </trkpt>
      <trkpt lat="45.33387" lon="6.5431">
        <ele>1991.67</ele>
        <time>2014-01-26T09:27:18Z</time>
      </trkpt>
      <trkpt lat="45.33351" lon="6.543">
        <ele>1982.67</ele>
        <time>2014-01-26T09:27:22Z</time>
      </trkpt>
      <trkpt lat="45.33303" lon="6.54304">
        <ele>1975.44</ele>
        <time>2014-01-26T09:27:27Z</time>
      </trkpt>
      <trkpt lat="45.33263" lon="6.54302">
        <ele>1971.08</ele>
        <time>2014-01-26T09:27:31Z</time>
      </trkpt>
      <trkpt lat="45.33221" lon="6.54284">
        <ele>1971.69</ele>
        <time>2014-01-26T09:27:36Z</time>
      </trkpt>
      <trkpt lat="45.3318" lon="6.54251">
        <ele>1972.4</ele>
        <time>2014-01-26T09:27:42Z</time>
      </trkpt>
      <trkpt lat="45.33146" lon="6.54223">
        <ele>1963.56</ele>
        <time>2014-01-26T09:27:48Z</time>
      </trkpt>
      <trkpt lat="45.33105" lon="6.54209">
        <ele>1958.23</ele>
        <time>2014-01-26T09:27:55Z</time>
      </trkpt>
      <trkpt lat="45.33067" lon="6.5421">
        <ele>1956.09</ele>
        <time>2014-01-26T09:28:03Z</time>
      </trkpt>
      <trkpt lat="45.33024" lon="6.54209">
        <ele>1952.61</ele>
        <time>2014-01-26T09:28:13Z</time>
      </trkpt>
      <trkpt lat="45.32978" lon="6.54208">
        <ele>1946.71</ele>
        <time>2014-01-26T09:28:20Z</time>
      </trkpt>
      <trkpt lat="45.32941" lon="6.54209">
        <ele>1933.25</ele>
        <time>2014-01-26T09:28:24Z</time>
      </trkpt>
      <trkpt lat="45.32903" lon="6.54212">
        <ele>1937.72</ele>
        <time>2014-01-26T09:28:28Z</time>
      </trkpt>
      <trkpt lat="45.32859" lon="6.54194">
        <ele>1934.84</ele>
        <time>2014-01-26T09:28:33Z</time>
      </trkpt>
      <trkpt lat="45.32811" lon="6.54176">
        <ele>1924.32</ele>
        <time>2014-01-26T09:28:39Z</time>
      </trkpt>
      <trkpt lat="45.32764" lon="6.54177">
        <ele>1915.76</ele>
        <time>2014-01-26T09:28:46Z</time>
      </trkpt>
      <trkpt lat="45.32722" lon="6.542">
        <ele>1911.89</ele>
        <time>2014-01-26T09:28:52Z</time>
      </trkpt>
      <trkpt lat="45.32677" lon="6.54214">
        <ele>1907.46</ele>
        <time>2014-01-26T09:28:59Z</time>
      </trkpt>
      <trkpt lat="45.32639" lon="6.54212">
        <ele>1902.15</ele>
        <time>2014-01-26T09:29:05Z</time>
      </trkpt>
      <trkpt lat="45.32592" lon="6.54216">
        <ele>1892.88</ele>
        <time>2014-01-26T09:29:11Z</time>
      </trkpt>
      <trkpt lat="45.32557" lon="6.54231">
        <ele>1893.62</ele>
        <time>2014-01-26T09:29:15Z</time>
      </trkpt>
      <trkpt lat="45.32512" lon="6.54244">
        <ele>1896.5</ele>
        <time>2014-01-26T09:29:21Z</time>
      </trkpt>
      <trkpt lat="45.32475" lon="6.54227">
        <ele>1878.44</ele>
        <time>2014-01-26T09:29:28Z</time>
      </trkpt>
      <trkpt lat="45.32485" lon="6.54177">
        <ele>1873.2</ele>
        <time>2014-01-26T09:31:19Z</time>
      </trkpt>
      <trkpt lat="45.32502" lon="6.54119">
        <ele>1865.74</ele>
        <time>2014-01-26T09:31:27Z</time>
      </trkpt>
      <trkpt lat="45.32487" lon="6.54071">
        <ele>1852</ele>
        <time>2014-01-26T09:31:35Z</time>
      </trkpt>
      <trkpt lat="45.32443" lon="6.54087">
        <ele>1849.95</ele>
        <time>2014-01-26T09:31:41Z</time>
      </trkpt>
      <trkpt lat="45.32407" lon="6.54105">
        <ele>1845.01</ele>
        <time>2014-01-26T09:31:47Z</time>
      </trkpt>
      <trkpt lat="45.32366" lon="6.54101">
        <ele>1839.93</ele>
        <time>2014-01-26T09:36:16Z</time>
      </trkpt>
      <trkpt lat="45.32331" lon="6.54069">
        <ele>1839.33</ele>
        <time>2014-01-26T09:36:26Z</time>
      </trkpt>
      <trkpt lat="45.32329" lon="6.54006">
        <ele>1832.01</ele>
        <time>2014-01-26T09:36:35Z</time>
      </trkpt>
      <trkpt lat="45.32348" lon="6.53956">
        <ele>1822.78</ele>
        <time>2014-01-26T09:36:41Z</time>
      </trkpt>
      <trkpt lat="45.32377" lon="6.5391">
        <ele>1817.64</ele>
        <time>2014-01-26T09:36:47Z</time>
      </trkpt>
      <trkpt lat="45.32401" lon="6.53859">
        <ele>1814.91</ele>
        <time>2014-01-26T09:36:56Z</time>
      </trkpt>
      <trkpt lat="45.32435" lon="6.53818">
        <ele>1811.96</ele>
        <time>2014-01-26T09:37:04Z</time>
      </trkpt>
      <trkpt lat="45.32463" lon="6.53786">
        <ele>1807.9</ele>
        <time>2014-01-26T09:37:15Z</time>
      </trkpt>
      <trkpt lat="45.3248" lon="6.53738">
        <ele>1800.44</ele>
        <time>2014-01-26T09:37:27Z</time>
      </trkpt>
      <trkpt lat="45.32462" lon="6.5368">
        <ele>1795.27</ele>
        <time>2014-01-26T09:37:34Z</time>
      </trkpt>
      <trkpt lat="45.32428" lon="6.53635">
        <ele>1786.18</ele>
        <time>2014-01-26T09:37:40Z</time>
      </trkpt>
      <trkpt lat="45.32385" lon="6.5361">
        <ele>1779.26</ele>
        <time>2014-01-26T09:37:46Z</time>
      </trkpt>
      <trkpt lat="45.32347" lon="6.53599">
        <ele>1772.64</ele>
        <time>2014-01-26T09:37:54Z</time>
      </trkpt>
      <trkpt lat="45.32308" lon="6.53589">
        <ele>1766.94</ele>
        <time>2014-01-26T09:38:00Z</time>
      </trkpt>
      <trkpt lat="45.32264" lon="6.53581">
        <ele>1762.06</ele>
        <time>2014-01-26T09:38:06Z</time>
      </trkpt>
      <trkpt lat="45.32218" lon="6.53581">
        <ele>1758.62</ele>
        <time>2014-01-26T09:38:12Z</time>
      </trkpt>
      <trkpt lat="45.32169" lon="6.53589">
        <ele>1750.98</ele>
        <time>2014-01-26T09:38:18Z</time>
      </trkpt>
      <trkpt lat="45.32119" lon="6.53603">
        <ele>1749.31</ele>
        <time>2014-01-26T09:38:24Z</time>
      </trkpt>
      <trkpt lat="45.3207" lon="6.53602">
        <ele>1742.04</ele>
        <time>2014-01-26T09:38:30Z</time>
      </trkpt>
      <trkpt lat="45.32027" lon="6.53588">
        <ele>1724.81</ele>
        <time>2014-01-26T09:38:37Z</time>
      </trkpt>
      <trkpt lat="45.31991" lon="6.53611">
        <ele>1720.4</ele>
        <time>2014-01-26T09:38:47Z</time>
      </trkpt>
      <trkpt lat="45.31955" lon="6.5364">
        <ele>1727.95</ele>
        <time>2014-01-26T09:38:59Z</time>
      </trkpt>
      <trkpt lat="45.31914" lon="6.53647">
        <ele>1729.26</ele>
        <time>2014-01-26T09:39:07Z</time>
      </trkpt>
      <trkpt lat="45.31878" lon="6.5362">
        <ele>1727.6</ele>
        <time>2014-01-26T09:39:22Z</time>
      </trkpt>
      <trkpt lat="45.31868" lon="6.53565">
        <ele>1728.63</ele>
        <time>2014-01-26T09:39:28Z</time>
      </trkpt>
      <trkpt lat="45.3191" lon="6.53557">
        <ele>1724.31</ele>
        <time>2014-01-26T09:41:30Z</time>
      </trkpt>
      <trkpt lat="45.31891" lon="6.53505">
        <ele>1730.29</ele>
        <time>2014-01-26T09:43:54Z</time>
      </trkpt>
      <trkpt lat="45.31867" lon="6.53458">
        <ele>1746.97</ele>
        <time>2014-01-26T09:44:05Z</time>
      </trkpt>
      <trkpt lat="45.31842" lon="6.53411">
        <ele>1761.88</ele>
        <time>2014-01-26T09:44:16Z</time>
      </trkpt>
      <trkpt lat="45.31817" lon="6.53369">
        <ele>1776.28</ele>
        <time>2014-01-26T09:44:24Z</time>
      </trkpt>
      <trkpt lat="45.31796" lon="6.53323">
        <ele>1793.11</ele>
        <time>2014-01-26T09:44:33Z</time>
      </trkpt>
      <trkpt lat="45.31773" lon="6.53279">
        <ele>1811.37</ele>
        <time>2014-01-26T09:44:43Z</time>
      </trkpt>
      <trkpt lat="45.31748" lon="6.53238">
        <ele>1835.38</ele>
        <time>2014-01-26T09:44:53Z</time>
      </trkpt>
      <trkpt lat="45.31725" lon="6.53189">
        <ele>1871.45</ele>
        <time>2014-01-26T09:45:04Z</time>
      </trkpt>
      <trkpt lat="45.31702" lon="6.53147">
        <ele>1897.49</ele>
        <time>2014-01-26T09:45:16Z</time>
      </trkpt>
      <trkpt lat="45.31677" lon="6.53104">
        <ele>1911.43</ele>
        <time>2014-01-26T09:45:26Z</time>
      </trkpt>
      <trkpt lat="45.31654" lon="6.53059">
        <ele>1921.35</ele>
        <time>2014-01-26T09:45:35Z</time>
      </trkpt>
      <trkpt lat="45.31632" lon="6.53012">
        <ele>1931.03</ele>
        <time>2014-01-26T09:45:45Z</time>
      </trkpt>
      <trkpt lat="45.3161" lon="6.52966">
        <ele>1941.35</ele>
        <time>2014-01-26T09:45:55Z</time>
      </trkpt>
      <trkpt lat="45.31585" lon="6.5292">
        <ele>1947.53</ele>
        <time>2014-01-26T09:46:03Z</time>
      </trkpt>
      <trkpt lat="45.31559" lon="6.52873">
        <ele>1964.97</ele>
        <time>2014-01-26T09:46:10Z</time>
      </trkpt>
      <trkpt lat="45.3154" lon="6.52826">
        <ele>1986.63</ele>
        <time>2014-01-26T09:46:20Z</time>
      </trkpt>
      <trkpt lat="45.31518" lon="6.52781">
        <ele>1999.59</ele>
        <time>2014-01-26T09:46:30Z</time>
      </trkpt>
      <trkpt lat="45.31495" lon="6.52728">
        <ele>2015.93</ele>
        <time>2014-01-26T09:46:40Z</time>
      </trkpt>
      <trkpt lat="45.31478" lon="6.52682">
        <ele>2037.14</ele>
        <time>2014-01-26T09:46:48Z</time>
      </trkpt>
      <trkpt lat="45.31466" lon="6.52624">
        <ele>2058.89</ele>
        <time>2014-01-26T09:46:58Z</time>
      </trkpt>
      <trkpt lat="45.31444" lon="6.52582">
        <ele>2074.26</ele>
        <time>2014-01-26T09:47:06Z</time>
      </trkpt>
      <trkpt lat="45.3142" lon="6.52537">
        <ele>2091.36</ele>
        <time>2014-01-26T09:47:16Z</time>
      </trkpt>
      <trkpt lat="45.31396" lon="6.52494">
        <ele>2104.37</ele>
        <time>2014-01-26T09:47:24Z</time>
      </trkpt>
      <trkpt lat="45.31372" lon="6.52447">
        <ele>2118.05</ele>
        <time>2014-01-26T09:47:34Z</time>
      </trkpt>
      <trkpt lat="45.31347" lon="6.52404">
        <ele>2136.86</ele>
        <time>2014-01-26T09:47:46Z</time>
      </trkpt>
      <trkpt lat="45.31324" lon="6.52361">
        <ele>2156.27</ele>
        <time>2014-01-26T09:47:56Z</time>
      </trkpt>
      <trkpt lat="45.31293" lon="6.52315">
        <ele>2179.08</ele>
        <time>2014-01-26T09:48:05Z</time>
      </trkpt>
      <trkpt lat="45.31273" lon="6.52268">
        <ele>2194.46</ele>
        <time>2014-01-26T09:48:15Z</time>
      </trkpt>
      <trkpt lat="45.31248" lon="6.5223">
        <ele>2212.45</ele>
        <time>2014-01-26T09:48:23Z</time>
      </trkpt>
      <trkpt lat="45.31221" lon="6.52185">
        <ele>2235.52</ele>
        <time>2014-01-26T09:48:33Z</time>
      </trkpt>
      <trkpt lat="45.31189" lon="6.5215">
        <ele>2266.48</ele>
        <time>2014-01-26T09:48:42Z</time>
      </trkpt>
      <trkpt lat="45.31167" lon="6.52103">
        <ele>2280.58</ele>
        <time>2014-01-26T09:48:53Z</time>
      </trkpt>
      <trkpt lat="45.31142" lon="6.52058">
        <ele>2282.81</ele>
        <time>2014-01-26T09:49:02Z</time>
      </trkpt>
      <trkpt lat="45.31119" lon="6.52011">
        <ele>2284.14</ele>
        <time>2014-01-26T09:49:12Z</time>
      </trkpt>
      <trkpt lat="45.311" lon="6.51966">
        <ele>2285.24</ele>
        <time>2014-01-26T09:50:11Z</time>
      </trkpt>
      <trkpt lat="45.31088" lon="6.51917">
        <ele>2277.01</ele>
        <time>2014-01-26T09:51:32Z</time>
      </trkpt>
      <trkpt lat="45.31077" lon="6.51856">
        <ele>2274.16</ele>
        <time>2014-01-26T09:51:38Z</time>
      </trkpt>
      <trkpt lat="45.31108" lon="6.51831">
        <ele>2267.58</ele>
        <time>2014-01-26T09:51:45Z</time>
      </trkpt>
      <trkpt lat="45.31143" lon="6.51802">
        <ele>2256.74</ele>
        <time>2014-01-26T09:51:53Z</time>
      </trkpt>
      <trkpt lat="45.31173" lon="6.51769">
        <ele>2247.02</ele>
        <time>2014-01-26T09:52:02Z</time>
      </trkpt>
      <trkpt lat="45.31209" lon="6.51759">
        <ele>2237.89</ele>
        <time>2014-01-26T09:52:12Z</time>
      </trkpt>
      <trkpt lat="45.31244" lon="6.51794">
        <ele>2219.95</ele>
        <time>2014-01-26T09:52:22Z</time>
      </trkpt>
      <trkpt lat="45.31283" lon="6.51797">
        <ele>2200.86</ele>
        <time>2014-01-26T09:52:32Z</time>
      </trkpt>
      <trkpt lat="45.31308" lon="6.51746">
        <ele>2184.01</ele>
        <time>2014-01-26T09:52:40Z</time>
      </trkpt>
      <trkpt lat="45.31332" lon="6.51699">
        <ele>2170.67</ele>
        <time>2014-01-26T09:52:52Z</time>
      </trkpt>
      <trkpt lat="45.31369" lon="6.51674">
        <ele>2156.18</ele>
        <time>2014-01-26T09:52:58Z</time>
      </trkpt>
      <trkpt lat="45.3141" lon="6.51668">
        <ele>2143</ele>
        <time>2014-01-26T09:53:06Z</time>
      </trkpt>
      <trkpt lat="45.31449" lon="6.51657">
        <ele>2138.65</ele>
        <time>2014-01-26T09:53:15Z</time>
      </trkpt>
      <trkpt lat="45.31486" lon="6.51677">
        <ele>2131.81</ele>
        <time>2014-01-26T09:53:22Z</time>
      </trkpt>
      <trkpt lat="45.31486" lon="6.51661">
        <ele>2130.73</ele>
        <time>2014-01-26T09:56:05Z</time>
      </trkpt>
      <trkpt lat="45.31444" lon="6.51638">
        <ele>2140.13</ele>
        <time>2014-01-26T09:56:11Z</time>
      </trkpt>
      <trkpt lat="45.31407" lon="6.51616">
        <ele>2150.62</ele>
        <time>2014-01-26T09:56:19Z</time>
      </trkpt>
      <trkpt lat="45.3137" lon="6.51601">
        <ele>2159.59</ele>
        <time>2014-01-26T09:56:27Z</time>
      </trkpt>
      <trkpt lat="45.31336" lon="6.51582">
        <ele>2172.38</ele>
        <time>2014-01-26T09:56:35Z</time>
      </trkpt>
      <trkpt lat="45.31299" lon="6.51567">
        <ele>2192.21</ele>
        <time>2014-01-26T09:56:43Z</time>
      </trkpt>
      <trkpt lat="45.31259" lon="6.51549">
        <ele>2220.71</ele>
        <time>2014-01-26T09:56:52Z</time>
      </trkpt>
      <trkpt lat="45.31221" lon="6.51533">
        <ele>2240.69</ele>
        <time>2014-01-26T09:57:02Z</time>
      </trkpt>
      <trkpt lat="45.31184" lon="6.51517">
        <ele>2252.41</ele>
        <time>2014-01-26T09:57:12Z</time>
      </trkpt>
      <trkpt lat="45.31146" lon="6.51497">
        <ele>2266.75</ele>
        <time>2014-01-26T09:57:21Z</time>
      </trkpt>
      <trkpt lat="45.31107" lon="6.51479">
        <ele>2274.05</ele>
        <time>2014-01-26T09:57:29Z</time>
      </trkpt>
      <trkpt lat="45.31072" lon="6.51463">
        <ele>2279.6</ele>
        <time>2014-01-26T09:57:39Z</time>
      </trkpt>
      <trkpt lat="45.31032" lon="6.51447">
        <ele>2282.87</ele>
        <time>2014-01-26T09:57:48Z</time>
      </trkpt>
      <trkpt lat="45.30994" lon="6.51427">
        <ele>2285.31</ele>
        <time>2014-01-26T09:57:58Z</time>
      </trkpt>
      <trkpt lat="45.30957" lon="6.51407">
        <ele>2293.14</ele>
        <time>2014-01-26T09:58:07Z</time>
      </trkpt>
      <trkpt lat="45.30923" lon="6.51386">
        <ele>2306.67</ele>
        <time>2014-01-26T09:58:16Z</time>
      </trkpt>
      <trkpt lat="45.30884" lon="6.51354">
        <ele>2326.77</ele>
        <time>2014-01-26T09:58:26Z</time>
      </trkpt>
      <trkpt lat="45.30849" lon="6.51327">
        <ele>2342.43</ele>
        <time>2014-01-26T09:58:35Z</time>
      </trkpt>
      <trkpt lat="45.30807" lon="6.51316">
        <ele>2350.86</ele>
        <time>2014-01-26T09:58:43Z</time>
      </trkpt>
      <trkpt lat="45.30767" lon="6.51308">
        <ele>2359.93</ele>
        <time>2014-01-26T09:58:52Z</time>
      </trkpt>
      <trkpt lat="45.30727" lon="6.51293">
        <ele>2377.12</ele>
        <time>2014-01-26T09:59:02Z</time>
      </trkpt>
      <trkpt lat="45.30692" lon="6.51271">
        <ele>2398.56</ele>
        <time>2014-01-26T09:59:09Z</time>
      </trkpt>
      <trkpt lat="45.30651" lon="6.51236">
        <ele>2424.76</ele>
        <time>2014-01-26T09:59:15Z</time>
      </trkpt>
      <trkpt lat="45.30613" lon="6.51212">
        <ele>2458.32</ele>
        <time>2014-01-26T09:59:22Z</time>
      </trkpt>
      <trkpt lat="45.30575" lon="6.51209">
        <ele>2466.3</ele>
        <time>2014-01-26T09:59:38Z</time>
      </trkpt>
      <trkpt lat="45.30538" lon="6.51196">
        <ele>2494.91</ele>
        <time>2014-01-26T09:59:50Z</time>
      </trkpt>
      <trkpt lat="45.30499" lon="6.51185">
        <ele>2508.26</ele>
        <time>2014-01-26T09:59:59Z</time>
      </trkpt>
      <trkpt lat="45.3046" lon="6.51173">
        <ele>2515.19</ele>
        <time>2014-01-26T10:00:08Z</time>
      </trkpt>
      <trkpt lat="45.30423" lon="6.51158">
        <ele>2522.14</ele>
        <time>2014-01-26T10:00:17Z</time>
      </trkpt>
      <trkpt lat="45.30385" lon="6.51143">
        <ele>2523.52</ele>
        <time>2014-01-26T10:00:27Z</time>
      </trkpt>
      <trkpt lat="45.30349" lon="6.51124">
        <ele>2530.74</ele>
        <time>2014-01-26T10:00:37Z</time>
      </trkpt>
      <trkpt lat="45.30307" lon="6.51111">
        <ele>2531.09</ele>
        <time>2014-01-26T10:00:45Z</time>
      </trkpt>
      <trkpt lat="45.30267" lon="6.51097">
        <ele>2536.24</ele>
        <time>2014-01-26T10:00:55Z</time>
      </trkpt>
      <trkpt lat="45.30229" lon="6.51074">
        <ele>2556.26</ele>
        <time>2014-01-26T10:01:03Z</time>
      </trkpt>
      <trkpt lat="45.30188" lon="6.5105">
        <ele>2573.08</ele>
        <time>2014-01-26T10:01:11Z</time>
      </trkpt>
      <trkpt lat="45.30148" lon="6.51037">
        <ele>2590.87</ele>
        <time>2014-01-26T10:01:21Z</time>
      </trkpt>
      <trkpt lat="45.30102" lon="6.51023">
        <ele>2614.48</ele>
        <time>2014-01-26T10:01:30Z</time>
      </trkpt>
      <trkpt lat="45.30066" lon="6.51004">
        <ele>2634.45</ele>
        <time>2014-01-26T10:01:39Z</time>
      </trkpt>
      <trkpt lat="45.30032" lon="6.50982">
        <ele>2648.55</ele>
        <time>2014-01-26T10:01:50Z</time>
      </trkpt>
      <trkpt lat="45.29994" lon="6.50967">
        <ele>2656.3</ele>
        <time>2014-01-26T10:02:00Z</time>
      </trkpt>
      <trkpt lat="45.29956" lon="6.50948">
        <ele>2667.55</ele>
        <time>2014-01-26T10:02:09Z</time>
      </trkpt>
      <trkpt lat="45.29919" lon="6.50933">
        <ele>2689.16</ele>
        <time>2014-01-26T10:02:17Z</time>
      </trkpt>
      <trkpt lat="45.2988" lon="6.5091">
        <ele>2714.62</ele>
        <time>2014-01-26T10:02:26Z</time>
      </trkpt>
      <trkpt lat="45.2984" lon="6.50894">
        <ele>2739.43</ele>
        <time>2014-01-26T10:02:34Z</time>
      </trkpt>
      <trkpt lat="45.29799" lon="6.50876">
        <ele>2764.35</ele>
        <time>2014-01-26T10:02:44Z</time>
      </trkpt>
      <trkpt lat="45.29758" lon="6.50865">
        <ele>2782.04</ele>
        <time>2014-01-26T10:02:54Z</time>
      </trkpt>
      <trkpt lat="45.2972" lon="6.50854">
        <ele>2770.24</ele>
        <time>2014-01-26T10:03:02Z</time>
      </trkpt>
      <trkpt lat="45.29707" lon="6.50817">
        <ele>2753.9</ele>
        <time>2014-01-26T10:06:05Z</time>
      </trkpt>
      <trkpt lat="45.29717" lon="6.50768">
        <ele>2757.36</ele>
        <time>2014-01-26T10:06:25Z</time>
      </trkpt>
      <trkpt lat="45.2971" lon="6.50711">
        <ele>2751.31</ele>
        <time>2014-01-26T10:06:40Z</time>
      </trkpt>
      <trkpt lat="45.29704" lon="6.50651">
        <ele>2756.62</ele>
        <time>2014-01-26T10:06:47Z</time>
      </trkpt>
      <trkpt lat="45.29729" lon="6.50622">
        <ele>2764.36</ele>
        <time>2014-01-26T10:07:12Z</time>
      </trkpt>
      <trkpt lat="45.29767" lon="6.50621">
        <ele>2766.21</ele>
        <time>2014-01-26T10:07:25Z</time>
      </trkpt>
      <trkpt lat="45.29801" lon="6.50648">
        <ele>2760.92</ele>
        <time>2014-01-26T10:07:37Z</time>
      </trkpt>
      <trkpt lat="45.2984" lon="6.50654">
        <ele>2744.59</ele>
        <time>2014-01-26T10:07:53Z</time>
      </trkpt>
      <trkpt lat="45.2987" lon="6.50689">
        <ele>2727.7</ele>
        <time>2014-01-26T10:08:04Z</time>
      </trkpt>
      <trkpt lat="45.29897" lon="6.50711">
        <ele>2710.43</ele>
        <time>2014-01-26T10:08:20Z</time>
      </trkpt>
      <trkpt lat="45.29927" lon="6.50728">
        <ele>2694.16</ele>
        <time>2014-01-26T10:08:31Z</time>
      </trkpt>
      <trkpt lat="45.29965" lon="6.5074">
        <ele>2679.07</ele>
        <time>2014-01-26T10:08:43Z</time>
      </trkpt>
      <trkpt lat="45.29985" lon="6.50779">
        <ele>2665.47</ele>
        <time>2014-01-26T10:08:57Z</time>
      </trkpt>
      <trkpt lat="45.30018" lon="6.50802">
        <ele>2644.61</ele>
        <time>2014-01-26T10:09:10Z</time>
      </trkpt>
      <trkpt lat="45.30055" lon="6.50813">
        <ele>2626.19</ele>
        <time>2014-01-26T10:09:20Z</time>
      </trkpt>
      <trkpt lat="45.30087" lon="6.50836">
        <ele>2615.25</ele>
        <time>2014-01-26T10:09:30Z</time>
      </trkpt>
      <trkpt lat="45.30123" lon="6.50858">
        <ele>2601.73</ele>
        <time>2014-01-26T10:09:41Z</time>
      </trkpt>
      <trkpt lat="45.30163" lon="6.50883">
        <ele>2587.84</ele>
        <time>2014-01-26T10:09:51Z</time>
      </trkpt>
      <trkpt lat="45.30199" lon="6.50909">
        <ele>2578.05</ele>
        <time>2014-01-26T10:10:02Z</time>
      </trkpt>
      <trkpt lat="45.30221" lon="6.5096">
        <ele>2569.68</ele>
        <time>2014-01-26T10:10:11Z</time>
      </trkpt>
      <trkpt lat="45.30231" lon="6.51026">
        <ele>2558.27</ele>
        <time>2014-01-26T10:10:18Z</time>
      </trkpt>
      <trkpt lat="45.30243" lon="6.51074">
        <ele>2548.02</ele>
        <time>2014-01-26T10:10:22Z</time>
      </trkpt>
      <trkpt lat="45.30257" lon="6.5113">
        <ele>2534.82</ele>
        <time>2014-01-26T10:10:29Z</time>
      </trkpt>
      <trkpt lat="45.30277" lon="6.5118">
        <ele>2523.08</ele>
        <time>2014-01-26T10:10:35Z</time>
      </trkpt>
      <trkpt lat="45.303" lon="6.51224">
        <ele>2520.75</ele>
        <time>2014-01-26T10:10:41Z</time>
      </trkpt>
      <trkpt lat="45.30334" lon="6.5126">
        <ele>2519.99</ele>
        <time>2014-01-26T10:10:50Z</time>
      </trkpt>
      <trkpt lat="45.30371" lon="6.51287">
        <ele>2516.59</ele>
        <time>2014-01-26T10:10:58Z</time>
      </trkpt>
      <trkpt lat="45.30402" lon="6.51322">
        <ele>2507.1</ele>
        <time>2014-01-26T10:11:15Z</time>
      </trkpt>
      <trkpt lat="45.30412" lon="6.51346">
        <ele>2497.77</ele>
        <time>2014-01-26T10:11:26Z</time>
      </trkpt>
      <trkpt lat="45.30417" lon="6.51397">
        <ele>2475.25</ele>
        <time>2014-01-26T10:11:46Z</time>
      </trkpt>
      <trkpt lat="45.30415" lon="6.51453">
        <ele>2464.37</ele>
        <time>2014-01-26T10:12:00Z</time>
      </trkpt>
      <trkpt lat="45.30427" lon="6.51502">
        <ele>2453.11</ele>
        <time>2014-01-26T10:12:07Z</time>
      </trkpt>
      <trkpt lat="45.30458" lon="6.51545">
        <ele>2441.48</ele>
        <time>2014-01-26T10:12:58Z</time>
      </trkpt>
      <trkpt lat="45.30497" lon="6.51567">
        <ele>2429.84</ele>
        <time>2014-01-26T10:13:04Z</time>
      </trkpt>
      <trkpt lat="45.3054" lon="6.51576">
        <ele>2417.54</ele>
        <time>2014-01-26T10:13:10Z</time>
      </trkpt>
      <trkpt lat="45.30579" lon="6.51591">
        <ele>2412.14</ele>
        <time>2014-01-26T10:13:16Z</time>
      </trkpt>
      <trkpt lat="45.30613" lon="6.5162">
        <ele>2406.51</ele>
        <time>2014-01-26T10:13:24Z</time>
      </trkpt>
      <trkpt lat="45.3065" lon="6.51652">
        <ele>2396.18</ele>
        <time>2014-01-26T10:13:35Z</time>
      </trkpt>
      <trkpt lat="45.30681" lon="6.51625">
        <ele>2381.53</ele>
        <time>2014-01-26T10:13:41Z</time>
      </trkpt>
      <trkpt lat="45.30713" lon="6.51583">
        <ele>2361.35</ele>
        <time>2014-01-26T10:13:48Z</time>
      </trkpt>
      <trkpt lat="45.30753" lon="6.51579">
        <ele>2351.41</ele>
        <time>2014-01-26T10:13:56Z</time>
      </trkpt>
      <trkpt lat="45.30785" lon="6.5161">
        <ele>2347.4</ele>
        <time>2014-01-26T10:14:03Z</time>
      </trkpt>
      <trkpt lat="45.30819" lon="6.51642">
        <ele>2336.27</ele>
        <time>2014-01-26T10:14:49Z</time>
      </trkpt>
      <trkpt lat="45.30857" lon="6.51643">
        <ele>2323.3</ele>
        <time>2014-01-26T10:15:01Z</time>
      </trkpt>
      <trkpt lat="45.30897" lon="6.51679">
        <ele>2314.95</ele>
        <time>2014-01-26T10:15:09Z</time>
      </trkpt>
      <trkpt lat="45.30929" lon="6.51716">
        <ele>2309.35</ele>
        <time>2014-01-26T10:15:16Z</time>
      </trkpt>
      <trkpt lat="45.30964" lon="6.51738">
        <ele>2298.79</ele>
        <time>2014-01-26T10:15:22Z</time>
      </trkpt>
      <trkpt lat="45.30999" lon="6.51765">
        <ele>2290.84</ele>
        <time>2014-01-26T10:15:28Z</time>
      </trkpt>
      <trkpt lat="45.31027" lon="6.51804">
        <ele>2287.07</ele>
        <time>2014-01-26T10:15:35Z</time>
      </trkpt>
      <trkpt lat="45.31064" lon="6.51825">
        <ele>2277.22</ele>
        <time>2014-01-26T10:15:44Z</time>
      </trkpt>
      <trkpt lat="45.31105" lon="6.51817">
        <ele>2268.33</ele>
        <time>2014-01-26T10:15:50Z</time>
      </trkpt>
      <trkpt lat="45.31144" lon="6.51792">
        <ele>2255.72</ele>
        <time>2014-01-26T10:15:58Z</time>
      </trkpt>
      <trkpt lat="45.31177" lon="6.51762">
        <ele>2246.7</ele>
        <time>2014-01-26T10:16:05Z</time>
      </trkpt>
      <trkpt lat="45.31208" lon="6.51756">
        <ele>2238.51</ele>
        <time>2014-01-26T10:16:12Z</time>
      </trkpt>
      <trkpt lat="45.31236" lon="6.518">
        <ele>2223.84</ele>
        <time>2014-01-26T10:16:20Z</time>
      </trkpt>
      <trkpt lat="45.31281" lon="6.51805">
        <ele>2203.24</ele>
        <time>2014-01-26T10:16:29Z</time>
      </trkpt>
      <trkpt lat="45.31306" lon="6.51765">
        <ele>2186.01</ele>
        <time>2014-01-26T10:16:36Z</time>
      </trkpt>
      <trkpt lat="45.31313" lon="6.51717">
        <ele>2184.42</ele>
        <time>2014-01-26T10:16:43Z</time>
      </trkpt>
      <trkpt lat="45.31339" lon="6.51671">
        <ele>2165.74</ele>
        <time>2014-01-26T10:16:51Z</time>
      </trkpt>
      <trkpt lat="45.31377" lon="6.51649">
        <ele>2154.33</ele>
        <time>2014-01-26T10:16:57Z</time>
      </trkpt>
      <trkpt lat="45.31414" lon="6.51655">
        <ele>2143.75</ele>
        <time>2014-01-26T10:17:03Z</time>
      </trkpt>
      <trkpt lat="45.31456" lon="6.5167">
        <ele>2137.16</ele>
        <time>2014-01-26T10:17:09Z</time>
      </trkpt>
      <trkpt lat="45.31497" lon="6.51676">
        <ele>2129.76</ele>
        <time>2014-01-26T10:17:16Z</time>
      </trkpt>
      <trkpt lat="45.31498" lon="6.51662">
        <ele>2129.14</ele>
        <time>2014-01-26T10:19:13Z</time>
      </trkpt>
      <trkpt lat="45.31456" lon="6.51648">
        <ele>2136.46</ele>
        <time>2014-01-26T10:19:20Z</time>
      </trkpt>
      <trkpt lat="45.31416" lon="6.51623">
        <ele>2147.8</ele>
        <time>2014-01-26T10:19:30Z</time>
      </trkpt>
      <trkpt lat="45.31378" lon="6.51602">
        <ele>2157.89</ele>
        <time>2014-01-26T10:19:39Z</time>
      </trkpt>
      <trkpt lat="45.31338" lon="6.5158">
        <ele>2172.05</ele>
        <time>2014-01-26T10:19:49Z</time>
      </trkpt>
      <trkpt lat="45.31299" lon="6.51561">
        <ele>2193.53</ele>
        <time>2014-01-26T10:19:58Z</time>
      </trkpt>
      <trkpt lat="45.3126" lon="6.51544">
        <ele>2220.03</ele>
        <time>2014-01-26T10:20:08Z</time>
      </trkpt>
      <trkpt lat="45.31224" lon="6.51529">
        <ele>2239.22</ele>
        <time>2014-01-26T10:20:16Z</time>
      </trkpt>
      <trkpt lat="45.31182" lon="6.51512">
        <ele>2252.8</ele>
        <time>2014-01-26T10:20:26Z</time>
      </trkpt>
      <trkpt lat="45.31146" lon="6.51496">
        <ele>2266.74</ele>
        <time>2014-01-26T10:20:34Z</time>
      </trkpt>
      <trkpt lat="45.31105" lon="6.51481">
        <ele>2274.61</ele>
        <time>2014-01-26T10:20:43Z</time>
      </trkpt>
      <trkpt lat="45.31068" lon="6.5146">
        <ele>2279.83</ele>
        <time>2014-01-26T10:20:53Z</time>
      </trkpt>
      <trkpt lat="45.31029" lon="6.51443">
        <ele>2282.68</ele>
        <time>2014-01-26T10:21:03Z</time>
      </trkpt>
      <trkpt lat="45.30989" lon="6.51426">
        <ele>2285.83</ele>
        <time>2014-01-26T10:21:13Z</time>
      </trkpt>
      <trkpt lat="45.30947" lon="6.51408">
        <ele>2295.53</ele>
        <time>2014-01-26T10:21:22Z</time>
      </trkpt>
      <trkpt lat="45.30909" lon="6.5139">
        <ele>2309.61</ele>
        <time>2014-01-26T10:21:30Z</time>
      </trkpt>
      <trkpt lat="45.30869" lon="6.5137">
        <ele>2323.16</ele>
        <time>2014-01-26T10:21:39Z</time>
      </trkpt>
      <trkpt lat="45.30833" lon="6.51352">
        <ele>2332.85</ele>
        <time>2014-01-26T10:21:48Z</time>
      </trkpt>
      <trkpt lat="45.30794" lon="6.51336">
        <ele>2343.4</ele>
        <time>2014-01-26T10:21:57Z</time>
      </trkpt>
      <trkpt lat="45.30753" lon="6.51318">
        <ele>2358.56</ele>
        <time>2014-01-26T10:22:07Z</time>
      </trkpt>
      <trkpt lat="45.30715" lon="6.51297">
        <ele>2378.45</ele>
        <time>2014-01-26T10:22:16Z</time>
      </trkpt>
      <trkpt lat="45.30678" lon="6.51272">
        <ele>2402.61</ele>
        <time>2014-01-26T10:22:27Z</time>
      </trkpt>
      <trkpt lat="45.30638" lon="6.51255">
        <ele>2417.9</ele>
        <time>2014-01-26T10:22:37Z</time>
      </trkpt>
      <trkpt lat="45.30597" lon="6.51246">
        <ele>2437.73</ele>
        <time>2014-01-26T10:22:47Z</time>
      </trkpt>
      <trkpt lat="45.30557" lon="6.51225">
        <ele>2469.13</ele>
        <time>2014-01-26T10:22:57Z</time>
      </trkpt>
      <trkpt lat="45.30521" lon="6.51212">
        <ele>2494.19</ele>
        <time>2014-01-26T10:23:05Z</time>
      </trkpt>
      <trkpt lat="45.30485" lon="6.51201">
        <ele>2502.09</ele>
        <time>2014-01-26T10:23:13Z</time>
      </trkpt>
      <trkpt lat="45.30446" lon="6.51188">
        <ele>2516.29</ele>
        <time>2014-01-26T10:23:21Z</time>
      </trkpt>
      <trkpt lat="45.30407" lon="6.51167">
        <ele>2519.97</ele>
        <time>2014-01-26T10:23:30Z</time>
      </trkpt>
      <trkpt lat="45.30372" lon="6.5115">
        <ele>2525.6</ele>
        <time>2014-01-26T10:23:38Z</time>
      </trkpt>
      <trkpt lat="45.30331" lon="6.51131">
        <ele>2530.57</ele>
        <time>2014-01-26T10:23:48Z</time>
      </trkpt>
      <trkpt lat="45.3029" lon="6.51112">
        <ele>2531.51</ele>
        <time>2014-01-26T10:23:58Z</time>
      </trkpt>
      <trkpt lat="45.30253" lon="6.51091">
        <ele>2541.5</ele>
        <time>2014-01-26T10:24:09Z</time>
      </trkpt>
      <trkpt lat="45.30215" lon="6.51076">
        <ele>2562.91</ele>
        <time>2014-01-26T10:24:17Z</time>
      </trkpt>
      <trkpt lat="45.30179" lon="6.5106">
        <ele>2575.22</ele>
        <time>2014-01-26T10:24:25Z</time>
      </trkpt>
      <trkpt lat="45.3014" lon="6.51045">
        <ele>2592.33</ele>
        <time>2014-01-26T10:24:33Z</time>
      </trkpt>
      <trkpt lat="45.30102" lon="6.51027">
        <ele>2614.07</ele>
        <time>2014-01-26T10:24:43Z</time>
      </trkpt>
      <trkpt lat="45.30065" lon="6.51012">
        <ele>2634.18</ele>
        <time>2014-01-26T10:24:51Z</time>
      </trkpt>
      <trkpt lat="45.30026" lon="6.50995">
        <ele>2649.76</ele>
        <time>2014-01-26T10:24:59Z</time>
      </trkpt>
      <trkpt lat="45.29988" lon="6.50979">
        <ele>2658.38</ele>
        <time>2014-01-26T10:25:09Z</time>
      </trkpt>
      <trkpt lat="45.29945" lon="6.50959">
        <ele>2673.54</ele>
        <time>2014-01-26T10:25:19Z</time>
      </trkpt>
      <trkpt lat="45.29906" lon="6.50937">
        <ele>2697.83</ele>
        <time>2014-01-26T10:25:33Z</time>
      </trkpt>
      <trkpt lat="45.29865" lon="6.5092">
        <ele>2724.51</ele>
        <time>2014-01-26T10:25:42Z</time>
      </trkpt>
      <trkpt lat="45.29827" lon="6.5091">
        <ele>2746.28</ele>
        <time>2014-01-26T10:25:49Z</time>
      </trkpt>
      <trkpt lat="45.29787" lon="6.50894">
        <ele>2769.5</ele>
        <time>2014-01-26T10:25:58Z</time>
      </trkpt>
      <trkpt lat="45.29749" lon="6.50873">
        <ele>2782.95</ele>
        <time>2014-01-26T10:26:09Z</time>
      </trkpt>
      <trkpt lat="45.29714" lon="6.5085">
        <ele>2766.09</ele>
        <time>2014-01-26T10:26:20Z</time>
      </trkpt>
      <trkpt lat="45.29713" lon="6.50796">
        <ele>2755.63</ele>
        <time>2014-01-26T10:28:53Z</time>
      </trkpt>
      <trkpt lat="45.2971" lon="6.50743">
        <ele>2750.44</ele>
        <time>2014-01-26T10:29:11Z</time>
      </trkpt>
      <trkpt lat="45.29708" lon="6.50685">
        <ele>2752.44</ele>
        <time>2014-01-26T10:29:20Z</time>
      </trkpt>
      <trkpt lat="45.29715" lon="6.50627">
        <ele>2763</ele>
        <time>2014-01-26T10:29:28Z</time>
      </trkpt>
      <trkpt lat="45.29752" lon="6.50615">
        <ele>2763.54</ele>
        <time>2014-01-26T10:29:36Z</time>
      </trkpt>
      <trkpt lat="45.29785" lon="6.50641">
        <ele>2767.47</ele>
        <time>2014-01-26T10:30:13Z</time>
      </trkpt>
      <trkpt lat="45.29822" lon="6.50655">
        <ele>2752.27</ele>
        <time>2014-01-26T10:30:24Z</time>
      </trkpt>
      <trkpt lat="45.29855" lon="6.50677">
        <ele>2736.47</ele>
        <time>2014-01-26T10:30:35Z</time>
      </trkpt>
      <trkpt lat="45.29891" lon="6.50683">
        <ele>2716.16</ele>
        <time>2014-01-26T10:30:43Z</time>
      </trkpt>
      <trkpt lat="45.2993" lon="6.50657">
        <ele>2701.79</ele>
        <time>2014-01-26T10:31:02Z</time>
      </trkpt>
      <trkpt lat="45.29969" lon="6.50627">
        <ele>2688.49</ele>
        <time>2014-01-26T10:31:10Z</time>
      </trkpt>
      <trkpt lat="45.30008" lon="6.50608">
        <ele>2672.45</ele>
        <time>2014-01-26T10:31:16Z</time>
      </trkpt>
      <trkpt lat="45.30046" lon="6.50599">
        <ele>2659.68</ele>
        <time>2014-01-26T10:31:24Z</time>
      </trkpt>
      <trkpt lat="45.3009" lon="6.5061">
        <ele>2647.41</ele>
        <time>2014-01-26T10:31:30Z</time>
      </trkpt>
      <trkpt lat="45.30128" lon="6.50625">
        <ele>2637.05</ele>
        <time>2014-01-26T10:31:34Z</time>
      </trkpt>
      <trkpt lat="45.30173" lon="6.50642">
        <ele>2630</ele>
        <time>2014-01-26T10:31:41Z</time>
      </trkpt>
      <trkpt lat="45.30217" lon="6.50638">
        <ele>2630</ele>
        <time>2014-01-26T10:31:49Z</time>
      </trkpt>
      <trkpt lat="45.30253" lon="6.5061">
        <ele>2624.36</ele>
        <time>2014-01-26T10:31:55Z</time>
      </trkpt>
      <trkpt lat="45.30301" lon="6.506">
        <ele>2612.76</ele>
        <time>2014-01-26T10:32:01Z</time>
      </trkpt>
      <trkpt lat="45.30345" lon="6.50571">
        <ele>2599.89</ele>
        <time>2014-01-26T10:32:07Z</time>
      </trkpt>
      <trkpt lat="45.30383" lon="6.50548">
        <ele>2591.14</ele>
        <time>2014-01-26T10:32:11Z</time>
      </trkpt>
      <trkpt lat="45.3039" lon="6.50574">
        <ele>2594.85</ele>
        <time>2014-01-26T10:32:31Z</time>
      </trkpt>
      <trkpt lat="45.3038" lon="6.5063">
        <ele>2588.05</ele>
        <time>2014-01-26T10:32:48Z</time>
      </trkpt>
      <trkpt lat="45.3037" lon="6.50692">
        <ele>2570.23</ele>
        <time>2014-01-26T10:32:55Z</time>
      </trkpt>
      <trkpt lat="45.30361" lon="6.50757">
        <ele>2560.77</ele>
        <time>2014-01-26T10:33:01Z</time>
      </trkpt>
      <trkpt lat="45.30336" lon="6.50824">
        <ele>2556.88</ele>
        <time>2014-01-26T10:33:07Z</time>
      </trkpt>
      <trkpt lat="45.30315" lon="6.50869">
        <ele>2558.73</ele>
        <time>2014-01-26T10:33:12Z</time>
      </trkpt>
      <trkpt lat="45.30285" lon="6.50913">
        <ele>2550.84</ele>
        <time>2014-01-26T10:33:18Z</time>
      </trkpt>
      <trkpt lat="45.30251" lon="6.50949">
        <ele>2555.02</ele>
        <time>2014-01-26T10:33:23Z</time>
      </trkpt>
      <trkpt lat="45.30236" lon="6.51003">
        <ele>2557.22</ele>
        <time>2014-01-26T10:33:30Z</time>
      </trkpt>
      <trkpt lat="45.30235" lon="6.51059">
        <ele>2553.68</ele>
        <time>2014-01-26T10:33:39Z</time>
      </trkpt>
      <trkpt lat="45.30254" lon="6.51107">
        <ele>2540.1</ele>
        <time>2014-01-26T10:33:54Z</time>
      </trkpt>
      <trkpt lat="45.3027" lon="6.51166">
        <ele>2525.45</ele>
        <time>2014-01-26T10:34:01Z</time>
      </trkpt>
      <trkpt lat="45.30296" lon="6.51213">
        <ele>2521.44</ele>
        <time>2014-01-26T10:34:08Z</time>
      </trkpt>
      <trkpt lat="45.30326" lon="6.51244">
        <ele>2520.36</ele>
        <time>2014-01-26T10:34:18Z</time>
      </trkpt>
      <trkpt lat="45.30361" lon="6.51274">
        <ele>2519.14</ele>
        <time>2014-01-26T10:34:27Z</time>
      </trkpt>
      <trkpt lat="45.30398" lon="6.51306">
        <ele>2511.46</ele>
        <time>2014-01-26T10:34:42Z</time>
      </trkpt>
      <trkpt lat="45.30416" lon="6.51348">
        <ele>2496.08</ele>
        <time>2014-01-26T10:34:57Z</time>
      </trkpt>
      <trkpt lat="45.3041" lon="6.51399">
        <ele>2476.79</ele>
        <time>2014-01-26T10:35:24Z</time>
      </trkpt>
      <trkpt lat="45.30405" lon="6.51452">
        <ele>2468.88</ele>
        <time>2014-01-26T10:35:36Z</time>
      </trkpt>
      <trkpt lat="45.30424" lon="6.51499">
        <ele>2454.23</ele>
        <time>2014-01-26T10:35:46Z</time>
      </trkpt>
      <trkpt lat="45.30462" lon="6.51514">
        <ele>2438.36</ele>
        <time>2014-01-26T10:35:57Z</time>
      </trkpt>
      <trkpt lat="45.30497" lon="6.51496">
        <ele>2428.27</ele>
        <time>2014-01-26T10:36:56Z</time>
      </trkpt>
      <trkpt lat="45.30533" lon="6.51499">
        <ele>2417.63</ele>
        <time>2014-01-26T10:37:07Z</time>
      </trkpt>
      <trkpt lat="45.30566" lon="6.51483">
        <ele>2404.31</ele>
        <time>2014-01-26T10:37:14Z</time>
      </trkpt>
      <trkpt lat="45.30604" lon="6.51468">
        <ele>2387</ele>
        <time>2014-01-26T10:37:24Z</time>
      </trkpt>
      <trkpt lat="45.30639" lon="6.51459">
        <ele>2369.1</ele>
        <time>2014-01-26T10:37:32Z</time>
      </trkpt>
      <trkpt lat="45.30677" lon="6.51444">
        <ele>2355.46</ele>
        <time>2014-01-26T10:37:40Z</time>
      </trkpt>
      <trkpt lat="45.30723" lon="6.5144">
        <ele>2337.13</ele>
        <time>2014-01-26T10:37:47Z</time>
      </trkpt>
      <trkpt lat="45.30762" lon="6.51441">
        <ele>2324.31</ele>
        <time>2014-01-26T10:37:51Z</time>
      </trkpt>
      <trkpt lat="45.30803" lon="6.51435">
        <ele>2317.1</ele>
        <time>2014-01-26T10:37:55Z</time>
      </trkpt>
      <trkpt lat="45.30844" lon="6.51432">
        <ele>2312.09</ele>
        <time>2014-01-26T10:38:00Z</time>
      </trkpt>
      <trkpt lat="45.30884" lon="6.51425">
        <ele>2308.56</ele>
        <time>2014-01-26T10:38:07Z</time>
      </trkpt>
      <trkpt lat="45.30922" lon="6.51414">
        <ele>2302</ele>
        <time>2014-01-26T10:38:13Z</time>
      </trkpt>
      <trkpt lat="45.30959" lon="6.51392">
        <ele>2294.88</ele>
        <time>2014-01-26T10:38:20Z</time>
      </trkpt>
      <trkpt lat="45.31" lon="6.51368">
        <ele>2285.65</ele>
        <time>2014-01-26T10:38:29Z</time>
      </trkpt>
      <trkpt lat="45.31038" lon="6.51353">
        <ele>2278.42</ele>
        <time>2014-01-26T10:38:35Z</time>
      </trkpt>
      <trkpt lat="45.31073" lon="6.51368">
        <ele>2272.42</ele>
        <time>2014-01-26T10:38:44Z</time>
      </trkpt>
      <trkpt lat="45.31101" lon="6.51397">
        <ele>2269.39</ele>
        <time>2014-01-26T10:39:44Z</time>
      </trkpt>
      <trkpt lat="45.31139" lon="6.51419">
        <ele>2257.95</ele>
        <time>2014-01-26T10:39:51Z</time>
      </trkpt>
      <trkpt lat="45.31178" lon="6.51439">
        <ele>2247.48</ele>
        <time>2014-01-26T10:39:59Z</time>
      </trkpt>
      <trkpt lat="45.31216" lon="6.5146">
        <ele>2234.58</ele>
        <time>2014-01-26T10:40:07Z</time>
      </trkpt>
      <trkpt lat="45.31254" lon="6.51478">
        <ele>2222.02</ele>
        <time>2014-01-26T10:40:18Z</time>
      </trkpt>
      <trkpt lat="45.31282" lon="6.515">
        <ele>2208.49</ele>
        <time>2014-01-26T10:40:26Z</time>
      </trkpt>
      <trkpt lat="45.31311" lon="6.51542">
        <ele>2187.83</ele>
        <time>2014-01-26T10:40:35Z</time>
      </trkpt>
      <trkpt lat="45.31339" lon="6.51586">
        <ele>2170.84</ele>
        <time>2014-01-26T10:40:42Z</time>
      </trkpt>
      <trkpt lat="45.31369" lon="6.51622">
        <ele>2157.92</ele>
        <time>2014-01-26T10:40:48Z</time>
      </trkpt>
      <trkpt lat="45.31409" lon="6.51648">
        <ele>2145.97</ele>
        <time>2014-01-26T10:40:54Z</time>
      </trkpt>
      <trkpt lat="45.31445" lon="6.51676">
        <ele>2139.47</ele>
        <time>2014-01-26T10:41:00Z</time>
      </trkpt>
      <trkpt lat="45.3148" lon="6.51692">
        <ele>2134.1</ele>
        <time>2014-01-26T10:41:06Z</time>
      </trkpt>
      <trkpt lat="45.31524" lon="6.51706">
        <ele>2131.28</ele>
        <time>2014-01-26T10:41:15Z</time>
      </trkpt>
      <trkpt lat="45.31557" lon="6.51726">
        <ele>2129.48</ele>
        <time>2014-01-26T10:41:26Z</time>
      </trkpt>
      <trkpt lat="45.31586" lon="6.51775">
        <ele>2124.17</ele>
        <time>2014-01-26T10:41:35Z</time>
      </trkpt>
      <trkpt lat="45.31597" lon="6.51835">
        <ele>2118.15</ele>
        <time>2014-01-26T10:41:43Z</time>
      </trkpt>
      <trkpt lat="45.31624" lon="6.51871">
        <ele>2120.01</ele>
        <time>2014-01-26T10:41:56Z</time>
      </trkpt>
      <trkpt lat="45.31612" lon="6.51823">
        <ele>2112.85</ele>
        <time>2014-01-26T10:43:09Z</time>
      </trkpt>
      <trkpt lat="45.31592" lon="6.51779">
        <ele>2121.95</ele>
        <time>2014-01-26T10:43:28Z</time>
      </trkpt>
      <trkpt lat="45.31571" lon="6.51736">
        <ele>2126.95</ele>
        <time>2014-01-26T10:43:47Z</time>
      </trkpt>
      <trkpt lat="45.3155" lon="6.51691">
        <ele>2125.09</ele>
        <time>2014-01-26T10:44:07Z</time>
      </trkpt>
      <trkpt lat="45.31527" lon="6.51648">
        <ele>2122.34</ele>
        <time>2014-01-26T10:44:26Z</time>
      </trkpt>
      <trkpt lat="45.31507" lon="6.51601">
        <ele>2119.14</ele>
        <time>2014-01-26T10:44:46Z</time>
      </trkpt>
      <trkpt lat="45.31485" lon="6.51557">
        <ele>2124.16</ele>
        <time>2014-01-26T10:45:06Z</time>
      </trkpt>
      <trkpt lat="45.31465" lon="6.51514">
        <ele>2140.96</ele>
        <time>2014-01-26T10:45:27Z</time>
      </trkpt>
      <trkpt lat="45.31444" lon="6.51471">
        <ele>2165.21</ele>
        <time>2014-01-26T10:45:48Z</time>
      </trkpt>
      <trkpt lat="45.31424" lon="6.51426">
        <ele>2180.35</ele>
        <time>2014-01-26T10:46:08Z</time>
      </trkpt>
      <trkpt lat="45.31403" lon="6.51383">
        <ele>2196.98</ele>
        <time>2014-01-26T10:46:27Z</time>
      </trkpt>
      <trkpt lat="45.31382" lon="6.51337">
        <ele>2206.18</ele>
        <time>2014-01-26T10:46:47Z</time>
      </trkpt>
      <trkpt lat="45.3136" lon="6.51293">
        <ele>2215.87</ele>
        <time>2014-01-26T10:47:08Z</time>
      </trkpt>
      <trkpt lat="45.31341" lon="6.51248">
        <ele>2238.35</ele>
        <time>2014-01-26T10:47:28Z</time>
      </trkpt>
      <trkpt lat="45.31317" lon="6.51207">
        <ele>2251.04</ele>
        <time>2014-01-26T10:47:50Z</time>
      </trkpt>
      <trkpt lat="45.31295" lon="6.51162">
        <ele>2264.13</ele>
        <time>2014-01-26T10:48:12Z</time>
      </trkpt>
      <trkpt lat="45.31277" lon="6.51115">
        <ele>2284.21</ele>
        <time>2014-01-26T10:48:32Z</time>
      </trkpt>
      <trkpt lat="45.31255" lon="6.51072">
        <ele>2296.93</ele>
        <time>2014-01-26T10:48:53Z</time>
      </trkpt>
      <trkpt lat="45.31233" lon="6.5103">
        <ele>2309.3</ele>
        <time>2014-01-26T10:49:14Z</time>
      </trkpt>
      <trkpt lat="45.31214" lon="6.50984">
        <ele>2327.39</ele>
        <time>2014-01-26T10:49:35Z</time>
      </trkpt>
      <trkpt lat="45.31191" lon="6.50941">
        <ele>2356.01</ele>
        <time>2014-01-26T10:49:56Z</time>
      </trkpt>
      <trkpt lat="45.31168" lon="6.50898">
        <ele>2380.99</ele>
        <time>2014-01-26T10:50:18Z</time>
      </trkpt>
      <trkpt lat="45.31147" lon="6.50853">
        <ele>2405.35</ele>
        <time>2014-01-26T10:50:39Z</time>
      </trkpt>
      <trkpt lat="45.31124" lon="6.5081">
        <ele>2431.35</ele>
        <time>2014-01-26T10:50:59Z</time>
      </trkpt>
      <trkpt lat="45.31102" lon="6.50767">
        <ele>2459.5</ele>
        <time>2014-01-26T10:51:20Z</time>
      </trkpt>
      <trkpt lat="45.31082" lon="6.50723">
        <ele>2463.07</ele>
        <time>2014-01-26T10:51:41Z</time>
      </trkpt>
      <trkpt lat="45.31062" lon="6.50678">
        <ele>2462.63</ele>
        <time>2014-01-26T10:52:02Z</time>
      </trkpt>
      <trkpt lat="45.3104" lon="6.50633">
        <ele>2474.36</ele>
        <time>2014-01-26T10:52:21Z</time>
      </trkpt>
      <trkpt lat="45.31016" lon="6.50589">
        <ele>2501.48</ele>
        <time>2014-01-26T10:52:43Z</time>
      </trkpt>
      <trkpt lat="45.30996" lon="6.50544">
        <ele>2512.1</ele>
        <time>2014-01-26T10:53:03Z</time>
      </trkpt>
      <trkpt lat="45.30974" lon="6.50499">
        <ele>2522.73</ele>
        <time>2014-01-26T10:53:24Z</time>
      </trkpt>
      <trkpt lat="45.30952" lon="6.50454">
        <ele>2537.75</ele>
        <time>2014-01-26T10:53:45Z</time>
      </trkpt>
      <trkpt lat="45.30931" lon="6.50412">
        <ele>2552.86</ele>
        <time>2014-01-26T10:54:04Z</time>
      </trkpt>
      <trkpt lat="45.3091" lon="6.50367">
        <ele>2574.76</ele>
        <time>2014-01-26T10:54:26Z</time>
      </trkpt>
      <trkpt lat="45.30889" lon="6.50321">
        <ele>2586.66</ele>
        <time>2014-01-26T10:54:48Z</time>
      </trkpt>
      <trkpt lat="45.3085" lon="6.50322">
        <ele>2577.15</ele>
        <time>2014-01-26T10:55:55Z</time>
      </trkpt>
      <trkpt lat="45.30808" lon="6.50334">
        <ele>2580</ele>
        <time>2014-01-26T10:56:01Z</time>
      </trkpt>
      <trkpt lat="45.30769" lon="6.50339">
        <ele>2571.58</ele>
        <time>2014-01-26T10:56:09Z</time>
      </trkpt>
      <trkpt lat="45.30756" lon="6.50388">
        <ele>2573.06</ele>
        <time>2014-01-26T10:56:18Z</time>
      </trkpt>
      <trkpt lat="45.30792" lon="6.50401">
        <ele>2575.98</ele>
        <time>2014-01-26T10:56:29Z</time>
      </trkpt>
      <trkpt lat="45.30804" lon="6.50456">
        <ele>2569.98</ele>
        <time>2014-01-26T10:56:36Z</time>
      </trkpt>
      <trkpt lat="45.30807" lon="6.50517">
        <ele>2553.36</ele>
        <time>2014-01-26T10:56:41Z</time>
      </trkpt>
      <trkpt lat="45.30803" lon="6.50576">
        <ele>2543.79</ele>
        <time>2014-01-26T10:56:47Z</time>
      </trkpt>
      <trkpt lat="45.30806" lon="6.50633">
        <ele>2531.27</ele>
        <time>2014-01-26T10:56:57Z</time>
      </trkpt>
      <trkpt lat="45.30782" lon="6.50683">
        <ele>2524.71</ele>
        <time>2014-01-26T10:57:16Z</time>
      </trkpt>
      <trkpt lat="45.3076" lon="6.50736">
        <ele>2522.54</ele>
        <time>2014-01-26T10:57:23Z</time>
      </trkpt>
      <trkpt lat="45.30736" lon="6.50787">
        <ele>2518.76</ele>
        <time>2014-01-26T10:57:31Z</time>
      </trkpt>
      <trkpt lat="45.30715" lon="6.50843">
        <ele>2512.71</ele>
        <time>2014-01-26T10:57:40Z</time>
      </trkpt>
      <trkpt lat="45.30721" lon="6.50884">
        <ele>2502.14</ele>
        <time>2014-01-26T10:57:53Z</time>
      </trkpt>
      <trkpt lat="45.30759" lon="6.5091">
        <ele>2485.22</ele>
        <time>2014-01-26T10:58:07Z</time>
      </trkpt>
      <trkpt lat="45.30793" lon="6.50938">
        <ele>2466.32</ele>
        <time>2014-01-26T10:58:22Z</time>
      </trkpt>
      <trkpt lat="45.30832" lon="6.50953">
        <ele>2440.95</ele>
        <time>2014-01-26T10:58:36Z</time>
      </trkpt>
      <trkpt lat="45.30873" lon="6.50954">
        <ele>2428.32</ele>
        <time>2014-01-26T10:58:49Z</time>
      </trkpt>
      <trkpt lat="45.30909" lon="6.50966">
        <ele>2413.36</ele>
        <time>2014-01-26T10:59:05Z</time>
      </trkpt>
      <trkpt lat="45.30913" lon="6.51012">
        <ele>2399.15</ele>
        <time>2014-01-26T10:59:19Z</time>
      </trkpt>
      <trkpt lat="45.30923" lon="6.51063">
        <ele>2370.59</ele>
        <time>2014-01-26T10:59:33Z</time>
      </trkpt>
      <trkpt lat="45.30925" lon="6.51126">
        <ele>2358.54</ele>
        <time>2014-01-26T11:00:16Z</time>
      </trkpt>
      <trkpt lat="45.30924" lon="6.51182">
        <ele>2349.05</ele>
        <time>2014-01-26T11:00:28Z</time>
      </trkpt>
      <trkpt lat="45.30928" lon="6.51231">
        <ele>2326.84</ele>
        <time>2014-01-26T11:00:42Z</time>
      </trkpt>
      <trkpt lat="45.30948" lon="6.51277">
        <ele>2310.57</ele>
        <time>2014-01-26T11:00:52Z</time>
      </trkpt>
      <trkpt lat="45.30974" lon="6.5133">
        <ele>2298.6</ele>
        <time>2014-01-26T11:01:00Z</time>
      </trkpt>
      <trkpt lat="45.31017" lon="6.51351">
        <ele>2282.59</ele>
        <time>2014-01-26T11:01:08Z</time>
      </trkpt>
      <trkpt lat="45.31055" lon="6.51362">
        <ele>2275.07</ele>
        <time>2014-01-26T11:01:15Z</time>
      </trkpt>
      <trkpt lat="45.31091" lon="6.51386">
        <ele>2270.21</ele>
        <time>2014-01-26T11:01:22Z</time>
      </trkpt>
      <trkpt lat="45.31131" lon="6.51421">
        <ele>2261.67</ele>
        <time>2014-01-26T11:01:30Z</time>
      </trkpt>
      <trkpt lat="45.3117" lon="6.5142">
        <ele>2248.38</ele>
        <time>2014-01-26T11:01:39Z</time>
      </trkpt>
      <trkpt lat="45.31209" lon="6.51436">
        <ele>2236.71</ele>
        <time>2014-01-26T11:01:48Z</time>
      </trkpt>
      <trkpt lat="45.31239" lon="6.51456">
        <ele>2226.2</ele>
        <time>2014-01-26T11:01:58Z</time>
      </trkpt>
      <trkpt lat="45.31266" lon="6.51486">
        <ele>2216.65</ele>
        <time>2014-01-26T11:02:09Z</time>
      </trkpt>
      <trkpt lat="45.31292" lon="6.51521">
        <ele>2201.32</ele>
        <time>2014-01-26T11:02:16Z</time>
      </trkpt>
      <trkpt lat="45.31319" lon="6.51573">
        <ele>2180.62</ele>
        <time>2014-01-26T11:02:22Z</time>
      </trkpt>
      <trkpt lat="45.31353" lon="6.51593">
        <ele>2165.48</ele>
        <time>2014-01-26T11:02:26Z</time>
      </trkpt>
      <trkpt lat="45.31397" lon="6.51626">
        <ele>2151.34</ele>
        <time>2014-01-26T11:02:32Z</time>
      </trkpt>
      <trkpt lat="45.31443" lon="6.51653">
        <ele>2140.12</ele>
        <time>2014-01-26T11:02:38Z</time>
      </trkpt>
      <trkpt lat="45.31476" lon="6.51682">
        <ele>2133.92</ele>
        <time>2014-01-26T11:02:44Z</time>
      </trkpt>
      <trkpt lat="45.31514" lon="6.51686">
        <ele>2128.42</ele>
        <time>2014-01-26T11:03:20Z</time>
      </trkpt>
      <trkpt lat="45.31553" lon="6.51687">
        <ele>2123.99</ele>
        <time>2014-01-26T11:03:28Z</time>
      </trkpt>
      <trkpt lat="45.31587" lon="6.51698">
        <ele>2117.3</ele>
        <time>2014-01-26T11:03:34Z</time>
      </trkpt>
      <trkpt lat="45.31624" lon="6.51728">
        <ele>2106.71</ele>
        <time>2014-01-26T11:03:41Z</time>
      </trkpt>
      <trkpt lat="45.31658" lon="6.51761">
        <ele>2099.41</ele>
        <time>2014-01-26T11:03:47Z</time>
      </trkpt>
      <trkpt lat="45.31692" lon="6.51797">
        <ele>2091.51</ele>
        <time>2014-01-26T11:03:53Z</time>
      </trkpt>
      <trkpt lat="45.31733" lon="6.51831">
        <ele>2078.87</ele>
        <time>2014-01-26T11:03:59Z</time>
      </trkpt>
      <trkpt lat="45.31772" lon="6.5186">
        <ele>2067.15</ele>
        <time>2014-01-26T11:04:04Z</time>
      </trkpt>
      <trkpt lat="45.31814" lon="6.51878">
        <ele>2053.55</ele>
        <time>2014-01-26T11:04:08Z</time>
      </trkpt>
      <trkpt lat="45.31854" lon="6.51889">
        <ele>2044.37</ele>
        <time>2014-01-26T11:04:12Z</time>
      </trkpt>
      <trkpt lat="45.31893" lon="6.51907">
        <ele>2039.34</ele>
        <time>2014-01-26T11:04:16Z</time>
      </trkpt>
      <trkpt lat="45.31941" lon="6.51931">
        <ele>2033.67</ele>
        <time>2014-01-26T11:04:22Z</time>
      </trkpt>
      <trkpt lat="45.31985" lon="6.51959">
        <ele>2028.99</ele>
        <time>2014-01-26T11:04:28Z</time>
      </trkpt>
      <trkpt lat="45.32031" lon="6.5199">
        <ele>2023.1</ele>
        <time>2014-01-26T11:04:34Z</time>
      </trkpt>
      <trkpt lat="45.32069" lon="6.52006">
        <ele>2017.48</ele>
        <time>2014-01-26T11:04:41Z</time>
      </trkpt>
      <trkpt lat="45.32108" lon="6.52011">
        <ele>2007.74</ele>
        <time>2014-01-26T11:04:49Z</time>
      </trkpt>
      <trkpt lat="45.32133" lon="6.52051">
        <ele>2005.45</ele>
        <time>2014-01-26T11:04:55Z</time>
      </trkpt>
      <trkpt lat="45.32166" lon="6.52076">
        <ele>1999.25</ele>
        <time>2014-01-26T11:05:02Z</time>
      </trkpt>
      <trkpt lat="45.32198" lon="6.52111">
        <ele>1990.79</ele>
        <time>2014-01-26T11:05:14Z</time>
      </trkpt>
      <trkpt lat="45.32233" lon="6.52092">
        <ele>1977.8</ele>
        <time>2014-01-26T11:05:23Z</time>
      </trkpt>
      <trkpt lat="45.32271" lon="6.52106">
        <ele>1964.48</ele>
        <time>2014-01-26T11:05:32Z</time>
      </trkpt>
      <trkpt lat="45.32311" lon="6.52126">
        <ele>1948.89</ele>
        <time>2014-01-26T11:05:40Z</time>
      </trkpt>
      <trkpt lat="45.32313" lon="6.52167">
        <ele>1940.4</ele>
        <time>2014-01-26T11:05:49Z</time>
      </trkpt>
      <trkpt lat="45.3229" lon="6.52213">
        <ele>1951.38</ele>
        <time>2014-01-26T11:07:03Z</time>
      </trkpt>
      <trkpt lat="45.32286" lon="6.5227">
        <ele>1938.34</ele>
        <time>2014-01-26T11:07:18Z</time>
      </trkpt>
      <trkpt lat="45.32302" lon="6.52313">
        <ele>1915.84</ele>
        <time>2014-01-26T11:07:32Z</time>
      </trkpt>
      <trkpt lat="45.32323" lon="6.52326">
        <ele>1899.53</ele>
        <time>2014-01-26T11:10:02Z</time>
      </trkpt>
      <trkpt lat="45.3232" lon="6.52378">
        <ele>1888.99</ele>
        <time>2014-01-26T11:11:18Z</time>
      </trkpt>
      <trkpt lat="45.32341" lon="6.52418">
        <ele>1869.76</ele>
        <time>2014-01-26T11:11:41Z</time>
      </trkpt>
      <trkpt lat="45.32373" lon="6.52455">
        <ele>1849.15</ele>
        <time>2014-01-26T11:11:56Z</time>
      </trkpt>
      <trkpt lat="45.32389" lon="6.52487">
        <ele>1835.35</ele>
        <time>2014-01-26T11:12:11Z</time>
      </trkpt>
      <trkpt lat="45.32396" lon="6.52539">
        <ele>1814.07</ele>
        <time>2014-01-26T11:12:24Z</time>
      </trkpt>
      <trkpt lat="45.32381" lon="6.52591">
        <ele>1807.31</ele>
        <time>2014-01-26T11:13:22Z</time>
      </trkpt>
      <trkpt lat="45.32378" lon="6.52649">
        <ele>1799.25</ele>
        <time>2014-01-26T11:13:30Z</time>
      </trkpt>
      <trkpt lat="45.32396" lon="6.52687">
        <ele>1785.89</ele>
        <time>2014-01-26T11:13:40Z</time>
      </trkpt>
      <trkpt lat="45.32394" lon="6.52749">
        <ele>1774.9</ele>
        <time>2014-01-26T11:13:49Z</time>
      </trkpt>
      <trkpt lat="45.32382" lon="6.52798">
        <ele>1772.29</ele>
        <time>2014-01-26T11:13:57Z</time>
      </trkpt>
      <trkpt lat="45.3238" lon="6.52853">
        <ele>1767.09</ele>
        <time>2014-01-26T11:14:08Z</time>
      </trkpt>
      <trkpt lat="45.32396" lon="6.52904">
        <ele>1757.71</ele>
        <time>2014-01-26T11:14:41Z</time>
      </trkpt>
      <trkpt lat="45.32416" lon="6.52946">
        <ele>1743.7</ele>
        <time>2014-01-26T11:14:57Z</time>
      </trkpt>
      <trkpt lat="45.3243" lon="6.52984">
        <ele>1728.26</ele>
        <time>2014-01-26T11:15:11Z</time>
      </trkpt>
      <trkpt lat="45.32456" lon="6.53023">
        <ele>1709.24</ele>
        <time>2014-01-26T11:15:23Z</time>
      </trkpt>
      <trkpt lat="45.32493" lon="6.53047">
        <ele>1692.06</ele>
        <time>2014-01-26T11:15:37Z</time>
      </trkpt>
      <trkpt lat="45.32534" lon="6.53057">
        <ele>1672.59</ele>
        <time>2014-01-26T11:15:46Z</time>
      </trkpt>
      <trkpt lat="45.32578" lon="6.53047">
        <ele>1661.62</ele>
        <time>2014-01-26T11:15:53Z</time>
      </trkpt>
      <trkpt lat="45.32572" lon="6.53095">
        <ele>1660.39</ele>
        <time>2014-01-26T11:17:04Z</time>
      </trkpt>
      <trkpt lat="45.32575" lon="6.53149">
        <ele>1662.83</ele>
        <time>2014-01-26T11:17:26Z</time>
      </trkpt>
      <trkpt lat="45.32577" lon="6.53202">
        <ele>1679.97</ele>
        <time>2014-01-26T11:17:52Z</time>
      </trkpt>
      <trkpt lat="45.32581" lon="6.53252">
        <ele>1691.53</ele>
        <time>2014-01-26T11:18:16Z</time>
      </trkpt>
      <trkpt lat="45.32585" lon="6.53304">
        <ele>1707.67</ele>
        <time>2014-01-26T11:18:42Z</time>
      </trkpt>
      <trkpt lat="45.32588" lon="6.53356">
        <ele>1720.18</ele>
        <time>2014-01-26T11:19:07Z</time>
      </trkpt>
      <trkpt lat="45.3259" lon="6.53407">
        <ele>1731.58</ele>
        <time>2014-01-26T11:19:30Z</time>
      </trkpt>
      <trkpt lat="45.32591" lon="6.53461">
        <ele>1743.89</ele>
        <time>2014-01-26T11:19:54Z</time>
      </trkpt>
      <trkpt lat="45.32593" lon="6.53513">
        <ele>1752.28</ele>
        <time>2014-01-26T11:20:16Z</time>
      </trkpt>
      <trkpt lat="45.32597" lon="6.53566">
        <ele>1756.98</ele>
        <time>2014-01-26T11:20:43Z</time>
      </trkpt>
      <trkpt lat="45.326" lon="6.5362">
        <ele>1762.09</ele>
        <time>2014-01-26T11:21:11Z</time>
      </trkpt>
      <trkpt lat="45.32599" lon="6.5368">
        <ele>1771.37</ele>
        <time>2014-01-26T11:21:29Z</time>
      </trkpt>
      <trkpt lat="45.32602" lon="6.53738">
        <ele>1782.16</ele>
        <time>2014-01-26T11:21:58Z</time>
      </trkpt>
      <trkpt lat="45.32607" lon="6.53792">
        <ele>1794.72</ele>
        <time>2014-01-26T11:22:22Z</time>
      </trkpt>
      <trkpt lat="45.32614" lon="6.53845">
        <ele>1807.91</ele>
        <time>2014-01-26T11:22:46Z</time>
      </trkpt>
      <trkpt lat="45.32619" lon="6.53897">
        <ele>1818.73</ele>
        <time>2014-01-26T11:23:13Z</time>
      </trkpt>
      <trkpt lat="45.32622" lon="6.53955">
        <ele>1835.34</ele>
        <time>2014-01-26T11:23:42Z</time>
      </trkpt>
      <trkpt lat="45.32611" lon="6.54008">
        <ele>1850.23</ele>
        <time>2014-01-26T11:23:57Z</time>
      </trkpt>
      <trkpt lat="45.32594" lon="6.54041">
        <ele>1856.35</ele>
        <time>2014-01-26T11:24:16Z</time>
      </trkpt>
      <trkpt lat="45.32558" lon="6.5405">
        <ele>1855.52</ele>
        <time>2014-01-26T11:24:36Z</time>
      </trkpt>
      <trkpt lat="45.3252" lon="6.54065">
        <ele>1855.55</ele>
        <time>2014-01-26T11:24:53Z</time>
      </trkpt>
      <trkpt lat="45.3248" lon="6.54068">
        <ele>1849.9</ele>
        <time>2014-01-26T11:25:02Z</time>
      </trkpt>
      <trkpt lat="45.3244" lon="6.54091">
        <ele>1849.44</ele>
        <time>2014-01-26T11:25:10Z</time>
      </trkpt>
      <trkpt lat="45.32402" lon="6.54116">
        <ele>1846.14</ele>
        <time>2014-01-26T11:25:18Z</time>
      </trkpt>
      <trkpt lat="45.32366" lon="6.54104">
        <ele>1840.28</ele>
        <time>2014-01-26T11:25:52Z</time>
      </trkpt>
      <trkpt lat="45.32332" lon="6.54076">
        <ele>1840.1</ele>
        <time>2014-01-26T11:26:36Z</time>
      </trkpt>
      <trkpt lat="45.32315" lon="6.54024">
        <ele>1834.91</ele>
        <time>2014-01-26T11:26:44Z</time>
      </trkpt>
      <trkpt lat="45.32304" lon="6.53973">
        <ele>1829.21</ele>
        <time>2014-01-26T11:26:53Z</time>
      </trkpt>
      <trkpt lat="45.32304" lon="6.53918">
        <ele>1821.26</ele>
        <time>2014-01-26T11:27:02Z</time>
      </trkpt>
      <trkpt lat="45.32278" lon="6.53876">
        <ele>1817.05</ele>
        <time>2014-01-26T11:27:08Z</time>
      </trkpt>
      <trkpt lat="45.32264" lon="6.5391">
        <ele>1820.66</ele>
        <time>2014-01-26T11:29:04Z</time>
      </trkpt>
      <trkpt lat="45.32286" lon="6.53966">
        <ele>1828.79</ele>
        <time>2014-01-26T11:29:12Z</time>
      </trkpt>
      <trkpt lat="45.32306" lon="6.54012">
        <ele>1834.29</ele>
        <time>2014-01-26T11:29:21Z</time>
      </trkpt>
      <trkpt lat="45.32333" lon="6.54058">
        <ele>1837.4</ele>
        <time>2014-01-26T11:29:31Z</time>
      </trkpt>
      <trkpt lat="45.32356" lon="6.54104">
        <ele>1841.14</ele>
        <time>2014-01-26T11:29:40Z</time>
      </trkpt>
      <trkpt lat="45.32381" lon="6.54149">
        <ele>1847.05</ele>
        <time>2014-01-26T11:29:49Z</time>
      </trkpt>
      <trkpt lat="45.32401" lon="6.54193">
        <ele>1855.74</ele>
        <time>2014-01-26T11:29:58Z</time>
      </trkpt>
      <trkpt lat="45.32423" lon="6.5424">
        <ele>1872.26</ele>
        <time>2014-01-26T11:30:07Z</time>
      </trkpt>
      <trkpt lat="45.32447" lon="6.54286">
        <ele>1895.21</ele>
        <time>2014-01-26T11:30:17Z</time>
      </trkpt>
      <trkpt lat="45.32468" lon="6.54334">
        <ele>1918.95</ele>
        <time>2014-01-26T11:30:26Z</time>
      </trkpt>
      <trkpt lat="45.32491" lon="6.54387">
        <ele>1939.85</ele>
        <time>2014-01-26T11:30:36Z</time>
      </trkpt>
      <trkpt lat="45.3251" lon="6.54436">
        <ele>1952.29</ele>
        <time>2014-01-26T11:30:45Z</time>
      </trkpt>
      <trkpt lat="45.32535" lon="6.54483">
        <ele>1962.62</ele>
        <time>2014-01-26T11:30:55Z</time>
      </trkpt>
      <trkpt lat="45.3256" lon="6.54524">
        <ele>1971.67</ele>
        <time>2014-01-26T11:31:05Z</time>
      </trkpt>
      <trkpt lat="45.32584" lon="6.54571">
        <ele>1985.73</ele>
        <time>2014-01-26T11:31:15Z</time>
      </trkpt>
      <trkpt lat="45.32602" lon="6.54617">
        <ele>2008.62</ele>
        <time>2014-01-26T11:31:23Z</time>
      </trkpt>
      <trkpt lat="45.32624" lon="6.5467">
        <ele>2051.26</ele>
        <time>2014-01-26T11:31:33Z</time>
      </trkpt>
      <trkpt lat="45.32645" lon="6.54721">
        <ele>2085.32</ele>
        <time>2014-01-26T11:31:43Z</time>
      </trkpt>
      <trkpt lat="45.32667" lon="6.54767">
        <ele>2116.34</ele>
        <time>2014-01-26T11:31:53Z</time>
      </trkpt>
      <trkpt lat="45.32698" lon="6.54792">
        <ele>2133.47</ele>
        <time>2014-01-26T11:32:04Z</time>
      </trkpt>
      <trkpt lat="45.32721" lon="6.54844">
        <ele>2153.08</ele>
        <time>2014-01-26T11:32:15Z</time>
      </trkpt>
      <trkpt lat="45.32743" lon="6.54898">
        <ele>2170.7</ele>
        <time>2014-01-26T11:32:25Z</time>
      </trkpt>
      <trkpt lat="45.32766" lon="6.54948">
        <ele>2179.04</ele>
        <time>2014-01-26T11:32:35Z</time>
      </trkpt>
      <trkpt lat="45.32793" lon="6.54994">
        <ele>2186.6</ele>
        <time>2014-01-26T11:32:45Z</time>
      </trkpt>
      <trkpt lat="45.32819" lon="6.55042">
        <ele>2198.57</ele>
        <time>2014-01-26T11:32:55Z</time>
      </trkpt>
      <trkpt lat="45.32839" lon="6.55088">
        <ele>2210.2</ele>
        <time>2014-01-26T11:33:03Z</time>
      </trkpt>
      <trkpt lat="45.32858" lon="6.55137">
        <ele>2219.65</ele>
        <time>2014-01-26T11:33:11Z</time>
      </trkpt>
      <trkpt lat="45.3288" lon="6.55184">
        <ele>2231.27</ele>
        <time>2014-01-26T11:33:20Z</time>
      </trkpt>
      <trkpt lat="45.32906" lon="6.55225">
        <ele>2245.08</ele>
        <time>2014-01-26T11:33:30Z</time>
      </trkpt>
      <trkpt lat="45.32936" lon="6.55259">
        <ele>2254.48</ele>
        <time>2014-01-26T11:33:41Z</time>
      </trkpt>
      <trkpt lat="45.32959" lon="6.55304">
        <ele>2266.97</ele>
        <time>2014-01-26T11:33:51Z</time>
      </trkpt>
      <trkpt lat="45.32984" lon="6.55352">
        <ele>2281.62</ele>
        <time>2014-01-26T11:34:01Z</time>
      </trkpt>
      <trkpt lat="45.33009" lon="6.55402">
        <ele>2298.17</ele>
        <time>2014-01-26T11:34:11Z</time>
      </trkpt>
      <trkpt lat="45.33033" lon="6.55449">
        <ele>2307.63</ele>
        <time>2014-01-26T11:34:21Z</time>
      </trkpt>
      <trkpt lat="45.33063" lon="6.55471">
        <ele>2309.89</ele>
        <time>2014-01-26T11:38:36Z</time>
      </trkpt>
      <trkpt lat="45.33097" lon="6.55488">
        <ele>2308.64</ele>
        <time>2014-01-26T11:39:36Z</time>
      </trkpt>
      <trkpt lat="45.33135" lon="6.55493">
        <ele>2309.69</ele>
        <time>2014-01-26T11:39:59Z</time>
      </trkpt>
      <trkpt lat="45.33172" lon="6.55499">
        <ele>2313.93</ele>
        <time>2014-01-26T11:40:13Z</time>
      </trkpt>
      <trkpt lat="45.33212" lon="6.55509">
        <ele>2314.62</ele>
        <time>2014-01-26T11:40:26Z</time>
      </trkpt>
      <trkpt lat="45.33253" lon="6.55516">
        <ele>2311.42</ele>
        <time>2014-01-26T11:40:36Z</time>
      </trkpt>
      <trkpt lat="45.33296" lon="6.55519">
        <ele>2307.54</ele>
        <time>2014-01-26T11:40:44Z</time>
      </trkpt>
      <trkpt lat="45.33335" lon="6.55515">
        <ele>2299.3</ele>
        <time>2014-01-26T11:40:50Z</time>
      </trkpt>
      <trkpt lat="45.33379" lon="6.55512">
        <ele>2293.34</ele>
        <time>2014-01-26T11:40:56Z</time>
      </trkpt>
      <trkpt lat="45.33416" lon="6.55511">
        <ele>2290.86</ele>
        <time>2014-01-26T11:41:14Z</time>
      </trkpt>
      <trkpt lat="45.33426" lon="6.55562">
        <ele>2294.55</ele>
        <time>2014-01-26T11:42:21Z</time>
      </trkpt>
      <trkpt lat="45.33441" lon="6.55615">
        <ele>2300.09</ele>
        <time>2014-01-26T11:42:33Z</time>
      </trkpt>
      <trkpt lat="45.33453" lon="6.55664">
        <ele>2307.15</ele>
        <time>2014-01-26T11:42:41Z</time>
      </trkpt>
      <trkpt lat="45.33464" lon="6.55719">
        <ele>2319.74</ele>
        <time>2014-01-26T11:42:51Z</time>
      </trkpt>
      <trkpt lat="45.33477" lon="6.55774">
        <ele>2336.2</ele>
        <time>2014-01-26T11:43:02Z</time>
      </trkpt>
      <trkpt lat="45.33488" lon="6.55824">
        <ele>2349.81</ele>
        <time>2014-01-26T11:43:11Z</time>
      </trkpt>
      <trkpt lat="45.33498" lon="6.55878">
        <ele>2359.1</ele>
        <time>2014-01-26T11:43:20Z</time>
      </trkpt>
      <trkpt lat="45.33509" lon="6.55933">
        <ele>2364.98</ele>
        <time>2014-01-26T11:43:30Z</time>
      </trkpt>
      <trkpt lat="45.33521" lon="6.55987">
        <ele>2374.01</ele>
        <time>2014-01-26T11:43:40Z</time>
      </trkpt>
      <trkpt lat="45.33532" lon="6.56037">
        <ele>2385.46</ele>
        <time>2014-01-26T11:43:49Z</time>
      </trkpt>
      <trkpt lat="45.33542" lon="6.56093">
        <ele>2399.23</ele>
        <time>2014-01-26T11:43:59Z</time>
      </trkpt>
      <trkpt lat="45.33555" lon="6.56146">
        <ele>2409.73</ele>
        <time>2014-01-26T11:44:09Z</time>
      </trkpt>
      <trkpt lat="45.33569" lon="6.56203">
        <ele>2428.8</ele>
        <time>2014-01-26T11:44:20Z</time>
      </trkpt>
      <trkpt lat="45.3358" lon="6.56256">
        <ele>2449.03</ele>
        <time>2014-01-26T11:44:30Z</time>
      </trkpt>
      <trkpt lat="45.33593" lon="6.56307">
        <ele>2460.15</ele>
        <time>2014-01-26T11:44:41Z</time>
      </trkpt>
      <trkpt lat="45.33608" lon="6.56359">
        <ele>2460.61</ele>
        <time>2014-01-26T11:44:51Z</time>
      </trkpt>
      <trkpt lat="45.33623" lon="6.56416">
        <ele>2469.83</ele>
        <time>2014-01-26T11:45:01Z</time>
      </trkpt>
      <trkpt lat="45.33638" lon="6.56465">
        <ele>2483.85</ele>
        <time>2014-01-26T11:45:11Z</time>
      </trkpt>
      <trkpt lat="45.33648" lon="6.56518">
        <ele>2498.91</ele>
        <time>2014-01-26T11:45:22Z</time>
      </trkpt>
      <trkpt lat="45.33656" lon="6.56575">
        <ele>2519.42</ele>
        <time>2014-01-26T11:45:32Z</time>
      </trkpt>
      <trkpt lat="45.33668" lon="6.5663">
        <ele>2541.7</ele>
        <time>2014-01-26T11:45:43Z</time>
      </trkpt>
      <trkpt lat="45.33687" lon="6.56675">
        <ele>2555.18</ele>
        <time>2014-01-26T11:45:53Z</time>
      </trkpt>
      <trkpt lat="45.33709" lon="6.56727">
        <ele>2569.65</ele>
        <time>2014-01-26T11:46:03Z</time>
      </trkpt>
      <trkpt lat="45.33727" lon="6.56776">
        <ele>2580.4</ele>
        <time>2014-01-26T11:46:13Z</time>
      </trkpt>
      <trkpt lat="45.33742" lon="6.56824">
        <ele>2591.47</ele>
        <time>2014-01-26T11:46:23Z</time>
      </trkpt>
      <trkpt lat="45.33748" lon="6.56883">
        <ele>2611.69</ele>
        <time>2014-01-26T11:46:30Z</time>
      </trkpt>
      <trkpt lat="45.33735" lon="6.56934">
        <ele>2630.79</ele>
        <time>2014-01-26T11:46:39Z</time>
      </trkpt>
      <trkpt lat="45.33734" lon="6.56989">
        <ele>2650.81</ele>
        <time>2014-01-26T11:46:51Z</time>
      </trkpt>
      <trkpt lat="45.33742" lon="6.57043">
        <ele>2663.24</ele>
        <time>2014-01-26T11:47:03Z</time>
      </trkpt>
      <trkpt lat="45.33748" lon="6.57098">
        <ele>2683.11</ele>
        <time>2014-01-26T11:47:21Z</time>
      </trkpt>
      <trkpt lat="45.33761" lon="6.57156">
        <ele>2688.5</ele>
        <time>2014-01-26T11:48:35Z</time>
      </trkpt>
      <trkpt lat="45.33765" lon="6.57209">
        <ele>2680.93</ele>
        <time>2014-01-26T11:48:52Z</time>
      </trkpt>
      <trkpt lat="45.33726" lon="6.57187">
        <ele>2663.86</ele>
        <time>2014-01-26T11:49:04Z</time>
      </trkpt>
      <trkpt lat="45.33695" lon="6.57144">
        <ele>2659.78</ele>
        <time>2014-01-26T11:49:11Z</time>
      </trkpt>
      <trkpt lat="45.33663" lon="6.57103">
        <ele>2649.2</ele>
        <time>2014-01-26T11:49:19Z</time>
      </trkpt>
      <trkpt lat="45.33631" lon="6.57075">
        <ele>2639.29</ele>
        <time>2014-01-26T11:49:26Z</time>
      </trkpt>
      <trkpt lat="45.3359" lon="6.57058">
        <ele>2625.89</ele>
        <time>2014-01-26T11:49:34Z</time>
      </trkpt>
      <trkpt lat="45.33549" lon="6.57054">
        <ele>2619.8</ele>
        <time>2014-01-26T11:49:40Z</time>
      </trkpt>
      <trkpt lat="45.33501" lon="6.57058">
        <ele>2621.23</ele>
        <time>2014-01-26T11:49:46Z</time>
      </trkpt>
      <trkpt lat="45.3348" lon="6.57101">
        <ele>2621.99</ele>
        <time>2014-01-26T11:50:02Z</time>
      </trkpt>
      <trkpt lat="45.33503" lon="6.57144">
        <ele>2628.3</ele>
        <time>2014-01-26T11:50:45Z</time>
      </trkpt>
      <trkpt lat="45.33526" lon="6.5719">
        <ele>2609.92</ele>
        <time>2014-01-26T11:50:51Z</time>
      </trkpt>
      <trkpt lat="45.33532" lon="6.57245">
        <ele>2591.64</ele>
        <time>2014-01-26T11:50:58Z</time>
      </trkpt>
      <trkpt lat="45.33501" lon="6.57279">
        <ele>2583.67</ele>
        <time>2014-01-26T11:51:04Z</time>
      </trkpt>
      <trkpt lat="45.33468" lon="6.57301">
        <ele>2589.59</ele>
        <time>2014-01-26T11:51:18Z</time>
      </trkpt>
      <trkpt lat="45.33435" lon="6.57325">
        <ele>2581.78</ele>
        <time>2014-01-26T11:51:34Z</time>
      </trkpt>
      <trkpt lat="45.33401" lon="6.57359">
        <ele>2569.83</ele>
        <time>2014-01-26T11:51:42Z</time>
      </trkpt>
      <trkpt lat="45.33388" lon="6.57406">
        <ele>2556.53</ele>
        <time>2014-01-26T11:51:50Z</time>
      </trkpt>
      <trkpt lat="45.33401" lon="6.57463">
        <ele>2541.77</ele>
        <time>2014-01-26T11:52:00Z</time>
      </trkpt>
      <trkpt lat="45.33378" lon="6.57512">
        <ele>2526.85</ele>
        <time>2014-01-26T11:52:07Z</time>
      </trkpt>
      <trkpt lat="45.33346" lon="6.57551">
        <ele>2522.64</ele>
        <time>2014-01-26T11:52:15Z</time>
      </trkpt>
      <trkpt lat="45.33308" lon="6.57574">
        <ele>2515.03</ele>
        <time>2014-01-26T11:52:21Z</time>
      </trkpt>
      <trkpt lat="45.33266" lon="6.57593">
        <ele>2505.37</ele>
        <time>2014-01-26T11:52:27Z</time>
      </trkpt>
      <trkpt lat="45.33225" lon="6.57598">
        <ele>2500.77</ele>
        <time>2014-01-26T11:52:33Z</time>
      </trkpt>
      <trkpt lat="45.33186" lon="6.57611">
        <ele>2498.45</ele>
        <time>2014-01-26T11:52:38Z</time>
      </trkpt>
      <trkpt lat="45.33152" lon="6.57635">
        <ele>2498.98</ele>
        <time>2014-01-26T11:52:46Z</time>
      </trkpt>
      <trkpt lat="45.33191" lon="6.57628">
        <ele>2491.32</ele>
        <time>2014-01-26T11:53:25Z</time>
      </trkpt>
      <trkpt lat="45.33216" lon="6.57663">
        <ele>2473.62</ele>
        <time>2014-01-26T11:53:38Z</time>
      </trkpt>
      <trkpt lat="45.33257" lon="6.57683">
        <ele>2458.64</ele>
        <time>2014-01-26T11:53:48Z</time>
      </trkpt>
      <trkpt lat="45.33288" lon="6.57718">
        <ele>2441.17</ele>
        <time>2014-01-26T11:54:02Z</time>
      </trkpt>
      <trkpt lat="45.33286" lon="6.57738">
        <ele>2433.07</ele>
        <time>2014-01-26T11:54:14Z</time>
      </trkpt>
      <trkpt lat="45.33319" lon="6.57759">
        <ele>2421.1</ele>
        <time>2014-01-26T11:54:27Z</time>
      </trkpt>
      <trkpt lat="45.33339" lon="6.57804">
        <ele>2402.98</ele>
        <time>2014-01-26T11:54:50Z</time>
      </trkpt>
      <trkpt lat="45.33348" lon="6.57859">
        <ele>2388.94</ele>
        <time>2014-01-26T11:55:02Z</time>
      </trkpt>
      <trkpt lat="45.33362" lon="6.5792">
        <ele>2376.42</ele>
        <time>2014-01-26T11:55:09Z</time>
      </trkpt>
      <trkpt lat="45.33384" lon="6.57977">
        <ele>2365.51</ele>
        <time>2014-01-26T11:55:16Z</time>
      </trkpt>
      <trkpt lat="45.33414" lon="6.58027">
        <ele>2353.62</ele>
        <time>2014-01-26T11:55:24Z</time>
      </trkpt>
      <trkpt lat="45.33432" lon="6.58073">
        <ele>2348.52</ele>
        <time>2014-01-26T11:55:55Z</time>
      </trkpt>
      <trkpt lat="45.33461" lon="6.5811">
        <ele>2339.84</ele>
        <time>2014-01-26T11:56:03Z</time>
      </trkpt>
      <trkpt lat="45.33493" lon="6.58142">
        <ele>2330.83</ele>
        <time>2014-01-26T11:56:10Z</time>
      </trkpt>
      <trkpt lat="45.33532" lon="6.58175">
        <ele>2312.95</ele>
        <time>2014-01-26T11:56:18Z</time>
      </trkpt>
      <trkpt lat="45.3357" lon="6.58203">
        <ele>2305.93</ele>
        <time>2014-01-26T11:56:23Z</time>
      </trkpt>
      <trkpt lat="45.33614" lon="6.58216">
        <ele>2297.21</ele>
        <time>2014-01-26T11:56:28Z</time>
      </trkpt>
      <trkpt lat="45.33646" lon="6.5819">
        <ele>2299.28</ele>
        <time>2014-01-26T11:56:36Z</time>
      </trkpt>
      <trkpt lat="45.33689" lon="6.58179">
        <ele>2291.21</ele>
        <time>2014-01-26T11:57:09Z</time>
      </trkpt>
      <trkpt lat="45.33729" lon="6.58189">
        <ele>2283.8</ele>
        <time>2014-01-26T11:57:16Z</time>
      </trkpt>
      <trkpt lat="45.33762" lon="6.58223">
        <ele>2271.61</ele>
        <time>2014-01-26T11:57:24Z</time>
      </trkpt>
      <trkpt lat="45.33784" lon="6.58269">
        <ele>2256.57</ele>
        <time>2014-01-26T11:57:31Z</time>
      </trkpt>
      <trkpt lat="45.33762" lon="6.58316">
        <ele>2240.4</ele>
        <time>2014-01-26T11:57:37Z</time>
      </trkpt>
      <trkpt lat="45.33762" lon="6.58366">
        <ele>2226.16</ele>
        <time>2014-01-26T11:57:44Z</time>
      </trkpt>
      <trkpt lat="45.33753" lon="6.58418">
        <ele>2212.35</ele>
        <time>2014-01-26T11:57:50Z</time>
      </trkpt>
      <trkpt lat="45.33757" lon="6.58475">
        <ele>2198.13</ele>
        <time>2014-01-26T11:57:58Z</time>
      </trkpt>
      <trkpt lat="45.33778" lon="6.58518">
        <ele>2193.4</ele>
        <time>2014-01-26T11:58:21Z</time>
      </trkpt>
      <trkpt lat="45.33808" lon="6.5855">
        <ele>2190.98</ele>
        <time>2014-01-26T11:58:28Z</time>
      </trkpt>
      <trkpt lat="45.33838" lon="6.58595">
        <ele>2178.14</ele>
        <time>2014-01-26T11:58:35Z</time>
      </trkpt>
      <trkpt lat="45.33868" lon="6.58633">
        <ele>2167.99</ele>
        <time>2014-01-26T11:58:41Z</time>
      </trkpt>
      <trkpt lat="45.339" lon="6.58678">
        <ele>2154.63</ele>
        <time>2014-01-26T11:58:47Z</time>
      </trkpt>
      <trkpt lat="45.33936" lon="6.5872">
        <ele>2140.41</ele>
        <time>2014-01-26T11:58:53Z</time>
      </trkpt>
      <trkpt lat="45.33971" lon="6.58763">
        <ele>2131.68</ele>
        <time>2014-01-26T11:58:58Z</time>
      </trkpt>
      <trkpt lat="45.34004" lon="6.58796">
        <ele>2123.95</ele>
        <time>2014-01-26T11:59:02Z</time>
      </trkpt>
      <trkpt lat="45.34042" lon="6.58841">
        <ele>2116.79</ele>
        <time>2014-01-26T11:59:06Z</time>
      </trkpt>
      <trkpt lat="45.34072" lon="6.58889">
        <ele>2113.17</ele>
        <time>2014-01-26T11:59:11Z</time>
      </trkpt>
      <trkpt lat="45.34096" lon="6.58932">
        <ele>2111.63</ele>
        <time>2014-01-26T11:59:18Z</time>
      </trkpt>
      <trkpt lat="45.34119" lon="6.58972">
        <ele>2112.07</ele>
        <time>2014-01-26T11:59:40Z</time>
      </trkpt>
      <trkpt lat="45.34123" lon="6.5902">
        <ele>2112.02</ele>
        <time>2014-01-26T12:02:10Z</time>
      </trkpt>
      <trkpt lat="45.34091" lon="6.59066">
        <ele>2106.08</ele>
        <time>2014-01-26T12:02:18Z</time>
      </trkpt>
      <trkpt lat="45.34065" lon="6.59107">
        <ele>2104.15</ele>
        <time>2014-01-26T12:02:27Z</time>
      </trkpt>
      <trkpt lat="45.34039" lon="6.5915">
        <ele>2104.81</ele>
        <time>2014-01-26T12:02:37Z</time>
      </trkpt>
      <trkpt lat="45.34013" lon="6.59191">
        <ele>2106.49</ele>
        <time>2014-01-26T12:02:47Z</time>
      </trkpt>
      <trkpt lat="45.33988" lon="6.59232">
        <ele>2109.52</ele>
        <time>2014-01-26T12:02:57Z</time>
      </trkpt>
      <trkpt lat="45.33962" lon="6.59272">
        <ele>2125.05</ele>
        <time>2014-01-26T12:03:07Z</time>
      </trkpt>
      <trkpt lat="45.33936" lon="6.59313">
        <ele>2158.35</ele>
        <time>2014-01-26T12:03:17Z</time>
      </trkpt>
      <trkpt lat="45.33911" lon="6.59358">
        <ele>2190.73</ele>
        <time>2014-01-26T12:03:27Z</time>
      </trkpt>
      <trkpt lat="45.33884" lon="6.59401">
        <ele>2216.61</ele>
        <time>2014-01-26T12:03:38Z</time>
      </trkpt>
      <trkpt lat="45.33857" lon="6.59435">
        <ele>2236.25</ele>
        <time>2014-01-26T12:03:49Z</time>
      </trkpt>
      <trkpt lat="45.33831" lon="6.59478">
        <ele>2248.23</ele>
        <time>2014-01-26T12:04:00Z</time>
      </trkpt>
      <trkpt lat="45.33804" lon="6.59516">
        <ele>2265.27</ele>
        <time>2014-01-26T12:04:10Z</time>
      </trkpt>
      <trkpt lat="45.33778" lon="6.59554">
        <ele>2280.65</ele>
        <time>2014-01-26T12:04:20Z</time>
      </trkpt>
      <trkpt lat="45.33753" lon="6.59594">
        <ele>2292.07</ele>
        <time>2014-01-26T12:04:30Z</time>
      </trkpt>
      <trkpt lat="45.33728" lon="6.59637">
        <ele>2306.92</ele>
        <time>2014-01-26T12:04:40Z</time>
      </trkpt>
      <trkpt lat="45.33707" lon="6.59684">
        <ele>2324.83</ele>
        <time>2014-01-26T12:04:49Z</time>
      </trkpt>
      <trkpt lat="45.33679" lon="6.59723">
        <ele>2340.18</ele>
        <time>2014-01-26T12:05:00Z</time>
      </trkpt>
      <trkpt lat="45.33652" lon="6.59761">
        <ele>2358.17</ele>
        <time>2014-01-26T12:05:10Z</time>
      </trkpt>
      <trkpt lat="45.33624" lon="6.59798">
        <ele>2378.71</ele>
        <time>2014-01-26T12:05:20Z</time>
      </trkpt>
      <trkpt lat="45.33602" lon="6.5984">
        <ele>2396.84</ele>
        <time>2014-01-26T12:05:30Z</time>
      </trkpt>
      <trkpt lat="45.33576" lon="6.59884">
        <ele>2416.78</ele>
        <time>2014-01-26T12:05:40Z</time>
      </trkpt>
      <trkpt lat="45.33549" lon="6.59921">
        <ele>2438.53</ele>
        <time>2014-01-26T12:05:51Z</time>
      </trkpt>
      <trkpt lat="45.33518" lon="6.5996">
        <ele>2461.57</ele>
        <time>2014-01-26T12:06:04Z</time>
      </trkpt>
      <trkpt lat="45.33488" lon="6.59996">
        <ele>2482.31</ele>
        <time>2014-01-26T12:06:15Z</time>
      </trkpt>
      <trkpt lat="45.33465" lon="6.60041">
        <ele>2504.42</ele>
        <time>2014-01-26T12:06:27Z</time>
      </trkpt>
      <trkpt lat="45.33436" lon="6.60082">
        <ele>2527.57</ele>
        <time>2014-01-26T12:06:38Z</time>
      </trkpt>
      <trkpt lat="45.3341" lon="6.60122">
        <ele>2549.38</ele>
        <time>2014-01-26T12:06:49Z</time>
      </trkpt>
      <trkpt lat="45.33384" lon="6.60163">
        <ele>2574.2</ele>
        <time>2014-01-26T12:07:00Z</time>
      </trkpt>
      <trkpt lat="45.3336" lon="6.60208">
        <ele>2594.79</ele>
        <time>2014-01-26T12:07:11Z</time>
      </trkpt>
      <trkpt lat="45.33331" lon="6.60243">
        <ele>2613.4</ele>
        <time>2014-01-26T12:07:22Z</time>
      </trkpt>
      <trkpt lat="45.33307" lon="6.60283">
        <ele>2622.94</ele>
        <time>2014-01-26T12:07:33Z</time>
      </trkpt>
      <trkpt lat="45.33278" lon="6.60321">
        <ele>2630.1</ele>
        <time>2014-01-26T12:07:44Z</time>
      </trkpt>
      <trkpt lat="45.33254" lon="6.60363">
        <ele>2655.88</ele>
        <time>2014-01-26T12:07:55Z</time>
      </trkpt>
      <trkpt lat="45.33226" lon="6.60404">
        <ele>2682.19</ele>
        <time>2014-01-26T12:08:06Z</time>
      </trkpt>
      <trkpt lat="45.33204" lon="6.60448">
        <ele>2706</ele>
        <time>2014-01-26T12:08:17Z</time>
      </trkpt>
      <trkpt lat="45.33181" lon="6.60496">
        <ele>2738.31</ele>
        <time>2014-01-26T12:08:28Z</time>
      </trkpt>
      <trkpt lat="45.33159" lon="6.60546">
        <ele>2765.57</ele>
        <time>2014-01-26T12:08:38Z</time>
      </trkpt>
      <trkpt lat="45.33134" lon="6.6059">
        <ele>2790.86</ele>
        <time>2014-01-26T12:08:49Z</time>
      </trkpt>
      <trkpt lat="45.33102" lon="6.60621">
        <ele>2814.19</ele>
        <time>2014-01-26T12:08:59Z</time>
      </trkpt>
      <trkpt lat="45.33071" lon="6.60655">
        <ele>2838.5</ele>
        <time>2014-01-26T12:09:10Z</time>
      </trkpt>
      <trkpt lat="45.33044" lon="6.60699">
        <ele>2867.2</ele>
        <time>2014-01-26T12:09:22Z</time>
      </trkpt>
      <trkpt lat="45.33011" lon="6.60739">
        <ele>2898.5</ele>
        <time>2014-01-26T12:09:35Z</time>
      </trkpt>
      <trkpt lat="45.32983" lon="6.60777">
        <ele>2929.06</ele>
        <time>2014-01-26T12:09:48Z</time>
      </trkpt>
      <trkpt lat="45.32958" lon="6.60822">
        <ele>2928.25</ele>
        <time>2014-01-26T12:09:58Z</time>
      </trkpt>
      <trkpt lat="45.32927" lon="6.60861">
        <ele>2925.76</ele>
        <time>2014-01-26T12:10:08Z</time>
      </trkpt>
      <trkpt lat="45.32898" lon="6.60899">
        <ele>2922</ele>
        <time>2014-01-26T12:10:18Z</time>
      </trkpt>
      <trkpt lat="45.32872" lon="6.60942">
        <ele>2931.09</ele>
        <time>2014-01-26T12:10:28Z</time>
      </trkpt>
      <trkpt lat="45.32864" lon="6.60937">
        <ele>2935.49</ele>
        <time>2014-01-26T12:12:45Z</time>
      </trkpt>
      <trkpt lat="45.32895" lon="6.609">
        <ele>2923.42</ele>
        <time>2014-01-26T12:12:55Z</time>
      </trkpt>
      <trkpt lat="45.32932" lon="6.60871">
        <ele>2915.7</ele>
        <time>2014-01-26T12:13:03Z</time>
      </trkpt>
      <trkpt lat="45.32967" lon="6.60852">
        <ele>2905.33</ele>
        <time>2014-01-26T12:13:17Z</time>
      </trkpt>
      <trkpt lat="45.32967" lon="6.60906">
        <ele>2877.88</ele>
        <time>2014-01-26T12:13:27Z</time>
      </trkpt>
      <trkpt lat="45.32978" lon="6.60934">
        <ele>2863.51</ele>
        <time>2014-01-26T12:13:36Z</time>
      </trkpt>
      <trkpt lat="45.32996" lon="6.60983">
        <ele>2845.22</ele>
        <time>2014-01-26T12:13:45Z</time>
      </trkpt>
      <trkpt lat="45.32985" lon="6.61035">
        <ele>2838.76</ele>
        <time>2014-01-26T12:13:56Z</time>
      </trkpt>
      <trkpt lat="45.32987" lon="6.61089">
        <ele>2819.11</ele>
        <time>2014-01-26T12:14:07Z</time>
      </trkpt>
      <trkpt lat="45.33011" lon="6.61118">
        <ele>2798.15</ele>
        <time>2014-01-26T12:14:23Z</time>
      </trkpt>
      <trkpt lat="45.33012" lon="6.61173">
        <ele>2797.56</ele>
        <time>2014-01-26T12:14:31Z</time>
      </trkpt>
      <trkpt lat="45.33049" lon="6.61169">
        <ele>2773.53</ele>
        <time>2014-01-26T12:14:42Z</time>
      </trkpt>
      <trkpt lat="45.33089" lon="6.61156">
        <ele>2759.66</ele>
        <time>2014-01-26T12:14:50Z</time>
      </trkpt>
      <trkpt lat="45.33129" lon="6.61141">
        <ele>2745.89</ele>
        <time>2014-01-26T12:14:55Z</time>
      </trkpt>
      <trkpt lat="45.33164" lon="6.6112">
        <ele>2739.79</ele>
        <time>2014-01-26T12:15:01Z</time>
      </trkpt>
      <trkpt lat="45.33194" lon="6.61081">
        <ele>2730.03</ele>
        <time>2014-01-26T12:15:09Z</time>
      </trkpt>
      <trkpt lat="45.3323" lon="6.61053">
        <ele>2716.98</ele>
        <time>2014-01-26T12:15:18Z</time>
      </trkpt>
      <trkpt lat="45.33262" lon="6.61033">
        <ele>2701.88</ele>
        <time>2014-01-26T12:15:28Z</time>
      </trkpt>
      <trkpt lat="45.33297" lon="6.61051">
        <ele>2688.99</ele>
        <time>2014-01-26T12:15:40Z</time>
      </trkpt>
      <trkpt lat="45.33332" lon="6.61075">
        <ele>2674.6</ele>
        <time>2014-01-26T12:15:50Z</time>
      </trkpt>
      <trkpt lat="45.33367" lon="6.61062">
        <ele>2665.62</ele>
        <time>2014-01-26T12:16:33Z</time>
      </trkpt>
      <trkpt lat="45.33401" lon="6.61035">
        <ele>2644.17</ele>
        <time>2014-01-26T12:16:43Z</time>
      </trkpt>
      <trkpt lat="45.33412" lon="6.60981">
        <ele>2622.93</ele>
        <time>2014-01-26T12:16:54Z</time>
      </trkpt>
      <trkpt lat="45.33397" lon="6.60933">
        <ele>2607.24</ele>
        <time>2014-01-26T12:17:06Z</time>
      </trkpt>
      <trkpt lat="45.33404" lon="6.6087">
        <ele>2594.11</ele>
        <time>2014-01-26T12:17:15Z</time>
      </trkpt>
      <trkpt lat="45.33426" lon="6.60819">
        <ele>2584.46</ele>
        <time>2014-01-26T12:17:23Z</time>
      </trkpt>
      <trkpt lat="45.33457" lon="6.6078">
        <ele>2570.35</ele>
        <time>2014-01-26T12:17:30Z</time>
      </trkpt>
      <trkpt lat="45.33482" lon="6.60732">
        <ele>2564.38</ele>
        <time>2014-01-26T12:17:39Z</time>
      </trkpt>
      <trkpt lat="45.3351" lon="6.60696">
        <ele>2548.68</ele>
        <time>2014-01-26T12:17:48Z</time>
      </trkpt>
      <trkpt lat="45.33533" lon="6.60653">
        <ele>2531.75</ele>
        <time>2014-01-26T12:17:56Z</time>
      </trkpt>
      <trkpt lat="45.33545" lon="6.606">
        <ele>2523.23</ele>
        <time>2014-01-26T12:18:04Z</time>
      </trkpt>
      <trkpt lat="45.33576" lon="6.60563">
        <ele>2510.2</ele>
        <time>2014-01-26T12:18:12Z</time>
      </trkpt>
      <trkpt lat="45.33613" lon="6.60542">
        <ele>2490.11</ele>
        <time>2014-01-26T12:18:22Z</time>
      </trkpt>
      <trkpt lat="45.33641" lon="6.60503">
        <ele>2475.51</ele>
        <time>2014-01-26T12:18:32Z</time>
      </trkpt>
      <trkpt lat="45.33675" lon="6.60478">
        <ele>2459.93</ele>
        <time>2014-01-26T12:18:43Z</time>
      </trkpt>
      <trkpt lat="45.337" lon="6.60433">
        <ele>2446.12</ele>
        <time>2014-01-26T12:18:53Z</time>
      </trkpt>
      <trkpt lat="45.33728" lon="6.6039">
        <ele>2436.81</ele>
        <time>2014-01-26T12:19:02Z</time>
      </trkpt>
      <trkpt lat="45.33764" lon="6.60363">
        <ele>2419.52</ele>
        <time>2014-01-26T12:19:15Z</time>
      </trkpt>
      <trkpt lat="45.33807" lon="6.60346">
        <ele>2399.4</ele>
        <time>2014-01-26T12:19:27Z</time>
      </trkpt>
      <trkpt lat="45.33846" lon="6.60357">
        <ele>2380.77</ele>
        <time>2014-01-26T12:19:39Z</time>
      </trkpt>
      <trkpt lat="45.33876" lon="6.60341">
        <ele>2364.9</ele>
        <time>2014-01-26T12:19:48Z</time>
      </trkpt>
      <trkpt lat="45.33903" lon="6.60318">
        <ele>2349.65</ele>
        <time>2014-01-26T12:19:56Z</time>
      </trkpt>
      <trkpt lat="45.33936" lon="6.60296">
        <ele>2337.28</ele>
        <time>2014-01-26T12:20:05Z</time>
      </trkpt>
      <trkpt lat="45.33964" lon="6.60281">
        <ele>2323.41</ele>
        <time>2014-01-26T12:20:13Z</time>
      </trkpt>
      <trkpt lat="45.33997" lon="6.60265">
        <ele>2305.2</ele>
        <time>2014-01-26T12:20:22Z</time>
      </trkpt>
      <trkpt lat="45.34032" lon="6.60244">
        <ele>2286.66</ele>
        <time>2014-01-26T12:20:31Z</time>
      </trkpt>
      <trkpt lat="45.34062" lon="6.60245">
        <ele>2277.63</ele>
        <time>2014-01-26T12:20:40Z</time>
      </trkpt>
      <trkpt lat="45.34097" lon="6.60225">
        <ele>2270.38</ele>
        <time>2014-01-26T12:20:51Z</time>
      </trkpt>
      <trkpt lat="45.3413" lon="6.60201">
        <ele>2254.06</ele>
        <time>2014-01-26T12:20:58Z</time>
      </trkpt>
      <trkpt lat="45.34164" lon="6.60171">
        <ele>2239.79</ele>
        <time>2014-01-26T12:21:03Z</time>
      </trkpt>
      <trkpt lat="45.34195" lon="6.60134">
        <ele>2236.44</ele>
        <time>2014-01-26T12:21:09Z</time>
      </trkpt>
      <trkpt lat="45.34226" lon="6.60099">
        <ele>2228.61</ele>
        <time>2014-01-26T12:21:16Z</time>
      </trkpt>
      <trkpt lat="45.34259" lon="6.60065">
        <ele>2225.4</ele>
        <time>2014-01-26T12:21:22Z</time>
      </trkpt>
      <trkpt lat="45.3429" lon="6.60034">
        <ele>2222.06</ele>
        <time>2014-01-26T12:21:31Z</time>
      </trkpt>
      <trkpt lat="45.34319" lon="6.60003">
        <ele>2210.17</ele>
        <time>2014-01-26T12:23:22Z</time>
      </trkpt>
      <trkpt lat="45.34357" lon="6.59973">
        <ele>2186.04</ele>
        <time>2014-01-26T12:23:30Z</time>
      </trkpt>
      <trkpt lat="45.34388" lon="6.5994">
        <ele>2164.48</ele>
        <time>2014-01-26T12:23:46Z</time>
      </trkpt>
      <trkpt lat="45.34399" lon="6.59884">
        <ele>2146.88</ele>
        <time>2014-01-26T12:23:54Z</time>
      </trkpt>
      <trkpt lat="45.34426" lon="6.59842">
        <ele>2135.21</ele>
        <time>2014-01-26T12:24:00Z</time>
      </trkpt>
      <trkpt lat="45.34451" lon="6.59793">
        <ele>2121.24</ele>
        <time>2014-01-26T12:24:06Z</time>
      </trkpt>
      <trkpt lat="45.34471" lon="6.59749">
        <ele>2108.3</ele>
        <time>2014-01-26T12:24:12Z</time>
      </trkpt>
      <trkpt lat="45.34486" lon="6.59704">
        <ele>2097.64</ele>
        <time>2014-01-26T12:24:18Z</time>
      </trkpt>
      <trkpt lat="45.345" lon="6.59663">
        <ele>2089.1</ele>
        <time>2014-01-26T12:24:24Z</time>
      </trkpt>
      <trkpt lat="45.34529" lon="6.59632">
        <ele>2069.9</ele>
        <time>2014-01-26T12:24:32Z</time>
      </trkpt>
      <trkpt lat="45.34561" lon="6.59612">
        <ele>2058.33</ele>
        <time>2014-01-26T12:24:39Z</time>
      </trkpt>
      <trkpt lat="45.34565" lon="6.5956">
        <ele>2040.39</ele>
        <time>2014-01-26T12:24:45Z</time>
      </trkpt>
      <trkpt lat="45.34592" lon="6.59507">
        <ele>2020.63</ele>
        <time>2014-01-26T12:24:51Z</time>
      </trkpt>
      <trkpt lat="45.34601" lon="6.59453">
        <ele>2015.7</ele>
        <time>2014-01-26T12:24:56Z</time>
      </trkpt>
      <trkpt lat="45.346" lon="6.59391">
        <ele>2004.45</ele>
        <time>2014-01-26T12:25:03Z</time>
      </trkpt>
      <trkpt lat="45.34607" lon="6.59322">
        <ele>1979.54</ele>
        <time>2014-01-26T12:25:09Z</time>
      </trkpt>
      <trkpt lat="45.3464" lon="6.59269">
        <ele>1977.99</ele>
        <time>2014-01-26T12:25:15Z</time>
      </trkpt>
      <trkpt lat="45.3468" lon="6.59268">
        <ele>1965.8</ele>
        <time>2014-01-26T12:25:19Z</time>
      </trkpt>
      <trkpt lat="45.34724" lon="6.59274">
        <ele>1957.04</ele>
        <time>2014-01-26T12:25:23Z</time>
      </trkpt>
      <trkpt lat="45.34767" lon="6.59287">
        <ele>1953.32</ele>
        <time>2014-01-26T12:25:28Z</time>
      </trkpt>
      <trkpt lat="45.34818" lon="6.59282">
        <ele>1946.84</ele>
        <time>2014-01-26T12:25:34Z</time>
      </trkpt>
      <trkpt lat="45.34862" lon="6.59268">
        <ele>1944.67</ele>
        <time>2014-01-26T12:25:39Z</time>
      </trkpt>
      <trkpt lat="45.34891" lon="6.59226">
        <ele>1941.51</ele>
        <time>2014-01-26T12:25:45Z</time>
      </trkpt>
      <trkpt lat="45.34924" lon="6.59187">
        <ele>1922.33</ele>
        <time>2014-01-26T12:25:50Z</time>
      </trkpt>
      <trkpt lat="45.34959" lon="6.59146">
        <ele>1919.26</ele>
        <time>2014-01-26T12:25:56Z</time>
      </trkpt>
      <trkpt lat="45.34983" lon="6.59198">
        <ele>1905.59</ele>
        <time>2014-01-26T12:26:14Z</time>
      </trkpt>
      <trkpt lat="45.34966" lon="6.59229">
        <ele>1906.92</ele>
        <time>2014-01-26T12:27:04Z</time>
      </trkpt>
      <trkpt lat="45.34928" lon="6.59222">
        <ele>1917.9</ele>
        <time>2014-01-26T12:27:19Z</time>
      </trkpt>
      <trkpt lat="45.3489" lon="6.59215">
        <ele>1944.47</ele>
        <time>2014-01-26T12:27:33Z</time>
      </trkpt>
      <trkpt lat="45.34851" lon="6.59206">
        <ele>1962.8</ele>
        <time>2014-01-26T12:27:49Z</time>
      </trkpt>
      <trkpt lat="45.34812" lon="6.59197">
        <ele>1970.69</ele>
        <time>2014-01-26T12:28:03Z</time>
      </trkpt>
      <trkpt lat="45.34774" lon="6.59187">
        <ele>1980.81</ele>
        <time>2014-01-26T12:28:17Z</time>
      </trkpt>
      <trkpt lat="45.34736" lon="6.59178">
        <ele>1987.17</ele>
        <time>2014-01-26T12:28:31Z</time>
      </trkpt>
      <trkpt lat="45.34697" lon="6.59169">
        <ele>1988.57</ele>
        <time>2014-01-26T12:28:44Z</time>
      </trkpt>
      <trkpt lat="45.34656" lon="6.59162">
        <ele>1996.93</ele>
        <time>2014-01-26T12:28:58Z</time>
      </trkpt>
      <trkpt lat="45.34616" lon="6.59154">
        <ele>2009.43</ele>
        <time>2014-01-26T12:29:12Z</time>
      </trkpt>
      <trkpt lat="45.34578" lon="6.59146">
        <ele>2016.61</ele>
        <time>2014-01-26T12:29:25Z</time>
      </trkpt>
      <trkpt lat="45.34539" lon="6.59137">
        <ele>2020.18</ele>
        <time>2014-01-26T12:29:39Z</time>
      </trkpt>
      <trkpt lat="45.34502" lon="6.5913">
        <ele>2021.15</ele>
        <time>2014-01-26T12:29:52Z</time>
      </trkpt>
      <trkpt lat="45.34464" lon="6.5912">
        <ele>2029.55</ele>
        <time>2014-01-26T12:30:06Z</time>
      </trkpt>
      <trkpt lat="45.34424" lon="6.59112">
        <ele>2046.41</ele>
        <time>2014-01-26T12:30:20Z</time>
      </trkpt>
      <trkpt lat="45.34386" lon="6.59103">
        <ele>2069.27</ele>
        <time>2014-01-26T12:30:34Z</time>
      </trkpt>
      <trkpt lat="45.34346" lon="6.59094">
        <ele>2093.45</ele>
        <time>2014-01-26T12:30:50Z</time>
      </trkpt>
      <trkpt lat="45.34305" lon="6.59085">
        <ele>2106.8</ele>
        <time>2014-01-26T12:31:05Z</time>
      </trkpt>
      <trkpt lat="45.34268" lon="6.59078">
        <ele>2118.41</ele>
        <time>2014-01-26T12:31:18Z</time>
      </trkpt>
      <trkpt lat="45.34232" lon="6.59073">
        <ele>2120</ele>
        <time>2014-01-26T12:31:30Z</time>
      </trkpt>
      <trkpt lat="45.34199" lon="6.59048">
        <ele>2120</ele>
        <time>2014-01-26T12:31:46Z</time>
      </trkpt>
      <trkpt lat="45.34164" lon="6.59011">
        <ele>2119.53</ele>
        <time>2014-01-26T12:31:56Z</time>
      </trkpt>
      <trkpt lat="45.3413" lon="6.59006">
        <ele>2113.73</ele>
        <time>2014-01-26T12:33:06Z</time>
      </trkpt>
      <trkpt lat="45.3411" lon="6.59055">
        <ele>2107.97</ele>
        <time>2014-01-26T12:34:03Z</time>
      </trkpt>
      <trkpt lat="45.34085" lon="6.59098">
        <ele>2104.49</ele>
        <time>2014-01-26T12:34:11Z</time>
      </trkpt>
      <trkpt lat="45.34053" lon="6.59138">
        <ele>2104.2</ele>
        <time>2014-01-26T12:34:20Z</time>
      </trkpt>
      <trkpt lat="45.34024" lon="6.59172">
        <ele>2105.47</ele>
        <time>2014-01-26T12:34:30Z</time>
      </trkpt>
      <trkpt lat="45.33992" lon="6.59211">
        <ele>2107.89</ele>
        <time>2014-01-26T12:34:40Z</time>
      </trkpt>
      <trkpt lat="45.33965" lon="6.59255">
        <ele>2117.94</ele>
        <time>2014-01-26T12:34:50Z</time>
      </trkpt>
      <trkpt lat="45.33938" lon="6.59296">
        <ele>2147.27</ele>
        <time>2014-01-26T12:35:00Z</time>
      </trkpt>
      <trkpt lat="45.33912" lon="6.59336">
        <ele>2179.34</ele>
        <time>2014-01-26T12:35:10Z</time>
      </trkpt>
      <trkpt lat="45.33887" lon="6.59376">
        <ele>2207.2</ele>
        <time>2014-01-26T12:35:20Z</time>
      </trkpt>
      <trkpt lat="45.33853" lon="6.59412">
        <ele>2232.73</ele>
        <time>2014-01-26T12:35:30Z</time>
      </trkpt>
      <trkpt lat="45.33824" lon="6.59444">
        <ele>2247.25</ele>
        <time>2014-01-26T12:35:39Z</time>
      </trkpt>
      <trkpt lat="45.33798" lon="6.59484">
        <ele>2263.22</ele>
        <time>2014-01-26T12:35:49Z</time>
      </trkpt>
      <trkpt lat="45.33771" lon="6.59522">
        <ele>2277.38</ele>
        <time>2014-01-26T12:35:59Z</time>
      </trkpt>
      <trkpt lat="45.33748" lon="6.59564">
        <ele>2286.55</ele>
        <time>2014-01-26T12:36:10Z</time>
      </trkpt>
      <trkpt lat="45.33723" lon="6.5961">
        <ele>2297.83</ele>
        <time>2014-01-26T12:36:22Z</time>
      </trkpt>
      <trkpt lat="45.33697" lon="6.59648">
        <ele>2311.99</ele>
        <time>2014-01-26T12:36:32Z</time>
      </trkpt>
      <trkpt lat="45.33671" lon="6.59689">
        <ele>2328.8</ele>
        <time>2014-01-26T12:36:44Z</time>
      </trkpt>
      <trkpt lat="45.33649" lon="6.59735">
        <ele>2350.05</ele>
        <time>2014-01-26T12:36:54Z</time>
      </trkpt>
      <trkpt lat="45.33632" lon="6.59791">
        <ele>2373.47</ele>
        <time>2014-01-26T12:37:05Z</time>
      </trkpt>
      <trkpt lat="45.33602" lon="6.59824">
        <ele>2393.59</ele>
        <time>2014-01-26T12:37:17Z</time>
      </trkpt>
      <trkpt lat="45.33578" lon="6.59865">
        <ele>2410.74</ele>
        <time>2014-01-26T12:37:29Z</time>
      </trkpt>
      <trkpt lat="45.33555" lon="6.59914">
        <ele>2433.47</ele>
        <time>2014-01-26T12:37:41Z</time>
      </trkpt>
      <trkpt lat="45.33527" lon="6.59961">
        <ele>2456.93</ele>
        <time>2014-01-26T12:37:52Z</time>
      </trkpt>
      <trkpt lat="45.33499" lon="6.59994">
        <ele>2477.7</ele>
        <time>2014-01-26T12:38:02Z</time>
      </trkpt>
      <trkpt lat="45.33463" lon="6.60029">
        <ele>2501.77</ele>
        <time>2014-01-26T12:38:12Z</time>
      </trkpt>
      <trkpt lat="45.33433" lon="6.60062">
        <ele>2521.92</ele>
        <time>2014-01-26T12:38:21Z</time>
      </trkpt>
      <trkpt lat="45.33402" lon="6.60105">
        <ele>2547.61</ele>
        <time>2014-01-26T12:38:33Z</time>
      </trkpt>
      <trkpt lat="45.33375" lon="6.60143">
        <ele>2570.65</ele>
        <time>2014-01-26T12:38:42Z</time>
      </trkpt>
      <trkpt lat="45.33343" lon="6.60178">
        <ele>2590.08</ele>
        <time>2014-01-26T12:38:52Z</time>
      </trkpt>
      <trkpt lat="45.3331" lon="6.60213">
        <ele>2611.72</ele>
        <time>2014-01-26T12:39:02Z</time>
      </trkpt>
      <trkpt lat="45.3328" lon="6.60248">
        <ele>2627.95</ele>
        <time>2014-01-26T12:39:11Z</time>
      </trkpt>
      <trkpt lat="45.33253" lon="6.60291">
        <ele>2639.7</ele>
        <time>2014-01-26T12:39:23Z</time>
      </trkpt>
      <trkpt lat="45.33231" lon="6.60335">
        <ele>2663.21</ele>
        <time>2014-01-26T12:39:35Z</time>
      </trkpt>
      <trkpt lat="45.33208" lon="6.6038">
        <ele>2686.61</ele>
        <time>2014-01-26T12:39:47Z</time>
      </trkpt>
      <trkpt lat="45.33184" lon="6.60423">
        <ele>2711.96</ele>
        <time>2014-01-26T12:40:00Z</time>
      </trkpt>
      <trkpt lat="45.33164" lon="6.6047">
        <ele>2740.05</ele>
        <time>2014-01-26T12:40:11Z</time>
      </trkpt>
      <trkpt lat="45.3314" lon="6.60513">
        <ele>2755.21</ele>
        <time>2014-01-26T12:40:22Z</time>
      </trkpt>
      <trkpt lat="45.33117" lon="6.60553">
        <ele>2769.56</ele>
        <time>2014-01-26T12:40:34Z</time>
      </trkpt>
      <trkpt lat="45.33089" lon="6.60596">
        <ele>2801.99</ele>
        <time>2014-01-26T12:40:46Z</time>
      </trkpt>
      <trkpt lat="45.33069" lon="6.60641">
        <ele>2832.22</ele>
        <time>2014-01-26T12:40:57Z</time>
      </trkpt>
      <trkpt lat="45.33045" lon="6.60682">
        <ele>2859.6</ele>
        <time>2014-01-26T12:41:08Z</time>
      </trkpt>
      <trkpt lat="45.3302" lon="6.60721">
        <ele>2888.1</ele>
        <time>2014-01-26T12:41:20Z</time>
      </trkpt>
      <trkpt lat="45.32992" lon="6.60765">
        <ele>2917.98</ele>
        <time>2014-01-26T12:41:32Z</time>
      </trkpt>
      <trkpt lat="45.32962" lon="6.60807">
        <ele>2935.39</ele>
        <time>2014-01-26T12:41:43Z</time>
      </trkpt>
      <trkpt lat="45.32934" lon="6.60849">
        <ele>2925.5</ele>
        <time>2014-01-26T12:41:53Z</time>
      </trkpt>
      <trkpt lat="45.32903" lon="6.60889">
        <ele>2921.98</ele>
        <time>2014-01-26T12:42:03Z</time>
      </trkpt>
      <trkpt lat="45.32881" lon="6.60934">
        <ele>2924.26</ele>
        <time>2014-01-26T12:42:14Z</time>
      </trkpt>
      <trkpt lat="45.32854" lon="6.60974">
        <ele>2923.78</ele>
        <time>2014-01-26T12:42:25Z</time>
      </trkpt>
      <trkpt lat="45.32872" lon="6.60926">
        <ele>2928.7</ele>
        <time>2014-01-26T12:44:30Z</time>
      </trkpt>
      <trkpt lat="45.32903" lon="6.60889">
        <ele>2921.96</ele>
        <time>2014-01-26T12:44:37Z</time>
      </trkpt>
      <trkpt lat="45.32938" lon="6.60865">
        <ele>2915.21</ele>
        <time>2014-01-26T12:44:43Z</time>
      </trkpt>
      <trkpt lat="45.32972" lon="6.60846">
        <ele>2905.91</ele>
        <time>2014-01-26T12:44:50Z</time>
      </trkpt>
      <trkpt lat="45.33001" lon="6.6081">
        <ele>2908.45</ele>
        <time>2014-01-26T12:45:00Z</time>
      </trkpt>
      <trkpt lat="45.33025" lon="6.60764">
        <ele>2892.49</ele>
        <time>2014-01-26T12:45:10Z</time>
      </trkpt>
      <trkpt lat="45.33048" lon="6.60715">
        <ele>2871.25</ele>
        <time>2014-01-26T12:45:17Z</time>
      </trkpt>
      <trkpt lat="45.33029" lon="6.60662">
        <ele>2853.32</ele>
        <time>2014-01-26T12:45:24Z</time>
      </trkpt>
      <trkpt lat="45.32993" lon="6.60641">
        <ele>2853.98</ele>
        <time>2014-01-26T12:45:33Z</time>
      </trkpt>
      <trkpt lat="45.3296" lon="6.60605">
        <ele>2847.15</ele>
        <time>2014-01-26T12:45:42Z</time>
      </trkpt>
      <trkpt lat="45.3293" lon="6.60563">
        <ele>2834.41</ele>
        <time>2014-01-26T12:45:51Z</time>
      </trkpt>
      <trkpt lat="45.32905" lon="6.60521">
        <ele>2822.56</ele>
        <time>2014-01-26T12:45:59Z</time>
      </trkpt>
      <trkpt lat="45.32904" lon="6.60485">
        <ele>2805.69</ele>
        <time>2014-01-26T12:46:19Z</time>
      </trkpt>
      <trkpt lat="45.32941" lon="6.60495">
        <ele>2796.19</ele>
        <time>2014-01-26T12:46:26Z</time>
      </trkpt>
      <trkpt lat="45.32978" lon="6.60491">
        <ele>2782.65</ele>
        <time>2014-01-26T12:46:32Z</time>
      </trkpt>
      <trkpt lat="45.33021" lon="6.60496">
        <ele>2779.58</ele>
        <time>2014-01-26T12:46:41Z</time>
      </trkpt>
      <trkpt lat="45.33062" lon="6.60483">
        <ele>2766.02</ele>
        <time>2014-01-26T12:46:49Z</time>
      </trkpt>
      <trkpt lat="45.33066" lon="6.60429">
        <ele>2755.47</ele>
        <time>2014-01-26T12:46:54Z</time>
      </trkpt>
      <trkpt lat="45.33051" lon="6.60381">
        <ele>2749.5</ele>
        <time>2014-01-26T12:46:58Z</time>
      </trkpt>
      <trkpt lat="45.33027" lon="6.60331">
        <ele>2748.3</ele>
        <time>2014-01-26T12:47:04Z</time>
      </trkpt>
      <trkpt lat="45.33002" lon="6.6029">
        <ele>2738.74</ele>
        <time>2014-01-26T12:47:10Z</time>
      </trkpt>
      <trkpt lat="45.3297" lon="6.60251">
        <ele>2730.29</ele>
        <time>2014-01-26T12:47:18Z</time>
      </trkpt>
      <trkpt lat="45.32938" lon="6.60215">
        <ele>2722.41</ele>
        <time>2014-01-26T12:47:27Z</time>
      </trkpt>
      <trkpt lat="45.32905" lon="6.60185">
        <ele>2711.76</ele>
        <time>2014-01-26T12:47:37Z</time>
      </trkpt>
      <trkpt lat="45.32886" lon="6.6014">
        <ele>2695.19</ele>
        <time>2014-01-26T12:47:49Z</time>
      </trkpt>
      <trkpt lat="45.32862" lon="6.601">
        <ele>2688.94</ele>
        <time>2014-01-26T12:47:58Z</time>
      </trkpt>
      <trkpt lat="45.32843" lon="6.6007">
        <ele>2677.21</ele>
        <time>2014-01-26T12:48:55Z</time>
      </trkpt>
      <trkpt lat="45.32826" lon="6.60024">
        <ele>2661.42</ele>
        <time>2014-01-26T12:49:04Z</time>
      </trkpt>
      <trkpt lat="45.32833" lon="6.59969">
        <ele>2646.14</ele>
        <time>2014-01-26T12:49:14Z</time>
      </trkpt>
      <trkpt lat="45.32851" lon="6.59934">
        <ele>2634.96</ele>
        <time>2014-01-26T12:49:22Z</time>
      </trkpt>
      <trkpt lat="45.32875" lon="6.59908">
        <ele>2617.99</ele>
        <time>2014-01-26T12:49:32Z</time>
      </trkpt>
      <trkpt lat="45.3291" lon="6.59897">
        <ele>2604.15</ele>
        <time>2014-01-26T12:49:38Z</time>
      </trkpt>
      <trkpt lat="45.32944" lon="6.59861">
        <ele>2590.12</ele>
        <time>2014-01-26T12:49:46Z</time>
      </trkpt>
      <trkpt lat="45.32974" lon="6.59829">
        <ele>2579.7</ele>
        <time>2014-01-26T12:49:55Z</time>
      </trkpt>
      <trkpt lat="45.33008" lon="6.59798">
        <ele>2564.63</ele>
        <time>2014-01-26T12:50:06Z</time>
      </trkpt>
      <trkpt lat="45.33042" lon="6.5978">
        <ele>2554.24</ele>
        <time>2014-01-26T12:50:13Z</time>
      </trkpt>
      <trkpt lat="45.33082" lon="6.59757">
        <ele>2545.51</ele>
        <time>2014-01-26T12:50:21Z</time>
      </trkpt>
      <trkpt lat="45.33121" lon="6.59741">
        <ele>2526.99</ele>
        <time>2014-01-26T12:50:47Z</time>
      </trkpt>
      <trkpt lat="45.33161" lon="6.59731">
        <ele>2508.01</ele>
        <time>2014-01-26T12:50:53Z</time>
      </trkpt>
      <trkpt lat="45.33203" lon="6.59709">
        <ele>2489</ele>
        <time>2014-01-26T12:50:59Z</time>
      </trkpt>
      <trkpt lat="45.33226" lon="6.59668">
        <ele>2470.46</ele>
        <time>2014-01-26T12:51:04Z</time>
      </trkpt>
      <trkpt lat="45.33235" lon="6.59612">
        <ele>2464.2</ele>
        <time>2014-01-26T12:51:08Z</time>
      </trkpt>
      <trkpt lat="45.33219" lon="6.59552">
        <ele>2459.88</ele>
        <time>2014-01-26T12:51:14Z</time>
      </trkpt>
      <trkpt lat="45.33204" lon="6.59497">
        <ele>2452.78</ele>
        <time>2014-01-26T12:51:20Z</time>
      </trkpt>
      <trkpt lat="45.33195" lon="6.59438">
        <ele>2437.79</ele>
        <time>2014-01-26T12:51:28Z</time>
      </trkpt>
      <trkpt lat="45.33184" lon="6.59383">
        <ele>2418.45</ele>
        <time>2014-01-26T12:51:36Z</time>
      </trkpt>
      <trkpt lat="45.33178" lon="6.59318">
        <ele>2391.63</ele>
        <time>2014-01-26T12:51:45Z</time>
      </trkpt>
      <trkpt lat="45.3317" lon="6.59268">
        <ele>2377.22</ele>
        <time>2014-01-26T12:51:52Z</time>
      </trkpt>
      <trkpt lat="45.33141" lon="6.59234">
        <ele>2364.99</ele>
        <time>2014-01-26T12:52:02Z</time>
      </trkpt>
      <trkpt lat="45.33144" lon="6.59178">
        <ele>2347.17</ele>
        <time>2014-01-26T12:52:10Z</time>
      </trkpt>
      <trkpt lat="45.33123" lon="6.59132">
        <ele>2330.18</ele>
        <time>2014-01-26T12:52:18Z</time>
      </trkpt>
      <trkpt lat="45.33133" lon="6.59076">
        <ele>2320.27</ele>
        <time>2014-01-26T12:52:26Z</time>
      </trkpt>
      <trkpt lat="45.33135" lon="6.59017">
        <ele>2310.4</ele>
        <time>2014-01-26T12:52:33Z</time>
      </trkpt>
      <trkpt lat="45.33132" lon="6.58959">
        <ele>2301.52</ele>
        <time>2014-01-26T12:52:38Z</time>
      </trkpt>
      <trkpt lat="45.33126" lon="6.58907">
        <ele>2290.63</ele>
        <time>2014-01-26T12:52:44Z</time>
      </trkpt>
      <trkpt lat="45.33111" lon="6.58845">
        <ele>2281.85</ele>
        <time>2014-01-26T12:52:49Z</time>
      </trkpt>
      <trkpt lat="45.33101" lon="6.58787">
        <ele>2276.38</ele>
        <time>2014-01-26T12:52:54Z</time>
      </trkpt>
      <trkpt lat="45.33109" lon="6.58732">
        <ele>2272.57</ele>
        <time>2014-01-26T12:53:00Z</time>
      </trkpt>
      <trkpt lat="45.33126" lon="6.58677">
        <ele>2268.12</ele>
        <time>2014-01-26T12:53:06Z</time>
      </trkpt>
      <trkpt lat="45.33144" lon="6.58621">
        <ele>2261.38</ele>
        <time>2014-01-26T12:53:56Z</time>
      </trkpt>
      <trkpt lat="45.3318" lon="6.5857">
        <ele>2258.78</ele>
        <time>2014-01-26T12:54:02Z</time>
      </trkpt>
      <trkpt lat="45.33224" lon="6.5855">
        <ele>2253.56</ele>
        <time>2014-01-26T12:54:08Z</time>
      </trkpt>
      <trkpt lat="45.33264" lon="6.58536">
        <ele>2248.09</ele>
        <time>2014-01-26T12:54:14Z</time>
      </trkpt>
      <trkpt lat="45.33305" lon="6.58526">
        <ele>2243.75</ele>
        <time>2014-01-26T12:54:21Z</time>
      </trkpt>
      <trkpt lat="45.33352" lon="6.5851">
        <ele>2229.36</ele>
        <time>2014-01-26T12:54:27Z</time>
      </trkpt>
      <trkpt lat="45.33394" lon="6.58507">
        <ele>2216.59</ele>
        <time>2014-01-26T12:54:33Z</time>
      </trkpt>
      <trkpt lat="45.33442" lon="6.58511">
        <ele>2203.66</ele>
        <time>2014-01-26T12:54:39Z</time>
      </trkpt>
      <trkpt lat="45.33469" lon="6.58554">
        <ele>2198.6</ele>
        <time>2014-01-26T12:54:46Z</time>
      </trkpt>
      <trkpt lat="45.33487" lon="6.58612">
        <ele>2185.69</ele>
        <time>2014-01-26T12:54:52Z</time>
      </trkpt>
      <trkpt lat="45.33509" lon="6.58668">
        <ele>2174.08</ele>
        <time>2014-01-26T12:54:56Z</time>
      </trkpt>
      <trkpt lat="45.33546" lon="6.5873">
        <ele>2159.91</ele>
        <time>2014-01-26T12:55:00Z</time>
      </trkpt>
      <trkpt lat="45.33585" lon="6.58775">
        <ele>2148.79</ele>
        <time>2014-01-26T12:55:04Z</time>
      </trkpt>
      <trkpt lat="45.33626" lon="6.58807">
        <ele>2141.93</ele>
        <time>2014-01-26T12:55:08Z</time>
      </trkpt>
      <trkpt lat="45.3367" lon="6.58824">
        <ele>2136.79</ele>
        <time>2014-01-26T12:55:12Z</time>
      </trkpt>
      <trkpt lat="45.3371" lon="6.58831">
        <ele>2133.34</ele>
        <time>2014-01-26T12:55:16Z</time>
      </trkpt>
      <trkpt lat="45.33754" lon="6.58832">
        <ele>2130.04</ele>
        <time>2014-01-26T12:55:22Z</time>
      </trkpt>
      <trkpt lat="45.33795" lon="6.58835">
        <ele>2129.95</ele>
        <time>2014-01-26T12:55:30Z</time>
      </trkpt>
      <trkpt lat="45.33833" lon="6.58829">
        <ele>2130.67</ele>
        <time>2014-01-26T12:55:46Z</time>
      </trkpt>
      <trkpt lat="45.33871" lon="6.58818">
        <ele>2131.94</ele>
        <time>2014-01-26T12:55:59Z</time>
      </trkpt>
      <trkpt lat="45.33912" lon="6.58824">
        <ele>2128.95</ele>
        <time>2014-01-26T12:56:10Z</time>
      </trkpt>
      <trkpt lat="45.33951" lon="6.58837">
        <ele>2125.5</ele>
        <time>2014-01-26T12:56:23Z</time>
      </trkpt>
      <trkpt lat="45.33994" lon="6.58852">
        <ele>2119.58</ele>
        <time>2014-01-26T12:56:28Z</time>
      </trkpt>
      <trkpt lat="45.34037" lon="6.58873">
        <ele>2113.71</ele>
        <time>2014-01-26T12:56:34Z</time>
      </trkpt>
      <trkpt lat="45.34069" lon="6.58908">
        <ele>2111.61</ele>
        <time>2014-01-26T12:56:46Z</time>
      </trkpt>
      <trkpt lat="45.34099" lon="6.58943">
        <ele>2111.2</ele>
        <time>2014-01-26T12:57:10Z</time>
      </trkpt>
      <trkpt lat="45.34112" lon="6.5889">
        <ele>2115.17</ele>
        <time>2014-01-26T12:58:57Z</time>
      </trkpt>
      <trkpt lat="45.34115" lon="6.58832">
        <ele>2119.95</ele>
        <time>2014-01-26T12:59:09Z</time>
      </trkpt>
      <trkpt lat="45.3412" lon="6.58779">
        <ele>2127.74</ele>
        <time>2014-01-26T12:59:21Z</time>
      </trkpt>
      <trkpt lat="45.34126" lon="6.58726">
        <ele>2139.2</ele>
        <time>2014-01-26T12:59:34Z</time>
      </trkpt>
      <trkpt lat="45.34131" lon="6.58672">
        <ele>2150.69</ele>
        <time>2014-01-26T12:59:46Z</time>
      </trkpt>
      <trkpt lat="45.34137" lon="6.58616">
        <ele>2157.54</ele>
        <time>2014-01-26T12:59:59Z</time>
      </trkpt>
      <trkpt lat="45.34144" lon="6.58565">
        <ele>2169.71</ele>
        <time>2014-01-26T13:00:11Z</time>
      </trkpt>
      <trkpt lat="45.34149" lon="6.58512">
        <ele>2180.38</ele>
        <time>2014-01-26T13:00:23Z</time>
      </trkpt>
      <trkpt lat="45.34157" lon="6.58459">
        <ele>2197.07</ele>
        <time>2014-01-26T13:00:36Z</time>
      </trkpt>
      <trkpt lat="45.34162" lon="6.58405">
        <ele>2219.9</ele>
        <time>2014-01-26T13:00:50Z</time>
      </trkpt>
      <trkpt lat="45.34167" lon="6.58354">
        <ele>2248</ele>
        <time>2014-01-26T13:01:04Z</time>
      </trkpt>
      <trkpt lat="45.34173" lon="6.58298">
        <ele>2278.55</ele>
        <time>2014-01-26T13:01:19Z</time>
      </trkpt>
      <trkpt lat="45.34178" lon="6.58242">
        <ele>2307.04</ele>
        <time>2014-01-26T13:01:34Z</time>
      </trkpt>
      <trkpt lat="45.34183" lon="6.58186">
        <ele>2325.98</ele>
        <time>2014-01-26T13:01:49Z</time>
      </trkpt>
      <trkpt lat="45.3419" lon="6.5813">
        <ele>2344.69</ele>
        <time>2014-01-26T13:02:03Z</time>
      </trkpt>
      <trkpt lat="45.34195" lon="6.58077">
        <ele>2359.67</ele>
        <time>2014-01-26T13:02:17Z</time>
      </trkpt>
      <trkpt lat="45.34199" lon="6.58024">
        <ele>2378.48</ele>
        <time>2014-01-26T13:02:31Z</time>
      </trkpt>
      <trkpt lat="45.34207" lon="6.57969">
        <ele>2405.14</ele>
        <time>2014-01-26T13:02:43Z</time>
      </trkpt>
      <trkpt lat="45.34228" lon="6.57928">
        <ele>2415.68</ele>
        <time>2014-01-26T13:03:00Z</time>
      </trkpt>
      <trkpt lat="45.34267" lon="6.57951">
        <ele>2403.74</ele>
        <time>2014-01-26T13:03:12Z</time>
      </trkpt>
      <trkpt lat="45.34299" lon="6.57965">
        <ele>2395.22</ele>
        <time>2014-01-26T13:03:42Z</time>
      </trkpt>
      <trkpt lat="45.34342" lon="6.57946">
        <ele>2392.21</ele>
        <time>2014-01-26T13:03:48Z</time>
      </trkpt>
      <trkpt lat="45.34384" lon="6.57939">
        <ele>2386.19</ele>
        <time>2014-01-26T13:03:54Z</time>
      </trkpt>
      <trkpt lat="45.34428" lon="6.57918">
        <ele>2377.98</ele>
        <time>2014-01-26T13:04:01Z</time>
      </trkpt>
      <trkpt lat="45.34467" lon="6.57905">
        <ele>2364.26</ele>
        <time>2014-01-26T13:04:07Z</time>
      </trkpt>
      <trkpt lat="45.34503" lon="6.57909">
        <ele>2348.67</ele>
        <time>2014-01-26T13:04:13Z</time>
      </trkpt>
      <trkpt lat="45.34541" lon="6.57884">
        <ele>2344.53</ele>
        <time>2014-01-26T13:04:19Z</time>
      </trkpt>
      <trkpt lat="45.3457" lon="6.57843">
        <ele>2333.17</ele>
        <time>2014-01-26T13:04:56Z</time>
      </trkpt>
      <trkpt lat="45.34605" lon="6.57823">
        <ele>2321.23</ele>
        <time>2014-01-26T13:05:04Z</time>
      </trkpt>
      <trkpt lat="45.34643" lon="6.57823">
        <ele>2308.75</ele>
        <time>2014-01-26T13:05:10Z</time>
      </trkpt>
      <trkpt lat="45.34673" lon="6.57833">
        <ele>2293.68</ele>
        <time>2014-01-26T13:05:17Z</time>
      </trkpt>
      <trkpt lat="45.34712" lon="6.57822">
        <ele>2276.04</ele>
        <time>2014-01-26T13:05:23Z</time>
      </trkpt>
      <trkpt lat="45.34756" lon="6.57817">
        <ele>2264.24</ele>
        <time>2014-01-26T13:05:29Z</time>
      </trkpt>
      <trkpt lat="45.34799" lon="6.57793">
        <ele>2251.96</ele>
        <time>2014-01-26T13:05:35Z</time>
      </trkpt>
      <trkpt lat="45.34841" lon="6.57777">
        <ele>2238.43</ele>
        <time>2014-01-26T13:05:40Z</time>
      </trkpt>
      <trkpt lat="45.34883" lon="6.57756">
        <ele>2230.95</ele>
        <time>2014-01-26T13:05:45Z</time>
      </trkpt>
      <trkpt lat="45.34923" lon="6.57728">
        <ele>2225.09</ele>
        <time>2014-01-26T13:05:50Z</time>
      </trkpt>
      <trkpt lat="45.3496" lon="6.57715">
        <ele>2215</ele>
        <time>2014-01-26T13:05:56Z</time>
      </trkpt>
      <trkpt lat="45.35005" lon="6.57727">
        <ele>2200.89</ele>
        <time>2014-01-26T13:06:03Z</time>
      </trkpt>
      <trkpt lat="45.35042" lon="6.57741">
        <ele>2188.61</ele>
        <time>2014-01-26T13:06:09Z</time>
      </trkpt>
      <trkpt lat="45.35074" lon="6.57762">
        <ele>2177.51</ele>
        <time>2014-01-26T13:06:13Z</time>
      </trkpt>
      <trkpt lat="45.3511" lon="6.57786">
        <ele>2168.06</ele>
        <time>2014-01-26T13:06:18Z</time>
      </trkpt>
      <trkpt lat="45.35149" lon="6.578">
        <ele>2157.66</ele>
        <time>2014-01-26T13:06:24Z</time>
      </trkpt>
      <trkpt lat="45.35194" lon="6.57816">
        <ele>2144.47</ele>
        <time>2014-01-26T13:06:31Z</time>
      </trkpt>
      <trkpt lat="45.35228" lon="6.5785">
        <ele>2133.87</ele>
        <time>2014-01-26T13:06:38Z</time>
      </trkpt>
      <trkpt lat="45.35268" lon="6.57881">
        <ele>2122.16</ele>
        <time>2014-01-26T13:06:44Z</time>
      </trkpt>
      <trkpt lat="45.35304" lon="6.57896">
        <ele>2114.98</ele>
        <time>2014-01-26T13:06:48Z</time>
      </trkpt>
      <trkpt lat="45.3534" lon="6.57916">
        <ele>2108.55</ele>
        <time>2014-01-26T13:06:52Z</time>
      </trkpt>
      <trkpt lat="45.35367" lon="6.57956">
        <ele>2104.1</ele>
        <time>2014-01-26T13:06:58Z</time>
      </trkpt>
      <trkpt lat="45.35398" lon="6.57982">
        <ele>2100.21</ele>
        <time>2014-01-26T13:07:24Z</time>
      </trkpt>
      <trkpt lat="45.35441" lon="6.57998">
        <ele>2094.78</ele>
        <time>2014-01-26T13:07:31Z</time>
      </trkpt>
      <trkpt lat="45.35485" lon="6.58007">
        <ele>2086.67</ele>
        <time>2014-01-26T13:07:36Z</time>
      </trkpt>
      <trkpt lat="45.3553" lon="6.58007">
        <ele>2074.39</ele>
        <time>2014-01-26T13:07:41Z</time>
      </trkpt>
      <trkpt lat="45.35572" lon="6.5801">
        <ele>2067.15</ele>
        <time>2014-01-26T13:07:45Z</time>
      </trkpt>
      <trkpt lat="45.35613" lon="6.58014">
        <ele>2063.17</ele>
        <time>2014-01-26T13:07:49Z</time>
      </trkpt>
      <trkpt lat="45.35653" lon="6.58014">
        <ele>2059.14</ele>
        <time>2014-01-26T13:07:53Z</time>
      </trkpt>
      <trkpt lat="45.35706" lon="6.58022">
        <ele>2050.29</ele>
        <time>2014-01-26T13:07:59Z</time>
      </trkpt>
      <trkpt lat="45.35747" lon="6.58032">
        <ele>2044.8</ele>
        <time>2014-01-26T13:08:03Z</time>
      </trkpt>
      <trkpt lat="45.35788" lon="6.5803">
        <ele>2036.01</ele>
        <time>2014-01-26T13:08:07Z</time>
      </trkpt>
      <trkpt lat="45.35831" lon="6.58023">
        <ele>2034.75</ele>
        <time>2014-01-26T13:08:12Z</time>
      </trkpt>
      <trkpt lat="45.3588" lon="6.58018">
        <ele>2029.7</ele>
        <time>2014-01-26T13:08:18Z</time>
      </trkpt>
      <trkpt lat="45.35932" lon="6.58012">
        <ele>2021.63</ele>
        <time>2014-01-26T13:08:24Z</time>
      </trkpt>
      <trkpt lat="45.35972" lon="6.58003">
        <ele>2017.35</ele>
        <time>2014-01-26T13:08:29Z</time>
      </trkpt>
      <trkpt lat="45.36009" lon="6.57981">
        <ele>2018.13</ele>
        <time>2014-01-26T13:08:35Z</time>
      </trkpt>
      <trkpt lat="45.36054" lon="6.57959">
        <ele>2015.22</ele>
        <time>2014-01-26T13:08:41Z</time>
      </trkpt>
      <trkpt lat="45.36096" lon="6.57941">
        <ele>2010.41</ele>
        <time>2014-01-26T13:08:47Z</time>
      </trkpt>
      <trkpt lat="45.36139" lon="6.57926">
        <ele>2006.27</ele>
        <time>2014-01-26T13:08:54Z</time>
      </trkpt>
      <trkpt lat="45.36179" lon="6.579">
        <ele>1998.34</ele>
        <time>2014-01-26T13:09:00Z</time>
      </trkpt>
      <trkpt lat="45.36216" lon="6.57869">
        <ele>1993.33</ele>
        <time>2014-01-26T13:09:06Z</time>
      </trkpt>
      <trkpt lat="45.36255" lon="6.5784">
        <ele>1981.52</ele>
        <time>2014-01-26T13:09:12Z</time>
      </trkpt>
      <trkpt lat="45.36294" lon="6.57807">
        <ele>1972.38</ele>
        <time>2014-01-26T13:09:19Z</time>
      </trkpt>
      <trkpt lat="45.36333" lon="6.57795">
        <ele>1954.62</ele>
        <time>2014-01-26T13:09:25Z</time>
      </trkpt>
      <trkpt lat="45.36376" lon="6.57802">
        <ele>1938.98</ele>
        <time>2014-01-26T13:09:30Z</time>
      </trkpt>
      <trkpt lat="45.36414" lon="6.57809">
        <ele>1924.34</ele>
        <time>2014-01-26T13:09:34Z</time>
      </trkpt>
      <trkpt lat="45.36453" lon="6.57816">
        <ele>1913.76</ele>
        <time>2014-01-26T13:09:39Z</time>
      </trkpt>
      <trkpt lat="45.36497" lon="6.57818">
        <ele>1914.64</ele>
        <time>2014-01-26T13:09:44Z</time>
      </trkpt>
      <trkpt lat="45.36547" lon="6.57805">
        <ele>1900.27</ele>
        <time>2014-01-26T13:09:50Z</time>
      </trkpt>
      <trkpt lat="45.36586" lon="6.57797">
        <ele>1888.52</ele>
        <time>2014-01-26T13:09:54Z</time>
      </trkpt>
      <trkpt lat="45.36632" lon="6.57799">
        <ele>1884.93</ele>
        <time>2014-01-26T13:10:00Z</time>
      </trkpt>
      <trkpt lat="45.36679" lon="6.57798">
        <ele>1879.92</ele>
        <time>2014-01-26T13:10:06Z</time>
      </trkpt>
      <trkpt lat="45.36721" lon="6.57798">
        <ele>1876.58</ele>
        <time>2014-01-26T13:10:12Z</time>
      </trkpt>
      <trkpt lat="45.36761" lon="6.57801">
        <ele>1869.76</ele>
        <time>2014-01-26T13:10:19Z</time>
      </trkpt>
      <trkpt lat="45.36802" lon="6.57818">
        <ele>1853.68</ele>
        <time>2014-01-26T13:10:27Z</time>
      </trkpt>
      <trkpt lat="45.36839" lon="6.57836">
        <ele>1835.52</ele>
        <time>2014-01-26T13:10:35Z</time>
      </trkpt>
      <trkpt lat="45.36876" lon="6.57854">
        <ele>1819.69</ele>
        <time>2014-01-26T13:10:41Z</time>
      </trkpt>
      <trkpt lat="45.36914" lon="6.57873">
        <ele>1810.21</ele>
        <time>2014-01-26T13:10:49Z</time>
      </trkpt>
      <trkpt lat="45.36954" lon="6.57845">
        <ele>1806.7</ele>
        <time>2014-01-26T13:10:57Z</time>
      </trkpt>
      <trkpt lat="45.36987" lon="6.5782">
        <ele>1798.56</ele>
        <time>2014-01-26T13:11:04Z</time>
      </trkpt>
      <trkpt lat="45.37026" lon="6.578">
        <ele>1782.11</ele>
        <time>2014-01-26T13:11:11Z</time>
      </trkpt>
      <trkpt lat="45.37071" lon="6.57804">
        <ele>1766.09</ele>
        <time>2014-01-26T13:11:19Z</time>
      </trkpt>
      <trkpt lat="45.3711" lon="6.57803">
        <ele>1753.85</ele>
        <time>2014-01-26T13:11:27Z</time>
      </trkpt>
      <trkpt lat="45.37144" lon="6.57817">
        <ele>1746.18</ele>
        <time>2014-01-26T13:11:34Z</time>
      </trkpt>
      <trkpt lat="45.37177" lon="6.57834">
        <ele>1736.47</ele>
        <time>2014-01-26T13:11:41Z</time>
      </trkpt>
      <trkpt lat="45.3721" lon="6.57859">
        <ele>1722.9</ele>
        <time>2014-01-26T13:11:49Z</time>
      </trkpt>
      <trkpt lat="45.37227" lon="6.5789">
        <ele>1714.34</ele>
        <time>2014-01-26T13:11:57Z</time>
      </trkpt>
      <trkpt lat="45.37247" lon="6.57945">
        <ele>1702.51</ele>
        <time>2014-01-26T13:12:06Z</time>
      </trkpt>
      <trkpt lat="45.3726" lon="6.57996">
        <ele>1690.4</ele>
        <time>2014-01-26T13:12:15Z</time>
      </trkpt>
      <trkpt lat="45.37248" lon="6.58046">
        <ele>1684.7</ele>
        <time>2014-01-26T13:13:28Z</time>
      </trkpt>
      <trkpt lat="45.37215" lon="6.58022">
        <ele>1687.11</ele>
        <time>2014-01-26T13:14:45Z</time>
      </trkpt>
      <trkpt lat="45.37217" lon="6.58017">
        <ele>1687.53</ele>
        <time>2014-01-26T13:17:06Z</time>
      </trkpt>
      <trkpt lat="45.3724" lon="6.58067">
        <ele>1682.95</ele>
        <time>2014-01-26T13:17:17Z</time>
      </trkpt>
      <trkpt lat="45.37263" lon="6.58115">
        <ele>1681.42</ele>
        <time>2014-01-26T13:17:29Z</time>
      </trkpt>
      <trkpt lat="45.37286" lon="6.58166">
        <ele>1690.03</ele>
        <time>2014-01-26T13:17:41Z</time>
      </trkpt>
      <trkpt lat="45.37309" lon="6.58216">
        <ele>1706.36</ele>
        <time>2014-01-26T13:17:53Z</time>
      </trkpt>
      <trkpt lat="45.37332" lon="6.58262">
        <ele>1725.21</ele>
        <time>2014-01-26T13:18:04Z</time>
      </trkpt>
      <trkpt lat="45.37352" lon="6.58313">
        <ele>1742.53</ele>
        <time>2014-01-26T13:18:16Z</time>
      </trkpt>
      <trkpt lat="45.37371" lon="6.5836">
        <ele>1753.14</ele>
        <time>2014-01-26T13:18:27Z</time>
      </trkpt>
      <trkpt lat="45.37394" lon="6.58409">
        <ele>1764.56</ele>
        <time>2014-01-26T13:18:39Z</time>
      </trkpt>
      <trkpt lat="45.37418" lon="6.58457">
        <ele>1773.29</ele>
        <time>2014-01-26T13:18:50Z</time>
      </trkpt>
      <trkpt lat="45.37439" lon="6.58506">
        <ele>1784.08</ele>
        <time>2014-01-26T13:19:00Z</time>
      </trkpt>
      <trkpt lat="45.37458" lon="6.58553">
        <ele>1796.29</ele>
        <time>2014-01-26T13:19:12Z</time>
      </trkpt>
      <trkpt lat="45.37479" lon="6.58599">
        <ele>1815.32</ele>
        <time>2014-01-26T13:19:24Z</time>
      </trkpt>
      <trkpt lat="45.37498" lon="6.58648">
        <ele>1831.94</ele>
        <time>2014-01-26T13:19:35Z</time>
      </trkpt>
      <trkpt lat="45.37513" lon="6.58697">
        <ele>1844.83</ele>
        <time>2014-01-26T13:19:44Z</time>
      </trkpt>
      <trkpt lat="45.37542" lon="6.58737">
        <ele>1861.6</ele>
        <time>2014-01-26T13:19:57Z</time>
      </trkpt>
      <trkpt lat="45.3756" lon="6.58788">
        <ele>1888.4</ele>
        <time>2014-01-26T13:20:11Z</time>
      </trkpt>
      <trkpt lat="45.37572" lon="6.58841">
        <ele>1911.02</ele>
        <time>2014-01-26T13:20:21Z</time>
      </trkpt>
      <trkpt lat="45.37589" lon="6.589">
        <ele>1933.52</ele>
        <time>2014-01-26T13:20:31Z</time>
      </trkpt>
      <trkpt lat="45.37605" lon="6.58948">
        <ele>1949.99</ele>
        <time>2014-01-26T13:20:39Z</time>
      </trkpt>
      <trkpt lat="45.37641" lon="6.58975">
        <ele>1961.16</ele>
        <time>2014-01-26T13:20:49Z</time>
      </trkpt>
      <trkpt lat="45.37666" lon="6.5902">
        <ele>1974.56</ele>
        <time>2014-01-26T13:20:59Z</time>
      </trkpt>
      <trkpt lat="45.37687" lon="6.59066">
        <ele>1985.5</ele>
        <time>2014-01-26T13:21:12Z</time>
      </trkpt>
      <trkpt lat="45.3771" lon="6.59109">
        <ele>1999.15</ele>
        <time>2014-01-26T13:21:23Z</time>
      </trkpt>
      <trkpt lat="45.37733" lon="6.59153">
        <ele>2018.39</ele>
        <time>2014-01-26T13:21:33Z</time>
      </trkpt>
      <trkpt lat="45.37752" lon="6.59199">
        <ele>2038.67</ele>
        <time>2014-01-26T13:21:44Z</time>
      </trkpt>
      <trkpt lat="45.37771" lon="6.59246">
        <ele>2055.95</ele>
        <time>2014-01-26T13:21:55Z</time>
      </trkpt>
      <trkpt lat="45.3779" lon="6.59295">
        <ele>2072.96</ele>
        <time>2014-01-26T13:22:07Z</time>
      </trkpt>
      <trkpt lat="45.37811" lon="6.59344">
        <ele>2088.06</ele>
        <time>2014-01-26T13:22:22Z</time>
      </trkpt>
      <trkpt lat="45.37834" lon="6.59395">
        <ele>2104.12</ele>
        <time>2014-01-26T13:22:33Z</time>
      </trkpt>
      <trkpt lat="45.37855" lon="6.59443">
        <ele>2127.59</ele>
        <time>2014-01-26T13:22:43Z</time>
      </trkpt>
      <trkpt lat="45.37874" lon="6.59488">
        <ele>2146.18</ele>
        <time>2014-01-26T13:22:53Z</time>
      </trkpt>
      <trkpt lat="45.37893" lon="6.59534">
        <ele>2160.29</ele>
        <time>2014-01-26T13:23:05Z</time>
      </trkpt>
      <trkpt lat="45.37912" lon="6.59581">
        <ele>2178.15</ele>
        <time>2014-01-26T13:23:19Z</time>
      </trkpt>
      <trkpt lat="45.37942" lon="6.59615">
        <ele>2187.12</ele>
        <time>2014-01-26T13:23:38Z</time>
      </trkpt>
      <trkpt lat="45.37966" lon="6.59662">
        <ele>2199.43</ele>
        <time>2014-01-26T13:23:51Z</time>
      </trkpt>
      <trkpt lat="45.37988" lon="6.59711">
        <ele>2211.26</ele>
        <time>2014-01-26T13:24:03Z</time>
      </trkpt>
      <trkpt lat="45.38005" lon="6.59757">
        <ele>2220.34</ele>
        <time>2014-01-26T13:26:14Z</time>
      </trkpt>
      <trkpt lat="45.38016" lon="6.59814">
        <ele>2229.94</ele>
        <time>2014-01-26T13:26:25Z</time>
      </trkpt>
      <trkpt lat="45.38026" lon="6.59872">
        <ele>2244.19</ele>
        <time>2014-01-26T13:26:35Z</time>
      </trkpt>
      <trkpt lat="45.38031" lon="6.59924">
        <ele>2258.14</ele>
        <time>2014-01-26T13:26:45Z</time>
      </trkpt>
      <trkpt lat="45.38036" lon="6.59979">
        <ele>2270.03</ele>
        <time>2014-01-26T13:26:56Z</time>
      </trkpt>
      <trkpt lat="45.38046" lon="6.60031">
        <ele>2291.07</ele>
        <time>2014-01-26T13:27:11Z</time>
      </trkpt>
      <trkpt lat="45.38055" lon="6.60087">
        <ele>2318.25</ele>
        <time>2014-01-26T13:27:25Z</time>
      </trkpt>
      <trkpt lat="45.38066" lon="6.60137">
        <ele>2343.81</ele>
        <time>2014-01-26T13:27:41Z</time>
      </trkpt>
      <trkpt lat="45.38084" lon="6.60186">
        <ele>2359.61</ele>
        <time>2014-01-26T13:27:53Z</time>
      </trkpt>
      <trkpt lat="45.38096" lon="6.60238">
        <ele>2373.96</ele>
        <time>2014-01-26T13:28:05Z</time>
      </trkpt>
      <trkpt lat="45.38099" lon="6.60293">
        <ele>2395.05</ele>
        <time>2014-01-26T13:28:17Z</time>
      </trkpt>
      <trkpt lat="45.38104" lon="6.60351">
        <ele>2415.38</ele>
        <time>2014-01-26T13:28:30Z</time>
      </trkpt>
      <trkpt lat="45.38102" lon="6.60409">
        <ele>2431.25</ele>
        <time>2014-01-26T13:28:38Z</time>
      </trkpt>
      <trkpt lat="45.38098" lon="6.60464">
        <ele>2446.59</ele>
        <time>2014-01-26T13:28:45Z</time>
      </trkpt>
      <trkpt lat="45.38098" lon="6.60518">
        <ele>2463.48</ele>
        <time>2014-01-26T13:28:55Z</time>
      </trkpt>
      <trkpt lat="45.38103" lon="6.60578">
        <ele>2486.87</ele>
        <time>2014-01-26T13:29:06Z</time>
      </trkpt>
      <trkpt lat="45.3811" lon="6.60633">
        <ele>2516.3</ele>
        <time>2014-01-26T13:29:15Z</time>
      </trkpt>
      <trkpt lat="45.38119" lon="6.60691">
        <ele>2552.8</ele>
        <time>2014-01-26T13:29:24Z</time>
      </trkpt>
      <trkpt lat="45.38127" lon="6.60745">
        <ele>2584.32</ele>
        <time>2014-01-26T13:29:40Z</time>
      </trkpt>
      <trkpt lat="45.38139" lon="6.608">
        <ele>2628.14</ele>
        <time>2014-01-26T13:29:59Z</time>
      </trkpt>
      <trkpt lat="45.38145" lon="6.60853">
        <ele>2647.81</ele>
        <time>2014-01-26T13:30:15Z</time>
      </trkpt>
      <trkpt lat="45.38141" lon="6.60909">
        <ele>2668.48</ele>
        <time>2014-01-26T13:30:26Z</time>
      </trkpt>
      <trkpt lat="45.38141" lon="6.60964">
        <ele>2682.67</ele>
        <time>2014-01-26T13:30:38Z</time>
      </trkpt>
      <trkpt lat="45.38122" lon="6.61011">
        <ele>2672.4</ele>
        <time>2014-01-26T13:33:36Z</time>
      </trkpt>
      <trkpt lat="45.38082" lon="6.61">
        <ele>2662.55</ele>
        <time>2014-01-26T13:33:44Z</time>
      </trkpt>
      <trkpt lat="45.38051" lon="6.60989">
        <ele>2646.91</ele>
        <time>2014-01-26T13:33:54Z</time>
      </trkpt>
      <trkpt lat="45.38018" lon="6.60992">
        <ele>2630.75</ele>
        <time>2014-01-26T13:34:02Z</time>
      </trkpt>
      <trkpt lat="45.37985" lon="6.60967">
        <ele>2627.15</ele>
        <time>2014-01-26T13:34:24Z</time>
      </trkpt>
      <trkpt lat="45.3795" lon="6.60948">
        <ele>2615.02</ele>
        <time>2014-01-26T13:34:38Z</time>
      </trkpt>
      <trkpt lat="45.37909" lon="6.6095">
        <ele>2601.41</ele>
        <time>2014-01-26T13:34:45Z</time>
      </trkpt>
      <trkpt lat="45.37867" lon="6.60945">
        <ele>2588.71</ele>
        <time>2014-01-26T13:34:53Z</time>
      </trkpt>
      <trkpt lat="45.37833" lon="6.60918">
        <ele>2582.62</ele>
        <time>2014-01-26T13:34:59Z</time>
      </trkpt>
      <trkpt lat="45.37816" lon="6.60868">
        <ele>2574.47</ele>
        <time>2014-01-26T13:35:29Z</time>
      </trkpt>
      <trkpt lat="45.37819" lon="6.60814">
        <ele>2564.29</ele>
        <time>2014-01-26T13:35:37Z</time>
      </trkpt>
      <trkpt lat="45.37852" lon="6.60791">
        <ele>2555.58</ele>
        <time>2014-01-26T13:35:44Z</time>
      </trkpt>
      <trkpt lat="45.37889" lon="6.60769">
        <ele>2545.87</ele>
        <time>2014-01-26T13:35:51Z</time>
      </trkpt>
      <trkpt lat="45.3793" lon="6.60748">
        <ele>2536.07</ele>
        <time>2014-01-26T13:35:59Z</time>
      </trkpt>
      <trkpt lat="45.37963" lon="6.60714">
        <ele>2522.86</ele>
        <time>2014-01-26T13:36:05Z</time>
      </trkpt>
      <trkpt lat="45.37998" lon="6.6068">
        <ele>2514.27</ele>
        <time>2014-01-26T13:36:11Z</time>
      </trkpt>
      <trkpt lat="45.38034" lon="6.6065">
        <ele>2508.35</ele>
        <time>2014-01-26T13:36:17Z</time>
      </trkpt>
      <trkpt lat="45.38075" lon="6.60622">
        <ele>2502.8</ele>
        <time>2014-01-26T13:36:23Z</time>
      </trkpt>
      <trkpt lat="45.38111" lon="6.60597">
        <ele>2496.95</ele>
        <time>2014-01-26T13:36:29Z</time>
      </trkpt>
      <trkpt lat="45.38145" lon="6.60567">
        <ele>2491.81</ele>
        <time>2014-01-26T13:36:34Z</time>
      </trkpt>
      <trkpt lat="45.3818" lon="6.60531">
        <ele>2486.11</ele>
        <time>2014-01-26T13:36:40Z</time>
      </trkpt>
      <trkpt lat="45.38214" lon="6.60508">
        <ele>2485.86</ele>
        <time>2014-01-26T13:36:49Z</time>
      </trkpt>
      <trkpt lat="45.38236" lon="6.60466">
        <ele>2475.64</ele>
        <time>2014-01-26T13:37:10Z</time>
      </trkpt>
      <trkpt lat="45.38283" lon="6.60461">
        <ele>2455.61</ele>
        <time>2014-01-26T13:37:18Z</time>
      </trkpt>
      <trkpt lat="45.38321" lon="6.60448">
        <ele>2444.6</ele>
        <time>2014-01-26T13:37:27Z</time>
      </trkpt>
      <trkpt lat="45.38364" lon="6.60465">
        <ele>2436.88</ele>
        <time>2014-01-26T13:37:33Z</time>
      </trkpt>
      <trkpt lat="45.38394" lon="6.60461">
        <ele>2421.7</ele>
        <time>2014-01-26T13:37:38Z</time>
      </trkpt>
      <trkpt lat="45.38396" lon="6.60397">
        <ele>2407.96</ele>
        <time>2014-01-26T13:37:43Z</time>
      </trkpt>
      <trkpt lat="45.3843" lon="6.60356">
        <ele>2392.75</ele>
        <time>2014-01-26T13:37:49Z</time>
      </trkpt>
      <trkpt lat="45.38445" lon="6.60306">
        <ele>2384.1</ele>
        <time>2014-01-26T13:38:21Z</time>
      </trkpt>
      <trkpt lat="45.38471" lon="6.60264">
        <ele>2376.8</ele>
        <time>2014-01-26T13:38:27Z</time>
      </trkpt>
      <trkpt lat="45.38493" lon="6.60211">
        <ele>2354.8</ele>
        <time>2014-01-26T13:38:33Z</time>
      </trkpt>
      <trkpt lat="45.38516" lon="6.60155">
        <ele>2336.43</ele>
        <time>2014-01-26T13:38:39Z</time>
      </trkpt>
      <trkpt lat="45.38521" lon="6.60101">
        <ele>2322.63</ele>
        <time>2014-01-26T13:38:43Z</time>
      </trkpt>
      <trkpt lat="45.38527" lon="6.60045">
        <ele>2313.69</ele>
        <time>2014-01-26T13:38:48Z</time>
      </trkpt>
      <trkpt lat="45.38527" lon="6.59991">
        <ele>2300.99</ele>
        <time>2014-01-26T13:38:53Z</time>
      </trkpt>
      <trkpt lat="45.38543" lon="6.59938">
        <ele>2293.19</ele>
        <time>2014-01-26T13:38:58Z</time>
      </trkpt>
      <trkpt lat="45.38556" lon="6.59876">
        <ele>2280.94</ele>
        <time>2014-01-26T13:39:04Z</time>
      </trkpt>
      <trkpt lat="45.38574" lon="6.59826">
        <ele>2270.44</ele>
        <time>2014-01-26T13:39:08Z</time>
      </trkpt>
      <trkpt lat="45.38594" lon="6.59763">
        <ele>2257.19</ele>
        <time>2014-01-26T13:39:12Z</time>
      </trkpt>
      <trkpt lat="45.38622" lon="6.5971">
        <ele>2246.94</ele>
        <time>2014-01-26T13:39:16Z</time>
      </trkpt>
      <trkpt lat="45.38649" lon="6.59659">
        <ele>2242.18</ele>
        <time>2014-01-26T13:39:20Z</time>
      </trkpt>
      <trkpt lat="45.38677" lon="6.59611">
        <ele>2238.94</ele>
        <time>2014-01-26T13:39:25Z</time>
      </trkpt>
      <trkpt lat="45.38698" lon="6.59554">
        <ele>2225.71</ele>
        <time>2014-01-26T13:39:30Z</time>
      </trkpt>
      <trkpt lat="45.38699" lon="6.59484">
        <ele>2204.84</ele>
        <time>2014-01-26T13:39:34Z</time>
      </trkpt>
      <trkpt lat="45.38719" lon="6.59423">
        <ele>2195.9</ele>
        <time>2014-01-26T13:39:40Z</time>
      </trkpt>
      <trkpt lat="45.38717" lon="6.59358">
        <ele>2184.6</ele>
        <time>2014-01-26T13:39:47Z</time>
      </trkpt>
      <trkpt lat="45.38727" lon="6.59307">
        <ele>2176.95</ele>
        <time>2014-01-26T13:39:53Z</time>
      </trkpt>
      <trkpt lat="45.3875" lon="6.59261">
        <ele>2170.3</ele>
        <time>2014-01-26T13:40:00Z</time>
      </trkpt>
      <trkpt lat="45.38774" lon="6.59215">
        <ele>2162.94</ele>
        <time>2014-01-26T13:40:08Z</time>
      </trkpt>
      <trkpt lat="45.38755" lon="6.59158">
        <ele>2149.9</ele>
        <time>2014-01-26T13:40:14Z</time>
      </trkpt>
      <trkpt lat="45.38752" lon="6.59101">
        <ele>2137.92</ele>
        <time>2014-01-26T13:40:19Z</time>
      </trkpt>
      <trkpt lat="45.38789" lon="6.5904">
        <ele>2120.67</ele>
        <time>2014-01-26T13:40:23Z</time>
      </trkpt>
      <trkpt lat="45.38794" lon="6.58972">
        <ele>2113.38</ele>
        <time>2014-01-26T13:40:27Z</time>
      </trkpt>
      <trkpt lat="45.38819" lon="6.5893">
        <ele>2107.37</ele>
        <time>2014-01-26T13:40:32Z</time>
      </trkpt>
      <trkpt lat="45.38817" lon="6.58879">
        <ele>2099.29</ele>
        <time>2014-01-26T13:41:02Z</time>
      </trkpt>
      <trkpt lat="45.38834" lon="6.58823">
        <ele>2088.01</ele>
        <time>2014-01-26T13:41:08Z</time>
      </trkpt>
      <trkpt lat="45.38868" lon="6.58779">
        <ele>2071.69</ele>
        <time>2014-01-26T13:41:15Z</time>
      </trkpt>
      <trkpt lat="45.38867" lon="6.58716">
        <ele>2045.62</ele>
        <time>2014-01-26T13:41:21Z</time>
      </trkpt>
      <trkpt lat="45.38845" lon="6.58662">
        <ele>2023.06</ele>
        <time>2014-01-26T13:41:29Z</time>
      </trkpt>
      <trkpt lat="45.38809" lon="6.58645">
        <ele>2013.36</ele>
        <time>2014-01-26T13:41:33Z</time>
      </trkpt>
      <trkpt lat="45.38786" lon="6.58595">
        <ele>1997.12</ele>
        <time>2014-01-26T13:41:40Z</time>
      </trkpt>
      <trkpt lat="45.38768" lon="6.58541">
        <ele>1982.19</ele>
        <time>2014-01-26T13:41:46Z</time>
      </trkpt>
      <trkpt lat="45.3875" lon="6.58486">
        <ele>1964.81</ele>
        <time>2014-01-26T13:41:52Z</time>
      </trkpt>
      <trkpt lat="45.38753" lon="6.58425">
        <ele>1945</ele>
        <time>2014-01-26T13:41:57Z</time>
      </trkpt>
      <trkpt lat="45.3878" lon="6.58366">
        <ele>1936.7</ele>
        <time>2014-01-26T13:42:01Z</time>
      </trkpt>
      <trkpt lat="45.38813" lon="6.58334">
        <ele>1931.61</ele>
        <time>2014-01-26T13:42:32Z</time>
      </trkpt>
      <trkpt lat="45.38854" lon="6.58299">
        <ele>1918.57</ele>
        <time>2014-01-26T13:42:38Z</time>
      </trkpt>
      <trkpt lat="45.3888" lon="6.58255">
        <ele>1904.59</ele>
        <time>2014-01-26T13:42:43Z</time>
      </trkpt>
      <trkpt lat="45.38902" lon="6.58203">
        <ele>1891.31</ele>
        <time>2014-01-26T13:42:48Z</time>
      </trkpt>
      <trkpt lat="45.38904" lon="6.58158">
        <ele>1882.12</ele>
        <time>2014-01-26T13:42:55Z</time>
      </trkpt>
      <trkpt lat="45.389" lon="6.58104">
        <ele>1863.76</ele>
        <time>2014-01-26T13:43:02Z</time>
      </trkpt>
      <trkpt lat="45.38867" lon="6.58078">
        <ele>1852.38</ele>
        <time>2014-01-26T13:43:07Z</time>
      </trkpt>
      <trkpt lat="45.38867" lon="6.5804">
        <ele>1839.05</ele>
        <time>2014-01-26T13:43:15Z</time>
      </trkpt>
      <trkpt lat="45.3887" lon="6.57988">
        <ele>1820.15</ele>
        <time>2014-01-26T13:43:22Z</time>
      </trkpt>
      <trkpt lat="45.38899" lon="6.57938">
        <ele>1803.67</ele>
        <time>2014-01-26T13:43:28Z</time>
      </trkpt>
      <trkpt lat="45.38933" lon="6.5791">
        <ele>1792.02</ele>
        <time>2014-01-26T13:43:36Z</time>
      </trkpt>
      <trkpt lat="45.3896" lon="6.57873">
        <ele>1777.31</ele>
        <time>2014-01-26T13:43:44Z</time>
      </trkpt>
      <trkpt lat="45.38984" lon="6.5783">
        <ele>1759.98</ele>
        <time>2014-01-26T13:43:50Z</time>
      </trkpt>
      <trkpt lat="45.39012" lon="6.57784">
        <ele>1742.57</ele>
        <time>2014-01-26T13:43:56Z</time>
      </trkpt>
      <trkpt lat="45.38985" lon="6.57724">
        <ele>1724.28</ele>
        <time>2014-01-26T13:44:02Z</time>
      </trkpt>
      <trkpt lat="45.38949" lon="6.57689">
        <ele>1715.32</ele>
        <time>2014-01-26T13:44:08Z</time>
      </trkpt>
      <trkpt lat="45.3891" lon="6.57664">
        <ele>1705.78</ele>
        <time>2014-01-26T13:44:14Z</time>
      </trkpt>
      <trkpt lat="45.3887" lon="6.57646">
        <ele>1698.18</ele>
        <time>2014-01-26T13:44:20Z</time>
      </trkpt>
      <trkpt lat="45.38848" lon="6.57608">
        <ele>1680.55</ele>
        <time>2014-01-26T13:44:28Z</time>
      </trkpt>
      <trkpt lat="45.38829" lon="6.57559">
        <ele>1663.54</ele>
        <time>2014-01-26T13:44:35Z</time>
      </trkpt>
      <trkpt lat="45.38846" lon="6.57497">
        <ele>1642.14</ele>
        <time>2014-01-26T13:44:42Z</time>
      </trkpt>
      <trkpt lat="45.38868" lon="6.57437">
        <ele>1630.45</ele>
        <time>2014-01-26T13:44:48Z</time>
      </trkpt>
      <trkpt lat="45.38893" lon="6.57378">
        <ele>1624.4</ele>
        <time>2014-01-26T13:44:54Z</time>
      </trkpt>
      <trkpt lat="45.38909" lon="6.57335">
        <ele>1614.62</ele>
        <time>2014-01-26T13:45:00Z</time>
      </trkpt>
      <trkpt lat="45.38944" lon="6.57312">
        <ele>1606.54</ele>
        <time>2014-01-26T13:45:07Z</time>
      </trkpt>
      <trkpt lat="45.38973" lon="6.57282">
        <ele>1591.65</ele>
        <time>2014-01-26T13:45:14Z</time>
      </trkpt>
      <trkpt lat="45.3899" lon="6.57244">
        <ele>1579.7</ele>
        <time>2014-01-26T13:45:23Z</time>
      </trkpt>
      <trkpt lat="45.3901" lon="6.57204">
        <ele>1558.16</ele>
        <time>2014-01-26T13:45:30Z</time>
      </trkpt>
      <trkpt lat="45.39032" lon="6.57159">
        <ele>1537.09</ele>
        <time>2014-01-26T13:45:38Z</time>
      </trkpt>
      <trkpt lat="45.39042" lon="6.57108">
        <ele>1521.43</ele>
        <time>2014-01-26T13:45:48Z</time>
      </trkpt>
      <trkpt lat="45.39039" lon="6.57064">
        <ele>1505.97</ele>
        <time>2014-01-26T13:45:55Z</time>
      </trkpt>
      <trkpt lat="45.3903" lon="6.57029">
        <ele>1494.07</ele>
        <time>2014-01-26T13:46:02Z</time>
      </trkpt>
      <trkpt lat="45.39031" lon="6.56977">
        <ele>1478.98</ele>
        <time>2014-01-26T13:46:10Z</time>
      </trkpt>
      <trkpt lat="45.39063" lon="6.56936">
        <ele>1464.34</ele>
        <time>2014-01-26T13:46:16Z</time>
      </trkpt>
      <trkpt lat="45.3909" lon="6.56896">
        <ele>1450.34</ele>
        <time>2014-01-26T13:46:22Z</time>
      </trkpt>
      <trkpt lat="45.39126" lon="6.5687">
        <ele>1444.47</ele>
        <time>2014-01-26T13:46:29Z</time>
      </trkpt>
      <trkpt lat="45.39124" lon="6.56815">
        <ele>1439</ele>
        <time>2014-01-26T13:47:28Z</time>
      </trkpt>
      <trkpt lat="45.39095" lon="6.56791">
        <ele>1439</ele>
        <time>2014-01-26T13:50:36Z</time>
      </trkpt>
      <trkpt lat="45.3905" lon="6.56783">
        <ele>1439</ele>
        <time>2014-01-26T13:52:41Z</time>
      </trkpt>
      <trkpt lat="45.39008" lon="6.56772">
        <ele>1442.02</ele>
        <time>2014-01-26T13:52:50Z</time>
      </trkpt>
      <trkpt lat="45.38968" lon="6.5676">
        <ele>1452.03</ele>
        <time>2014-01-26T13:52:59Z</time>
      </trkpt>
      <trkpt lat="45.38925" lon="6.56747">
        <ele>1464.7</ele>
        <time>2014-01-26T13:53:09Z</time>
      </trkpt>
      <trkpt lat="45.38888" lon="6.56738">
        <ele>1479.26</ele>
        <time>2014-01-26T13:53:17Z</time>
      </trkpt>
      <trkpt lat="45.3885" lon="6.56723">
        <ele>1497.09</ele>
        <time>2014-01-26T13:53:27Z</time>
      </trkpt>
      <trkpt lat="45.38811" lon="6.56712">
        <ele>1509.81</ele>
        <time>2014-01-26T13:53:36Z</time>
      </trkpt>
      <trkpt lat="45.38769" lon="6.56698">
        <ele>1526.52</ele>
        <time>2014-01-26T13:53:45Z</time>
      </trkpt>
      <trkpt lat="45.3873" lon="6.56687">
        <ele>1543.51</ele>
        <time>2014-01-26T13:53:53Z</time>
      </trkpt>
      <trkpt lat="45.3869" lon="6.56673">
        <ele>1565.61</ele>
        <time>2014-01-26T13:54:03Z</time>
      </trkpt>
      <trkpt lat="45.38649" lon="6.56663">
        <ele>1584.01</ele>
        <time>2014-01-26T13:54:12Z</time>
      </trkpt>
      <trkpt lat="45.38611" lon="6.56651">
        <ele>1606.89</ele>
        <time>2014-01-26T13:54:21Z</time>
      </trkpt>
      <trkpt lat="45.38572" lon="6.56634">
        <ele>1635.49</ele>
        <time>2014-01-26T13:54:32Z</time>
      </trkpt>
      <trkpt lat="45.38536" lon="6.56625">
        <ele>1647.28</ele>
        <time>2014-01-26T13:54:41Z</time>
      </trkpt>
      <trkpt lat="45.38497" lon="6.56611">
        <ele>1658.54</ele>
        <time>2014-01-26T13:54:52Z</time>
      </trkpt>
      <trkpt lat="45.38458" lon="6.56597">
        <ele>1679.67</ele>
        <time>2014-01-26T13:55:02Z</time>
      </trkpt>
      <trkpt lat="45.38419" lon="6.56585">
        <ele>1701.78</ele>
        <time>2014-01-26T13:55:12Z</time>
      </trkpt>
      <trkpt lat="45.38382" lon="6.56568">
        <ele>1723.43</ele>
        <time>2014-01-26T13:55:25Z</time>
      </trkpt>
      <trkpt lat="45.38342" lon="6.56557">
        <ele>1742.82</ele>
        <time>2014-01-26T13:55:35Z</time>
      </trkpt>
      <trkpt lat="45.38305" lon="6.56543">
        <ele>1762.3</ele>
        <time>2014-01-26T13:55:46Z</time>
      </trkpt>
      <trkpt lat="45.38269" lon="6.56529">
        <ele>1776.39</ele>
        <time>2014-01-26T13:55:56Z</time>
      </trkpt>
      <trkpt lat="45.38231" lon="6.56515">
        <ele>1789.35</ele>
        <time>2014-01-26T13:56:06Z</time>
      </trkpt>
      <trkpt lat="45.38188" lon="6.56503">
        <ele>1801.61</ele>
        <time>2014-01-26T13:56:15Z</time>
      </trkpt>
      <trkpt lat="45.38149" lon="6.56493">
        <ele>1813.06</ele>
        <time>2014-01-26T13:56:23Z</time>
      </trkpt>
      <trkpt lat="45.38112" lon="6.56482">
        <ele>1824.73</ele>
        <time>2014-01-26T13:56:31Z</time>
      </trkpt>
      <trkpt lat="45.38071" lon="6.56468">
        <ele>1835.37</ele>
        <time>2014-01-26T13:56:41Z</time>
      </trkpt>
      <trkpt lat="45.38035" lon="6.56455">
        <ele>1840.68</ele>
        <time>2014-01-26T13:56:52Z</time>
      </trkpt>
      <trkpt lat="45.37993" lon="6.56442">
        <ele>1844.27</ele>
        <time>2014-01-26T13:57:02Z</time>
      </trkpt>
      <trkpt lat="45.37952" lon="6.56426">
        <ele>1853.87</ele>
        <time>2014-01-26T13:57:12Z</time>
      </trkpt>
      <trkpt lat="45.37916" lon="6.56414">
        <ele>1862.1</ele>
        <time>2014-01-26T13:57:20Z</time>
      </trkpt>
      <trkpt lat="45.37873" lon="6.56401">
        <ele>1878.29</ele>
        <time>2014-01-26T13:57:30Z</time>
      </trkpt>
      <trkpt lat="45.37832" lon="6.56388">
        <ele>1889.39</ele>
        <time>2014-01-26T13:57:40Z</time>
      </trkpt>
      <trkpt lat="45.37793" lon="6.5637">
        <ele>1899.42</ele>
        <time>2014-01-26T13:57:51Z</time>
      </trkpt>
      <trkpt lat="45.37755" lon="6.56355">
        <ele>1909.45</ele>
        <time>2014-01-26T13:58:00Z</time>
      </trkpt>
      <trkpt lat="45.37714" lon="6.56343">
        <ele>1915.71</ele>
        <time>2014-01-26T13:58:10Z</time>
      </trkpt>
      <trkpt lat="45.37685" lon="6.56318">
        <ele>1923.49</ele>
        <time>2014-01-26T14:01:32Z</time>
      </trkpt>
      <trkpt lat="45.3765" lon="6.56305">
        <ele>1927.9</ele>
        <time>2014-01-26T14:02:45Z</time>
      </trkpt>
      <trkpt lat="45.37609" lon="6.56299">
        <ele>1935.52</ele>
        <time>2014-01-26T14:02:56Z</time>
      </trkpt>
      <trkpt lat="45.37569" lon="6.56289">
        <ele>1948.44</ele>
        <time>2014-01-26T14:03:06Z</time>
      </trkpt>
      <trkpt lat="45.37531" lon="6.56281">
        <ele>1962.38</ele>
        <time>2014-01-26T14:03:16Z</time>
      </trkpt>
      <trkpt lat="45.37492" lon="6.56268">
        <ele>1976.81</ele>
        <time>2014-01-26T14:03:26Z</time>
      </trkpt>
      <trkpt lat="45.37455" lon="6.56255">
        <ele>1986.83</ele>
        <time>2014-01-26T14:03:34Z</time>
      </trkpt>
      <trkpt lat="45.37417" lon="6.56245">
        <ele>1991.78</ele>
        <time>2014-01-26T14:03:44Z</time>
      </trkpt>
      <trkpt lat="45.37376" lon="6.56225">
        <ele>2001.22</ele>
        <time>2014-01-26T14:03:52Z</time>
      </trkpt>
      <trkpt lat="45.37337" lon="6.56203">
        <ele>2013.2</ele>
        <time>2014-01-26T14:04:00Z</time>
      </trkpt>
      <trkpt lat="45.37297" lon="6.56186">
        <ele>2026.41</ele>
        <time>2014-01-26T14:04:09Z</time>
      </trkpt>
      <trkpt lat="45.37261" lon="6.5617">
        <ele>2038.74</ele>
        <time>2014-01-26T14:04:17Z</time>
      </trkpt>
      <trkpt lat="45.37222" lon="6.56158">
        <ele>2050.51</ele>
        <time>2014-01-26T14:04:27Z</time>
      </trkpt>
      <trkpt lat="45.37182" lon="6.56145">
        <ele>2069.37</ele>
        <time>2014-01-26T14:04:37Z</time>
      </trkpt>
      <trkpt lat="45.3714" lon="6.56124">
        <ele>2095.65</ele>
        <time>2014-01-26T14:04:45Z</time>
      </trkpt>
      <trkpt lat="45.37108" lon="6.56092">
        <ele>2121.84</ele>
        <time>2014-01-26T14:04:52Z</time>
      </trkpt>
      <trkpt lat="45.37066" lon="6.56081">
        <ele>2144.8</ele>
        <time>2014-01-26T14:05:04Z</time>
      </trkpt>
      <trkpt lat="45.37028" lon="6.56072">
        <ele>2163.3</ele>
        <time>2014-01-26T14:05:15Z</time>
      </trkpt>
      <trkpt lat="45.36988" lon="6.5606">
        <ele>2180.4</ele>
        <time>2014-01-26T14:05:25Z</time>
      </trkpt>
      <trkpt lat="45.3695" lon="6.56044">
        <ele>2188.3</ele>
        <time>2014-01-26T14:05:34Z</time>
      </trkpt>
      <trkpt lat="45.36912" lon="6.56031">
        <ele>2200.79</ele>
        <time>2014-01-26T14:05:43Z</time>
      </trkpt>
      <trkpt lat="45.3687" lon="6.56014">
        <ele>2213.3</ele>
        <time>2014-01-26T14:05:52Z</time>
      </trkpt>
      <trkpt lat="45.36833" lon="6.55999">
        <ele>2225.42</ele>
        <time>2014-01-26T14:06:01Z</time>
      </trkpt>
      <trkpt lat="45.36795" lon="6.55974">
        <ele>2248.27</ele>
        <time>2014-01-26T14:06:08Z</time>
      </trkpt>
      <trkpt lat="45.36756" lon="6.55949">
        <ele>2268.04</ele>
        <time>2014-01-26T14:06:16Z</time>
      </trkpt>
      <trkpt lat="45.36716" lon="6.55939">
        <ele>2289.45</ele>
        <time>2014-01-26T14:06:27Z</time>
      </trkpt>
      <trkpt lat="45.36677" lon="6.55933">
        <ele>2307.18</ele>
        <time>2014-01-26T14:06:38Z</time>
      </trkpt>
      <trkpt lat="45.36638" lon="6.55918">
        <ele>2328.19</ele>
        <time>2014-01-26T14:06:47Z</time>
      </trkpt>
      <trkpt lat="45.36597" lon="6.55902">
        <ele>2339.79</ele>
        <time>2014-01-26T14:06:57Z</time>
      </trkpt>
      <trkpt lat="45.36557" lon="6.55884">
        <ele>2349.75</ele>
        <time>2014-01-26T14:07:06Z</time>
      </trkpt>
      <trkpt lat="45.36517" lon="6.55867">
        <ele>2362.21</ele>
        <time>2014-01-26T14:07:16Z</time>
      </trkpt>
      <trkpt lat="45.36479" lon="6.55856">
        <ele>2376.68</ele>
        <time>2014-01-26T14:07:26Z</time>
      </trkpt>
      <trkpt lat="45.3644" lon="6.55839">
        <ele>2392.96</ele>
        <time>2014-01-26T14:07:34Z</time>
      </trkpt>
      <trkpt lat="45.36407" lon="6.55813">
        <ele>2412.57</ele>
        <time>2014-01-26T14:07:50Z</time>
      </trkpt>
      <trkpt lat="45.36428" lon="6.55767">
        <ele>2400.7</ele>
        <time>2014-01-26T14:08:52Z</time>
      </trkpt>
      <trkpt lat="45.36462" lon="6.55748">
        <ele>2397.82</ele>
        <time>2014-01-26T14:09:05Z</time>
      </trkpt>
      <trkpt lat="45.36499" lon="6.55735">
        <ele>2403.42</ele>
        <time>2014-01-26T14:09:25Z</time>
      </trkpt>
      <trkpt lat="45.36534" lon="6.55717">
        <ele>2403.4</ele>
        <time>2014-01-26T14:09:37Z</time>
      </trkpt>
      <trkpt lat="45.3657" lon="6.5569">
        <ele>2404.08</ele>
        <time>2014-01-26T14:09:48Z</time>
      </trkpt>
      <trkpt lat="45.36602" lon="6.55653">
        <ele>2381.73</ele>
        <time>2014-01-26T14:10:08Z</time>
      </trkpt>
      <trkpt lat="45.36644" lon="6.55625">
        <ele>2370.96</ele>
        <time>2014-01-26T14:10:12Z</time>
      </trkpt>
      <trkpt lat="45.36683" lon="6.55588">
        <ele>2353.88</ele>
        <time>2014-01-26T14:10:16Z</time>
      </trkpt>
      <trkpt lat="45.36716" lon="6.55551">
        <ele>2348.19</ele>
        <time>2014-01-26T14:10:20Z</time>
      </trkpt>
      <trkpt lat="45.36745" lon="6.55495">
        <ele>2342.63</ele>
        <time>2014-01-26T14:10:24Z</time>
      </trkpt>
      <trkpt lat="45.36761" lon="6.55433">
        <ele>2338.54</ele>
        <time>2014-01-26T14:10:28Z</time>
      </trkpt>
      <trkpt lat="45.3678" lon="6.55376">
        <ele>2331.57</ele>
        <time>2014-01-26T14:10:33Z</time>
      </trkpt>
      <trkpt lat="45.36818" lon="6.55327">
        <ele>2313.99</ele>
        <time>2014-01-26T14:10:37Z</time>
      </trkpt>
      <trkpt lat="45.36846" lon="6.55276">
        <ele>2305.44</ele>
        <time>2014-01-26T14:10:41Z</time>
      </trkpt>
      <trkpt lat="45.36858" lon="6.55214">
        <ele>2304.59</ele>
        <time>2014-01-26T14:10:46Z</time>
      </trkpt>
      <trkpt lat="45.36895" lon="6.55181">
        <ele>2306.16</ele>
        <time>2014-01-26T14:10:51Z</time>
      </trkpt>
      <trkpt lat="45.36935" lon="6.55148">
        <ele>2301.17</ele>
        <time>2014-01-26T14:10:56Z</time>
      </trkpt>
      <trkpt lat="45.36972" lon="6.55103">
        <ele>2297.53</ele>
        <time>2014-01-26T14:11:02Z</time>
      </trkpt>
      <trkpt lat="45.37002" lon="6.55054">
        <ele>2294.21</ele>
        <time>2014-01-26T14:11:08Z</time>
      </trkpt>
      <trkpt lat="45.37037" lon="6.5502">
        <ele>2292.2</ele>
        <time>2014-01-26T14:11:14Z</time>
      </trkpt>
      <trkpt lat="45.37083" lon="6.55007">
        <ele>2289.85</ele>
        <time>2014-01-26T14:11:20Z</time>
      </trkpt>
      <trkpt lat="45.37129" lon="6.55">
        <ele>2286.78</ele>
        <time>2014-01-26T14:11:26Z</time>
      </trkpt>
      <trkpt lat="45.3717" lon="6.54983">
        <ele>2282.09</ele>
        <time>2014-01-26T14:11:32Z</time>
      </trkpt>
      <trkpt lat="45.37207" lon="6.54972">
        <ele>2279.14</ele>
        <time>2014-01-26T14:11:53Z</time>
      </trkpt>
      <trkpt lat="45.37236" lon="6.54945">
        <ele>2268.3</ele>
        <time>2014-01-26T14:12:02Z</time>
      </trkpt>
      <trkpt lat="45.37238" lon="6.54893">
        <ele>2255.23</ele>
        <time>2014-01-26T14:12:10Z</time>
      </trkpt>
      <trkpt lat="45.37257" lon="6.54865">
        <ele>2241.43</ele>
        <time>2014-01-26T14:12:20Z</time>
      </trkpt>
      <trkpt lat="45.37279" lon="6.54847">
        <ele>2232.67</ele>
        <time>2014-01-26T14:12:28Z</time>
      </trkpt>
      <trkpt lat="45.37307" lon="6.54823">
        <ele>2222.03</ele>
        <time>2014-01-26T14:12:53Z</time>
      </trkpt>
      <trkpt lat="45.37295" lon="6.54777">
        <ele>2208.76</ele>
        <time>2014-01-26T14:13:20Z</time>
      </trkpt>
      <trkpt lat="45.37302" lon="6.54751">
        <ele>2197.6</ele>
        <time>2014-01-26T14:13:30Z</time>
      </trkpt>
      <trkpt lat="45.37336" lon="6.54722">
        <ele>2183.72</ele>
        <time>2014-01-26T14:13:37Z</time>
      </trkpt>
      <trkpt lat="45.3737" lon="6.54695">
        <ele>2171.54</ele>
        <time>2014-01-26T14:14:15Z</time>
      </trkpt>
      <trkpt lat="45.37396" lon="6.54651">
        <ele>2158.02</ele>
        <time>2014-01-26T14:14:24Z</time>
      </trkpt>
      <trkpt lat="45.37409" lon="6.54603">
        <ele>2148.27</ele>
        <time>2014-01-26T14:15:58Z</time>
      </trkpt>
      <trkpt lat="45.37411" lon="6.54555">
        <ele>2142.11</ele>
        <time>2014-01-26T14:16:45Z</time>
      </trkpt>
      <trkpt lat="45.37414" lon="6.54516">
        <ele>2133.98</ele>
        <time>2014-01-26T14:16:56Z</time>
      </trkpt>
      <trkpt lat="45.37445" lon="6.54486">
        <ele>2114.25</ele>
        <time>2014-01-26T14:17:05Z</time>
      </trkpt>
      <trkpt lat="45.37466" lon="6.5444">
        <ele>2100.39</ele>
        <time>2014-01-26T14:17:15Z</time>
      </trkpt>
      <trkpt lat="45.37478" lon="6.54397">
        <ele>2088.1</ele>
        <time>2014-01-26T14:17:22Z</time>
      </trkpt>
      <trkpt lat="45.37514" lon="6.54376">
        <ele>2080.05</ele>
        <time>2014-01-26T14:17:30Z</time>
      </trkpt>
      <trkpt lat="45.37539" lon="6.54328">
        <ele>2070.48</ele>
        <time>2014-01-26T14:17:39Z</time>
      </trkpt>
      <trkpt lat="45.37565" lon="6.54269">
        <ele>2062.08</ele>
        <time>2014-01-26T14:17:45Z</time>
      </trkpt>
      <trkpt lat="45.3759" lon="6.54228">
        <ele>2058.81</ele>
        <time>2014-01-26T14:17:54Z</time>
      </trkpt>
      <trkpt lat="45.37602" lon="6.54173">
        <ele>2052.23</ele>
        <time>2014-01-26T14:18:06Z</time>
      </trkpt>
      <trkpt lat="45.37609" lon="6.54113">
        <ele>2040.69</ele>
        <time>2014-01-26T14:18:34Z</time>
      </trkpt>
      <trkpt lat="45.37617" lon="6.54057">
        <ele>2028.67</ele>
        <time>2014-01-26T14:18:38Z</time>
      </trkpt>
      <trkpt lat="45.37623" lon="6.53993">
        <ele>2022.61</ele>
        <time>2014-01-26T14:18:42Z</time>
      </trkpt>
      <trkpt lat="45.37606" lon="6.53952">
        <ele>2016.49</ele>
        <time>2014-01-26T14:18:49Z</time>
      </trkpt>
      <trkpt lat="45.37591" lon="6.53899">
        <ele>2008.42</ele>
        <time>2014-01-26T14:19:07Z</time>
      </trkpt>
      <trkpt lat="45.37591" lon="6.53823">
        <ele>1996.04</ele>
        <time>2014-01-26T14:19:12Z</time>
      </trkpt>
      <trkpt lat="45.37594" lon="6.53742">
        <ele>1982.61</ele>
        <time>2014-01-26T14:19:16Z</time>
      </trkpt>
      <trkpt lat="45.376" lon="6.53664">
        <ele>1974.37</ele>
        <time>2014-01-26T14:19:20Z</time>
      </trkpt>
      <trkpt lat="45.37605" lon="6.53605">
        <ele>1969.85</ele>
        <time>2014-01-26T14:19:25Z</time>
      </trkpt>
      <trkpt lat="45.37608" lon="6.53528">
        <ele>1960.84</ele>
        <time>2014-01-26T14:19:31Z</time>
      </trkpt>
      <trkpt lat="45.37618" lon="6.53467">
        <ele>1953.11</ele>
        <time>2014-01-26T14:19:37Z</time>
      </trkpt>
      <trkpt lat="45.37643" lon="6.53403">
        <ele>1942.49</ele>
        <time>2014-01-26T14:19:42Z</time>
      </trkpt>
      <trkpt lat="45.37649" lon="6.53339">
        <ele>1937.83</ele>
        <time>2014-01-26T14:19:46Z</time>
      </trkpt>
      <trkpt lat="45.37658" lon="6.53282">
        <ele>1934.8</ele>
        <time>2014-01-26T14:19:50Z</time>
      </trkpt>
      <trkpt lat="45.37662" lon="6.5323">
        <ele>1931.74</ele>
        <time>2014-01-26T14:19:54Z</time>
      </trkpt>
      <trkpt lat="45.37657" lon="6.53166">
        <ele>1926.46</ele>
        <time>2014-01-26T14:20:00Z</time>
      </trkpt>
      <trkpt lat="45.37639" lon="6.53113">
        <ele>1915.98</ele>
        <time>2014-01-26T14:20:11Z</time>
      </trkpt>
      <trkpt lat="45.37617" lon="6.53062">
        <ele>1909.68</ele>
        <time>2014-01-26T14:20:16Z</time>
      </trkpt>
      <trkpt lat="45.37603" lon="6.53007">
        <ele>1894.8</ele>
        <time>2014-01-26T14:20:22Z</time>
      </trkpt>
      <trkpt lat="45.37601" lon="6.52945">
        <ele>1884.03</ele>
        <time>2014-01-26T14:20:28Z</time>
      </trkpt>
      <trkpt lat="45.37611" lon="6.52894">
        <ele>1874.21</ele>
        <time>2014-01-26T14:20:34Z</time>
      </trkpt>
      <trkpt lat="45.37603" lon="6.52834">
        <ele>1859.27</ele>
        <time>2014-01-26T14:20:42Z</time>
      </trkpt>
      <trkpt lat="45.37594" lon="6.52776">
        <ele>1848.25</ele>
        <time>2014-01-26T14:20:46Z</time>
      </trkpt>
      <trkpt lat="45.3759" lon="6.52714">
        <ele>1838.66</ele>
        <time>2014-01-26T14:20:50Z</time>
      </trkpt>
      <trkpt lat="45.37568" lon="6.52668">
        <ele>1825.59</ele>
        <time>2014-01-26T14:21:12Z</time>
      </trkpt>
      <trkpt lat="45.3753" lon="6.52687">
        <ele>1822.5</ele>
        <time>2014-01-26T14:22:36Z</time>
      </trkpt>
      <trkpt lat="45.37493" lon="6.52707">
        <ele>1822.6</ele>
        <time>2014-01-26T14:22:45Z</time>
      </trkpt>
      <trkpt lat="45.37457" lon="6.52722">
        <ele>1820.87</ele>
        <time>2014-01-26T14:22:55Z</time>
      </trkpt>
      <trkpt lat="45.37429" lon="6.52754">
        <ele>1808.29</ele>
        <time>2014-01-26T14:23:17Z</time>
      </trkpt>
      <trkpt lat="45.3741" lon="6.52804">
        <ele>1802.74</ele>
        <time>2014-01-26T14:23:26Z</time>
      </trkpt>
      <trkpt lat="45.37392" lon="6.52853">
        <ele>1800.34</ele>
        <time>2014-01-26T14:23:32Z</time>
      </trkpt>
      <trkpt lat="45.37369" lon="6.52904">
        <ele>1804.65</ele>
        <time>2014-01-26T14:23:38Z</time>
      </trkpt>
      <trkpt lat="45.37333" lon="6.5293">
        <ele>1803.93</ele>
        <time>2014-01-26T14:23:44Z</time>
      </trkpt>
      <trkpt lat="45.37294" lon="6.5293">
        <ele>1800.47</ele>
        <time>2014-01-26T14:23:51Z</time>
      </trkpt>
      <trkpt lat="45.37299" lon="6.52873">
        <ele>1795.49</ele>
        <time>2014-01-26T14:24:01Z</time>
      </trkpt>
      <trkpt lat="45.373" lon="6.52812">
        <ele>1791.82</ele>
        <time>2014-01-26T14:24:07Z</time>
      </trkpt>
      <trkpt lat="45.37297" lon="6.52746">
        <ele>1787.1</ele>
        <time>2014-01-26T14:24:13Z</time>
      </trkpt>
      <trkpt lat="45.37289" lon="6.52679">
        <ele>1777.13</ele>
        <time>2014-01-26T14:24:19Z</time>
      </trkpt>
      <trkpt lat="45.3728" lon="6.52621">
        <ele>1771.99</ele>
        <time>2014-01-26T14:24:23Z</time>
      </trkpt>
      <trkpt lat="45.3727" lon="6.52559">
        <ele>1767.67</ele>
        <time>2014-01-26T14:24:27Z</time>
      </trkpt>
      <trkpt lat="45.37281" lon="6.52497">
        <ele>1762.06</ele>
        <time>2014-01-26T14:24:33Z</time>
      </trkpt>
      <trkpt lat="45.37309" lon="6.52453">
        <ele>1755.6</ele>
        <time>2014-01-26T14:24:39Z</time>
      </trkpt>
      <trkpt lat="45.37339" lon="6.5241">
        <ele>1756.63</ele>
        <time>2014-01-26T14:24:45Z</time>
      </trkpt>
      <trkpt lat="45.3737" lon="6.52371">
        <ele>1752.8</ele>
        <time>2014-01-26T14:24:51Z</time>
      </trkpt>
      <trkpt lat="45.37408" lon="6.52352">
        <ele>1752.97</ele>
        <time>2014-01-26T14:24:56Z</time>
      </trkpt>
      <trkpt lat="45.37452" lon="6.5233">
        <ele>1741.88</ele>
        <time>2014-01-26T14:25:00Z</time>
      </trkpt>
      <trkpt lat="45.37499" lon="6.52303">
        <ele>1733.43</ele>
        <time>2014-01-26T14:25:04Z</time>
      </trkpt>
      <trkpt lat="45.37533" lon="6.52262">
        <ele>1723.86</ele>
        <time>2014-01-26T14:25:08Z</time>
      </trkpt>
      <trkpt lat="45.37549" lon="6.52209">
        <ele>1717.14</ele>
        <time>2014-01-26T14:25:12Z</time>
      </trkpt>
      <trkpt lat="45.37555" lon="6.52153">
        <ele>1711.02</ele>
        <time>2014-01-26T14:25:17Z</time>
      </trkpt>
      <trkpt lat="45.37593" lon="6.52133">
        <ele>1719.05</ele>
        <time>2014-01-26T14:26:58Z</time>
      </trkpt>
      <trkpt lat="45.37634" lon="6.52151">
        <ele>1720.26</ele>
        <time>2014-01-26T14:27:04Z</time>
      </trkpt>
      <trkpt lat="45.37653" lon="6.521">
        <ele>1703.52</ele>
        <time>2014-01-26T14:27:10Z</time>
      </trkpt>
      <trkpt lat="45.37627" lon="6.52051">
        <ele>1697.18</ele>
        <time>2014-01-26T14:27:14Z</time>
      </trkpt>
      <trkpt lat="45.3761" lon="6.51994">
        <ele>1688.91</ele>
        <time>2014-01-26T14:27:19Z</time>
      </trkpt>
      <trkpt lat="45.37621" lon="6.51938">
        <ele>1680.08</ele>
        <time>2014-01-26T14:27:25Z</time>
      </trkpt>
      <trkpt lat="45.3766" lon="6.51926">
        <ele>1681.99</ele>
        <time>2014-01-26T14:27:30Z</time>
      </trkpt>
      <trkpt lat="45.377" lon="6.51913">
        <ele>1672.97</ele>
        <time>2014-01-26T14:27:34Z</time>
      </trkpt>
      <trkpt lat="45.37735" lon="6.51886">
        <ele>1667.63</ele>
        <time>2014-01-26T14:27:38Z</time>
      </trkpt>
      <trkpt lat="45.37759" lon="6.51833">
        <ele>1654.11</ele>
        <time>2014-01-26T14:27:43Z</time>
      </trkpt>
      <trkpt lat="45.37755" lon="6.51767">
        <ele>1646.03</ele>
        <time>2014-01-26T14:27:47Z</time>
      </trkpt>
      <trkpt lat="45.37726" lon="6.51714">
        <ele>1640.31</ele>
        <time>2014-01-26T14:27:51Z</time>
      </trkpt>
      <trkpt lat="45.37697" lon="6.51672">
        <ele>1637.58</ele>
        <time>2014-01-26T14:27:55Z</time>
      </trkpt>
      <trkpt lat="45.37671" lon="6.51619">
        <ele>1637.01</ele>
        <time>2014-01-26T14:28:00Z</time>
      </trkpt>
      <trkpt lat="45.3765" lon="6.51556">
        <ele>1630.42</ele>
        <time>2014-01-26T14:28:06Z</time>
      </trkpt>
      <trkpt lat="45.37624" lon="6.51491">
        <ele>1621.43</ele>
        <time>2014-01-26T14:28:12Z</time>
      </trkpt>
      <trkpt lat="45.37602" lon="6.51436">
        <ele>1610.67</ele>
        <time>2014-01-26T14:28:18Z</time>
      </trkpt>
      <trkpt lat="45.37576" lon="6.51392">
        <ele>1601.36</ele>
        <time>2014-01-26T14:28:25Z</time>
      </trkpt>
      <trkpt lat="45.3755" lon="6.51331">
        <ele>1591.57</ele>
        <time>2014-01-26T14:28:31Z</time>
      </trkpt>
      <trkpt lat="45.37532" lon="6.51272">
        <ele>1583.64</ele>
        <time>2014-01-26T14:28:35Z</time>
      </trkpt>
      <trkpt lat="45.3752" lon="6.51222">
        <ele>1577.15</ele>
        <time>2014-01-26T14:28:39Z</time>
      </trkpt>
      <trkpt lat="45.37501" lon="6.51162">
        <ele>1568.38</ele>
        <time>2014-01-26T14:28:45Z</time>
      </trkpt>
      <trkpt lat="45.37475" lon="6.51116">
        <ele>1559.55</ele>
        <time>2014-01-26T14:28:51Z</time>
      </trkpt>
      <trkpt lat="45.37472" lon="6.5106">
        <ele>1554.29</ele>
        <time>2014-01-26T14:28:56Z</time>
      </trkpt>
      <trkpt lat="45.37491" lon="6.51012">
        <ele>1549.4</ele>
        <time>2014-01-26T14:29:02Z</time>
      </trkpt>
      <trkpt lat="45.37513" lon="6.50965">
        <ele>1534.02</ele>
        <time>2014-01-26T14:29:07Z</time>
      </trkpt>
      <trkpt lat="45.37522" lon="6.50899">
        <ele>1514.69</ele>
        <time>2014-01-26T14:29:13Z</time>
      </trkpt>
      <trkpt lat="45.37547" lon="6.50835">
        <ele>1507.38</ele>
        <time>2014-01-26T14:29:19Z</time>
      </trkpt>
      <trkpt lat="45.37582" lon="6.50795">
        <ele>1499.07</ele>
        <time>2014-01-26T14:29:26Z</time>
      </trkpt>
      <trkpt lat="45.37615" lon="6.50767">
        <ele>1490.97</ele>
        <time>2014-01-26T14:29:34Z</time>
      </trkpt>
      <trkpt lat="45.37664" lon="6.50744">
        <ele>1476.47</ele>
        <time>2014-01-26T14:29:40Z</time>
      </trkpt>
      <trkpt lat="45.37679" lon="6.50689">
        <ele>1462.94</ele>
        <time>2014-01-26T14:29:45Z</time>
      </trkpt>
      <trkpt lat="45.37679" lon="6.50636">
        <ele>1453.74</ele>
        <time>2014-01-26T14:29:50Z</time>
      </trkpt>
      <trkpt lat="45.37699" lon="6.50579">
        <ele>1441.36</ele>
        <time>2014-01-26T14:29:56Z</time>
      </trkpt>
      <trkpt lat="45.37713" lon="6.50521">
        <ele>1433.44</ele>
        <time>2014-01-26T14:30:04Z</time>
      </trkpt>
      <trkpt lat="45.3771" lon="6.50467">
        <ele>1428</ele>
        <time>2014-01-26T14:30:10Z</time>
      </trkpt>
      <trkpt lat="45.3768" lon="6.50439">
        <ele>1424.83</ele>
        <time>2014-01-26T14:31:33Z</time>
      </trkpt>
      <trkpt lat="45.37669" lon="6.50494">
        <ele>1432.02</ele>
        <time>2014-01-26T14:33:21Z</time>
      </trkpt>
      <trkpt lat="45.37663" lon="6.50551">
        <ele>1441.59</ele>
        <time>2014-01-26T14:33:31Z</time>
      </trkpt>
      <trkpt lat="45.37658" lon="6.50605">
        <ele>1451.66</ele>
        <time>2014-01-26T14:33:39Z</time>
      </trkpt>
      <trkpt lat="45.37653" lon="6.50665">
        <ele>1464.24</ele>
        <time>2014-01-26T14:33:49Z</time>
      </trkpt>
      <trkpt lat="45.37644" lon="6.50716">
        <ele>1477.9</ele>
        <time>2014-01-26T14:33:59Z</time>
      </trkpt>
      <trkpt lat="45.37635" lon="6.50771">
        <ele>1487.67</ele>
        <time>2014-01-26T14:34:10Z</time>
      </trkpt>
      <trkpt lat="45.37622" lon="6.50824">
        <ele>1494.1</ele>
        <time>2014-01-26T14:34:22Z</time>
      </trkpt>
      <trkpt lat="45.37614" lon="6.5088">
        <ele>1505.37</ele>
        <time>2014-01-26T14:34:32Z</time>
      </trkpt>
      <trkpt lat="45.37607" lon="6.50943">
        <ele>1516.52</ele>
        <time>2014-01-26T14:34:42Z</time>
      </trkpt>
      <trkpt lat="45.37602" lon="6.50995">
        <ele>1527.38</ele>
        <time>2014-01-26T14:34:50Z</time>
      </trkpt>
      <trkpt lat="45.37595" lon="6.5105">
        <ele>1541.62</ele>
        <time>2014-01-26T14:35:00Z</time>
      </trkpt>
      <trkpt lat="45.37584" lon="6.51107">
        <ele>1550.57</ele>
        <time>2014-01-26T14:35:12Z</time>
      </trkpt>
      <trkpt lat="45.37574" lon="6.51163">
        <ele>1571.34</ele>
        <time>2014-01-26T14:35:23Z</time>
      </trkpt>
      <trkpt lat="45.37564" lon="6.51223">
        <ele>1581.37</ele>
        <time>2014-01-26T14:35:35Z</time>
      </trkpt>
      <trkpt lat="45.37556" lon="6.5128">
        <ele>1586.29</ele>
        <time>2014-01-26T14:35:45Z</time>
      </trkpt>
      <trkpt lat="45.37546" lon="6.51337">
        <ele>1591.98</ele>
        <time>2014-01-26T14:35:55Z</time>
      </trkpt>
      <trkpt lat="45.37539" lon="6.51394">
        <ele>1596.64</ele>
        <time>2014-01-26T14:36:05Z</time>
      </trkpt>
      <trkpt lat="45.37533" lon="6.51448">
        <ele>1600.69</ele>
        <time>2014-01-26T14:36:14Z</time>
      </trkpt>
      <trkpt lat="45.37524" lon="6.51503">
        <ele>1610.12</ele>
        <time>2014-01-26T14:36:24Z</time>
      </trkpt>
      <trkpt lat="45.37516" lon="6.51562">
        <ele>1618.22</ele>
        <time>2014-01-26T14:36:34Z</time>
      </trkpt>
      <trkpt lat="45.37507" lon="6.5162">
        <ele>1619.49</ele>
        <time>2014-01-26T14:36:44Z</time>
      </trkpt>
      <trkpt lat="45.375" lon="6.51676">
        <ele>1620.42</ele>
        <time>2014-01-26T14:36:54Z</time>
      </trkpt>
      <trkpt lat="45.37491" lon="6.51729">
        <ele>1620.72</ele>
        <time>2014-01-26T14:37:04Z</time>
      </trkpt>
      <trkpt lat="45.37482" lon="6.51784">
        <ele>1619.91</ele>
        <time>2014-01-26T14:37:14Z</time>
      </trkpt>
      <trkpt lat="45.37474" lon="6.5184">
        <ele>1620.66</ele>
        <time>2014-01-26T14:37:24Z</time>
      </trkpt>
      <trkpt lat="45.37467" lon="6.51899">
        <ele>1628.68</ele>
        <time>2014-01-26T14:37:34Z</time>
      </trkpt>
      <trkpt lat="45.37459" lon="6.51957">
        <ele>1645.93</ele>
        <time>2014-01-26T14:37:44Z</time>
      </trkpt>
      <trkpt lat="45.3745" lon="6.52013">
        <ele>1660.51</ele>
        <time>2014-01-26T14:37:54Z</time>
      </trkpt>
      <trkpt lat="45.37442" lon="6.52065">
        <ele>1673.7</ele>
        <time>2014-01-26T14:38:04Z</time>
      </trkpt>
      <trkpt lat="45.37434" lon="6.5212">
        <ele>1694.61</ele>
        <time>2014-01-26T14:38:14Z</time>
      </trkpt>
      <trkpt lat="45.37427" lon="6.52174">
        <ele>1708.29</ele>
        <time>2014-01-26T14:38:24Z</time>
      </trkpt>
      <trkpt lat="45.37418" lon="6.52232">
        <ele>1719.03</ele>
        <time>2014-01-26T14:38:35Z</time>
      </trkpt>
      <trkpt lat="45.37409" lon="6.5229">
        <ele>1735.18</ele>
        <time>2014-01-26T14:38:45Z</time>
      </trkpt>
      <trkpt lat="45.37401" lon="6.52344">
        <ele>1750.88</ele>
        <time>2014-01-26T14:38:55Z</time>
      </trkpt>
      <trkpt lat="45.37393" lon="6.524">
        <ele>1761.43</ele>
        <time>2014-01-26T14:39:05Z</time>
      </trkpt>
      <trkpt lat="45.37386" lon="6.52453">
        <ele>1772.74</ele>
        <time>2014-01-26T14:39:15Z</time>
      </trkpt>
      <trkpt lat="45.37379" lon="6.52507">
        <ele>1787.69</ele>
        <time>2014-01-26T14:39:25Z</time>
      </trkpt>
      <trkpt lat="45.3737" lon="6.52562">
        <ele>1783.24</ele>
        <time>2014-01-26T14:39:36Z</time>
      </trkpt>
      <trkpt lat="45.3736" lon="6.52615">
        <ele>1779.88</ele>
        <time>2014-01-26T14:39:46Z</time>
      </trkpt>
      <trkpt lat="45.37352" lon="6.52672">
        <ele>1780.67</ele>
        <time>2014-01-26T14:39:56Z</time>
      </trkpt>
      <trkpt lat="45.37344" lon="6.52727">
        <ele>1788.05</ele>
        <time>2014-01-26T14:40:06Z</time>
      </trkpt>
      <trkpt lat="45.37335" lon="6.52786">
        <ele>1789.54</ele>
        <time>2014-01-26T14:40:16Z</time>
      </trkpt>
      <trkpt lat="45.37327" lon="6.52844">
        <ele>1795.21</ele>
        <time>2014-01-26T14:40:26Z</time>
      </trkpt>
      <trkpt lat="45.37309" lon="6.52885">
        <ele>1797.91</ele>
        <time>2014-01-26T14:42:16Z</time>
      </trkpt>
      <trkpt lat="45.37274" lon="6.52862">
        <ele>1791.01</ele>
        <time>2014-01-26T14:42:38Z</time>
      </trkpt>
      <trkpt lat="45.37252" lon="6.52904">
        <ele>1791.14</ele>
        <time>2014-01-26T14:43:42Z</time>
      </trkpt>
      <trkpt lat="45.3724" lon="6.52963">
        <ele>1802.25</ele>
        <time>2014-01-26T14:43:51Z</time>
      </trkpt>
      <trkpt lat="45.37225" lon="6.53011">
        <ele>1808.69</ele>
        <time>2014-01-26T14:43:59Z</time>
      </trkpt>
      <trkpt lat="45.37207" lon="6.53067">
        <ele>1816.07</ele>
        <time>2014-01-26T14:44:09Z</time>
      </trkpt>
      <trkpt lat="45.37186" lon="6.53117">
        <ele>1826.95</ele>
        <time>2014-01-26T14:44:18Z</time>
      </trkpt>
      <trkpt lat="45.37172" lon="6.53173">
        <ele>1849.16</ele>
        <time>2014-01-26T14:44:27Z</time>
      </trkpt>
      <trkpt lat="45.37162" lon="6.53226">
        <ele>1865.21</ele>
        <time>2014-01-26T14:44:37Z</time>
      </trkpt>
      <trkpt lat="45.37146" lon="6.53277">
        <ele>1875.4</ele>
        <time>2014-01-26T14:44:46Z</time>
      </trkpt>
      <trkpt lat="45.37131" lon="6.53327">
        <ele>1882.51</ele>
        <time>2014-01-26T14:44:55Z</time>
      </trkpt>
      <trkpt lat="45.37116" lon="6.5338">
        <ele>1888.78</ele>
        <time>2014-01-26T14:45:04Z</time>
      </trkpt>
      <trkpt lat="45.37098" lon="6.53435">
        <ele>1898.57</ele>
        <time>2014-01-26T14:45:14Z</time>
      </trkpt>
      <trkpt lat="45.37083" lon="6.53487">
        <ele>1905.58</ele>
        <time>2014-01-26T14:45:23Z</time>
      </trkpt>
      <trkpt lat="45.37067" lon="6.53542">
        <ele>1913.8</ele>
        <time>2014-01-26T14:45:33Z</time>
      </trkpt>
      <trkpt lat="45.37051" lon="6.53597">
        <ele>1926.6</ele>
        <time>2014-01-26T14:45:43Z</time>
      </trkpt>
      <trkpt lat="45.37036" lon="6.53652">
        <ele>1938.15</ele>
        <time>2014-01-26T14:45:53Z</time>
      </trkpt>
      <trkpt lat="45.37023" lon="6.53705">
        <ele>1949.62</ele>
        <time>2014-01-26T14:46:03Z</time>
      </trkpt>
      <trkpt lat="45.37015" lon="6.53757">
        <ele>1965.97</ele>
        <time>2014-01-26T14:46:13Z</time>
      </trkpt>
      <trkpt lat="45.36999" lon="6.53809">
        <ele>1975.82</ele>
        <time>2014-01-26T14:46:22Z</time>
      </trkpt>
      <trkpt lat="45.36987" lon="6.53865">
        <ele>1990.51</ele>
        <time>2014-01-26T14:46:32Z</time>
      </trkpt>
      <trkpt lat="45.36973" lon="6.53921">
        <ele>1998.79</ele>
        <time>2014-01-26T14:46:43Z</time>
      </trkpt>
      <trkpt lat="45.36955" lon="6.53974">
        <ele>2003.36</ele>
        <time>2014-01-26T14:46:58Z</time>
      </trkpt>
      <trkpt lat="45.3694" lon="6.54024">
        <ele>2010.54</ele>
        <time>2014-01-26T14:47:13Z</time>
      </trkpt>
      <trkpt lat="45.36926" lon="6.54074">
        <ele>2019.42</ele>
        <time>2014-01-26T14:47:28Z</time>
      </trkpt>
      <trkpt lat="45.36915" lon="6.5413">
        <ele>2044.43</ele>
        <time>2014-01-26T14:47:42Z</time>
      </trkpt>
      <trkpt lat="45.369" lon="6.54183">
        <ele>2066.9</ele>
        <time>2014-01-26T14:47:51Z</time>
      </trkpt>
      <trkpt lat="45.36884" lon="6.54233">
        <ele>2080.32</ele>
        <time>2014-01-26T14:48:00Z</time>
      </trkpt>
      <trkpt lat="45.36871" lon="6.54285">
        <ele>2093.07</ele>
        <time>2014-01-26T14:48:10Z</time>
      </trkpt>
      <trkpt lat="45.36857" lon="6.54337">
        <ele>2098.96</ele>
        <time>2014-01-26T14:48:19Z</time>
      </trkpt>
      <trkpt lat="45.36841" lon="6.54386">
        <ele>2098.73</ele>
        <time>2014-01-26T14:48:27Z</time>
      </trkpt>
      <trkpt lat="45.36825" lon="6.54438">
        <ele>2103.85</ele>
        <time>2014-01-26T14:48:36Z</time>
      </trkpt>
      <trkpt lat="45.36809" lon="6.54493">
        <ele>2118.72</ele>
        <time>2014-01-26T14:48:46Z</time>
      </trkpt>
      <trkpt lat="45.36793" lon="6.54551">
        <ele>2127.78</ele>
        <time>2014-01-26T14:48:57Z</time>
      </trkpt>
      <trkpt lat="45.3678" lon="6.54599">
        <ele>2129.91</ele>
        <time>2014-01-26T14:49:05Z</time>
      </trkpt>
      <trkpt lat="45.36763" lon="6.54657">
        <ele>2138.67</ele>
        <time>2014-01-26T14:49:15Z</time>
      </trkpt>
      <trkpt lat="45.36749" lon="6.54711">
        <ele>2154.37</ele>
        <time>2014-01-26T14:49:25Z</time>
      </trkpt>
      <trkpt lat="45.36736" lon="6.54768">
        <ele>2186.65</ele>
        <time>2014-01-26T14:49:35Z</time>
      </trkpt>
      <trkpt lat="45.36719" lon="6.54819">
        <ele>2188.71</ele>
        <time>2014-01-26T14:49:45Z</time>
      </trkpt>
      <trkpt lat="45.36702" lon="6.54874">
        <ele>2195.85</ele>
        <time>2014-01-26T14:49:55Z</time>
      </trkpt>
      <trkpt lat="45.36686" lon="6.54931">
        <ele>2196.38</ele>
        <time>2014-01-26T14:50:05Z</time>
      </trkpt>
      <trkpt lat="45.36669" lon="6.54988">
        <ele>2197.16</ele>
        <time>2014-01-26T14:50:15Z</time>
      </trkpt>
      <trkpt lat="45.36653" lon="6.55041">
        <ele>2205.8</ele>
        <time>2014-01-26T14:50:24Z</time>
      </trkpt>
      <trkpt lat="45.36638" lon="6.55092">
        <ele>2219.92</ele>
        <time>2014-01-26T14:50:33Z</time>
      </trkpt>
      <trkpt lat="45.36625" lon="6.55149">
        <ele>2237.03</ele>
        <time>2014-01-26T14:50:43Z</time>
      </trkpt>
      <trkpt lat="45.36613" lon="6.552">
        <ele>2248.96</ele>
        <time>2014-01-26T14:50:53Z</time>
      </trkpt>
      <trkpt lat="45.36596" lon="6.55253">
        <ele>2258.5</ele>
        <time>2014-01-26T14:51:02Z</time>
      </trkpt>
      <trkpt lat="45.36579" lon="6.55304">
        <ele>2263.44</ele>
        <time>2014-01-26T14:51:11Z</time>
      </trkpt>
      <trkpt lat="45.36565" lon="6.55358">
        <ele>2271.25</ele>
        <time>2014-01-26T14:51:21Z</time>
      </trkpt>
      <trkpt lat="45.3655" lon="6.55415">
        <ele>2286.5</ele>
        <time>2014-01-26T14:51:31Z</time>
      </trkpt>
      <trkpt lat="45.36533" lon="6.55472">
        <ele>2294.46</ele>
        <time>2014-01-26T14:51:41Z</time>
      </trkpt>
      <trkpt lat="45.36517" lon="6.55521">
        <ele>2306.75</ele>
        <time>2014-01-26T14:51:50Z</time>
      </trkpt>
      <trkpt lat="45.36501" lon="6.55574">
        <ele>2321.41</ele>
        <time>2014-01-26T14:52:01Z</time>
      </trkpt>
      <trkpt lat="45.3649" lon="6.55631">
        <ele>2351.42</ele>
        <time>2014-01-26T14:52:13Z</time>
      </trkpt>
      <trkpt lat="45.36475" lon="6.55679">
        <ele>2371.78</ele>
        <time>2014-01-26T14:52:23Z</time>
      </trkpt>
      <trkpt lat="45.36462" lon="6.5573">
        <ele>2389.91</ele>
        <time>2014-01-26T14:52:34Z</time>
      </trkpt>
      <trkpt lat="45.36429" lon="6.55747">
        <ele>2392.21</ele>
        <time>2014-01-26T14:53:30Z</time>
      </trkpt>
      <trkpt lat="45.3639" lon="6.55747">
        <ele>2391.27</ele>
        <time>2014-01-26T14:53:43Z</time>
      </trkpt>
      <trkpt lat="45.36354" lon="6.5572">
        <ele>2383.2</ele>
        <time>2014-01-26T14:53:49Z</time>
      </trkpt>
      <trkpt lat="45.36332" lon="6.55686">
        <ele>2370.13</ele>
        <time>2014-01-26T14:54:07Z</time>
      </trkpt>
      <trkpt lat="45.36353" lon="6.55621">
        <ele>2358.98</ele>
        <time>2014-01-26T14:54:13Z</time>
      </trkpt>
      <trkpt lat="45.36392" lon="6.55584">
        <ele>2352.76</ele>
        <time>2014-01-26T14:54:20Z</time>
      </trkpt>
      <trkpt lat="45.36422" lon="6.55553">
        <ele>2339.34</ele>
        <time>2014-01-26T14:54:28Z</time>
      </trkpt>
      <trkpt lat="45.36436" lon="6.55506">
        <ele>2318.95</ele>
        <time>2014-01-26T14:54:35Z</time>
      </trkpt>
      <trkpt lat="45.36437" lon="6.55454">
        <ele>2304.86</ele>
        <time>2014-01-26T14:54:41Z</time>
      </trkpt>
      <trkpt lat="45.36458" lon="6.55403">
        <ele>2290.34</ele>
        <time>2014-01-26T14:54:47Z</time>
      </trkpt>
      <trkpt lat="45.36466" lon="6.55348">
        <ele>2280.61</ele>
        <time>2014-01-26T14:54:59Z</time>
      </trkpt>
      <trkpt lat="45.3646" lon="6.55287">
        <ele>2266.64</ele>
        <time>2014-01-26T14:55:07Z</time>
      </trkpt>
      <trkpt lat="45.36463" lon="6.55217">
        <ele>2249.42</ele>
        <time>2014-01-26T14:55:14Z</time>
      </trkpt>
      <trkpt lat="45.36466" lon="6.55156">
        <ele>2238.6</ele>
        <time>2014-01-26T14:55:20Z</time>
      </trkpt>
      <trkpt lat="45.36482" lon="6.55103">
        <ele>2226.09</ele>
        <time>2014-01-26T14:55:29Z</time>
      </trkpt>
      <trkpt lat="45.36484" lon="6.55054">
        <ele>2211.89</ele>
        <time>2014-01-26T14:55:38Z</time>
      </trkpt>
      <trkpt lat="45.36475" lon="6.54996">
        <ele>2191.81</ele>
        <time>2014-01-26T14:55:45Z</time>
      </trkpt>
      <trkpt lat="45.36482" lon="6.54943">
        <ele>2183.44</ele>
        <time>2014-01-26T14:55:50Z</time>
      </trkpt>
      <trkpt lat="45.36492" lon="6.54887">
        <ele>2174.14</ele>
        <time>2014-01-26T14:55:54Z</time>
      </trkpt>
      <trkpt lat="45.36503" lon="6.5483">
        <ele>2164.6</ele>
        <time>2014-01-26T14:55:58Z</time>
      </trkpt>
      <trkpt lat="45.36509" lon="6.54772">
        <ele>2156.09</ele>
        <time>2014-01-26T14:56:44Z</time>
      </trkpt>
      <trkpt lat="45.365" lon="6.54709">
        <ele>2137.09</ele>
        <time>2014-01-26T14:56:49Z</time>
      </trkpt>
      <trkpt lat="45.36484" lon="6.54654">
        <ele>2133.31</ele>
        <time>2014-01-26T14:56:53Z</time>
      </trkpt>
      <trkpt lat="45.36483" lon="6.5459">
        <ele>2125.89</ele>
        <time>2014-01-26T14:56:58Z</time>
      </trkpt>
      <trkpt lat="45.36496" lon="6.5452">
        <ele>2110.15</ele>
        <time>2014-01-26T14:57:02Z</time>
      </trkpt>
      <trkpt lat="45.3652" lon="6.54459">
        <ele>2101.67</ele>
        <time>2014-01-26T14:57:06Z</time>
      </trkpt>
      <trkpt lat="45.36551" lon="6.54402">
        <ele>2094.02</ele>
        <time>2014-01-26T14:57:11Z</time>
      </trkpt>
      <trkpt lat="45.36574" lon="6.54362">
        <ele>2087.8</ele>
        <time>2014-01-26T14:58:07Z</time>
      </trkpt>
      <trkpt lat="45.36586" lon="6.54311">
        <ele>2079.37</ele>
        <time>2014-01-26T14:58:16Z</time>
      </trkpt>
      <trkpt lat="45.36599" lon="6.54248">
        <ele>2071.1</ele>
        <time>2014-01-26T14:58:22Z</time>
      </trkpt>
      <trkpt lat="45.36627" lon="6.54201">
        <ele>2063.15</ele>
        <time>2014-01-26T14:58:28Z</time>
      </trkpt>
      <trkpt lat="45.3666" lon="6.54165">
        <ele>2053.87</ele>
        <time>2014-01-26T14:58:35Z</time>
      </trkpt>
      <trkpt lat="45.36672" lon="6.54106">
        <ele>2036.97</ele>
        <time>2014-01-26T14:58:41Z</time>
      </trkpt>
      <trkpt lat="45.36688" lon="6.5404">
        <ele>2022.66</ele>
        <time>2014-01-26T14:58:45Z</time>
      </trkpt>
      <trkpt lat="45.36702" lon="6.53977">
        <ele>2011.59</ele>
        <time>2014-01-26T14:58:49Z</time>
      </trkpt>
      <trkpt lat="45.36713" lon="6.5392">
        <ele>2006.38</ele>
        <time>2014-01-26T14:58:53Z</time>
      </trkpt>
      <trkpt lat="45.36738" lon="6.53867">
        <ele>1998.57</ele>
        <time>2014-01-26T14:58:58Z</time>
      </trkpt>
      <trkpt lat="45.3678" lon="6.53856">
        <ele>1990.84</ele>
        <time>2014-01-26T14:59:03Z</time>
      </trkpt>
      <trkpt lat="45.36821" lon="6.53861">
        <ele>1988.85</ele>
        <time>2014-01-26T14:59:07Z</time>
      </trkpt>
      <trkpt lat="45.36862" lon="6.53858">
        <ele>1984.2</ele>
        <time>2014-01-26T14:59:11Z</time>
      </trkpt>
      <trkpt lat="45.36899" lon="6.53839">
        <ele>1978.34</ele>
        <time>2014-01-26T14:59:15Z</time>
      </trkpt>
      <trkpt lat="45.36929" lon="6.53795">
        <ele>1970.81</ele>
        <time>2014-01-26T14:59:41Z</time>
      </trkpt>
      <trkpt lat="45.36931" lon="6.53731">
        <ele>1955.42</ele>
        <time>2014-01-26T14:59:48Z</time>
      </trkpt>
      <trkpt lat="45.36946" lon="6.53666">
        <ele>1947.35</ele>
        <time>2014-01-26T14:59:54Z</time>
      </trkpt>
      <trkpt lat="45.36963" lon="6.53611">
        <ele>1935.04</ele>
        <time>2014-01-26T14:59:59Z</time>
      </trkpt>
      <trkpt lat="45.3698" lon="6.53558">
        <ele>1924.49</ele>
        <time>2014-01-26T15:00:04Z</time>
      </trkpt>
      <trkpt lat="45.36985" lon="6.53495">
        <ele>1912.64</ele>
        <time>2014-01-26T15:00:09Z</time>
      </trkpt>
      <trkpt lat="45.37009" lon="6.53426">
        <ele>1907.54</ele>
        <time>2014-01-26T15:00:13Z</time>
      </trkpt>
      <trkpt lat="45.37037" lon="6.53376">
        <ele>1901.2</ele>
        <time>2014-01-26T15:00:17Z</time>
      </trkpt>
      <trkpt lat="45.37068" lon="6.5333">
        <ele>1891.67</ele>
        <time>2014-01-26T15:00:23Z</time>
      </trkpt>
      <trkpt lat="45.37096" lon="6.53294">
        <ele>1885.81</ele>
        <time>2014-01-26T15:00:27Z</time>
      </trkpt>
      <trkpt lat="45.37126" lon="6.53253">
        <ele>1876.95</ele>
        <time>2014-01-26T15:00:34Z</time>
      </trkpt>
      <trkpt lat="45.37165" lon="6.53226">
        <ele>1864.42</ele>
        <time>2014-01-26T15:00:40Z</time>
      </trkpt>
      <trkpt lat="45.37189" lon="6.5318">
        <ele>1843.84</ele>
        <time>2014-01-26T15:00:46Z</time>
      </trkpt>
      <trkpt lat="45.37211" lon="6.53118">
        <ele>1824.8</ele>
        <time>2014-01-26T15:00:52Z</time>
      </trkpt>
      <trkpt lat="45.37228" lon="6.53057">
        <ele>1815.16</ele>
        <time>2014-01-26T15:00:57Z</time>
      </trkpt>
      <trkpt lat="45.37245" lon="6.53003">
        <ele>1808.95</ele>
        <time>2014-01-26T15:01:01Z</time>
      </trkpt>
      <trkpt lat="45.37271" lon="6.5295">
        <ele>1800.64</ele>
        <time>2014-01-26T15:01:05Z</time>
      </trkpt>
      <trkpt lat="45.37287" lon="6.52903">
        <ele>1796.89</ele>
        <time>2014-01-26T15:01:11Z</time>
      </trkpt>
      <trkpt lat="45.37293" lon="6.52848">
        <ele>1792.7</ele>
        <time>2014-01-26T15:01:33Z</time>
      </trkpt>
      <trkpt lat="45.37294" lon="6.52796">
        <ele>1790.54</ele>
        <time>2014-01-26T15:01:39Z</time>
      </trkpt>
      <trkpt lat="45.37294" lon="6.5274">
        <ele>1785.12</ele>
        <time>2014-01-26T15:01:45Z</time>
      </trkpt>
      <trkpt lat="45.37286" lon="6.52673">
        <ele>1776.26</ele>
        <time>2014-01-26T15:01:51Z</time>
      </trkpt>
      <trkpt lat="45.37277" lon="6.52613">
        <ele>1771.14</ele>
        <time>2014-01-26T15:01:55Z</time>
      </trkpt>
      <trkpt lat="45.37268" lon="6.52555">
        <ele>1767.22</ele>
        <time>2014-01-26T15:01:59Z</time>
      </trkpt>
      <trkpt lat="45.3728" lon="6.52497">
        <ele>1761.72</ele>
        <time>2014-01-26T15:02:05Z</time>
      </trkpt>
      <trkpt lat="45.37308" lon="6.52455">
        <ele>1756</ele>
        <time>2014-01-26T15:02:11Z</time>
      </trkpt>
      <trkpt lat="45.37337" lon="6.52412">
        <ele>1756.5</ele>
        <time>2014-01-26T15:02:17Z</time>
      </trkpt>
      <trkpt lat="45.37366" lon="6.5237">
        <ele>1752.08</ele>
        <time>2014-01-26T15:02:22Z</time>
      </trkpt>
      <trkpt lat="45.37407" lon="6.52357">
        <ele>1754.35</ele>
        <time>2014-01-26T15:02:27Z</time>
      </trkpt>
      <trkpt lat="45.37448" lon="6.52336">
        <ele>1743.27</ele>
        <time>2014-01-26T15:02:31Z</time>
      </trkpt>
      <trkpt lat="45.37488" lon="6.52312">
        <ele>1735.09</ele>
        <time>2014-01-26T15:02:35Z</time>
      </trkpt>
      <trkpt lat="45.37525" lon="6.52279">
        <ele>1726.49</ele>
        <time>2014-01-26T15:02:39Z</time>
      </trkpt>
      <trkpt lat="45.37549" lon="6.52229">
        <ele>1720.25</ele>
        <time>2014-01-26T15:02:43Z</time>
      </trkpt>
      <trkpt lat="45.37558" lon="6.52168">
        <ele>1713.48</ele>
        <time>2014-01-26T15:02:48Z</time>
      </trkpt>
      <trkpt lat="45.37591" lon="6.52126">
        <ele>1717.52</ele>
        <time>2014-01-26T15:02:54Z</time>
      </trkpt>
      <trkpt lat="45.37636" lon="6.5215">
        <ele>1719.42</ele>
        <time>2014-01-26T15:02:59Z</time>
      </trkpt>
      <trkpt lat="45.37664" lon="6.52115">
        <ele>1704.09</ele>
        <time>2014-01-26T15:03:04Z</time>
      </trkpt>
      <trkpt lat="45.37641" lon="6.52064">
        <ele>1697.92</ele>
        <time>2014-01-26T15:03:08Z</time>
      </trkpt>
      <trkpt lat="45.37616" lon="6.52019">
        <ele>1693.09</ele>
        <time>2014-01-26T15:03:12Z</time>
      </trkpt>
      <trkpt lat="45.37607" lon="6.51956">
        <ele>1680.6</ele>
        <time>2014-01-26T15:03:18Z</time>
      </trkpt>
      <trkpt lat="45.37637" lon="6.51925">
        <ele>1682.01</ele>
        <time>2014-01-26T15:03:23Z</time>
      </trkpt>
      <trkpt lat="45.37678" lon="6.51924">
        <ele>1678.82</ele>
        <time>2014-01-26T15:03:27Z</time>
      </trkpt>
      <trkpt lat="45.37718" lon="6.51903">
        <ele>1671.29</ele>
        <time>2014-01-26T15:03:31Z</time>
      </trkpt>
      <trkpt lat="45.37751" lon="6.51864">
        <ele>1659.17</ele>
        <time>2014-01-26T15:03:36Z</time>
      </trkpt>
      <trkpt lat="45.37758" lon="6.51795">
        <ele>1648.68</ele>
        <time>2014-01-26T15:03:42Z</time>
      </trkpt>
      <trkpt lat="45.37741" lon="6.51737">
        <ele>1642.68</ele>
        <time>2014-01-26T15:03:46Z</time>
      </trkpt>
      <trkpt lat="45.37713" lon="6.51692">
        <ele>1639.58</ele>
        <time>2014-01-26T15:03:50Z</time>
      </trkpt>
      <trkpt lat="45.37683" lon="6.51643">
        <ele>1636.79</ele>
        <time>2014-01-26T15:03:55Z</time>
      </trkpt>
      <trkpt lat="45.37663" lon="6.51587">
        <ele>1633.82</ele>
        <time>2014-01-26T15:04:00Z</time>
      </trkpt>
      <trkpt lat="45.37643" lon="6.51529">
        <ele>1629.88</ele>
        <time>2014-01-26T15:04:06Z</time>
      </trkpt>
      <trkpt lat="45.37618" lon="6.51472">
        <ele>1617.53</ele>
        <time>2014-01-26T15:04:12Z</time>
      </trkpt>
      <trkpt lat="45.37597" lon="6.51426">
        <ele>1608.71</ele>
        <time>2014-01-26T15:04:19Z</time>
      </trkpt>
      <trkpt lat="45.37573" lon="6.51382">
        <ele>1599.67</ele>
        <time>2014-01-26T15:04:25Z</time>
      </trkpt>
      <trkpt lat="45.37556" lon="6.51324">
        <ele>1591.03</ele>
        <time>2014-01-26T15:04:32Z</time>
      </trkpt>
      <trkpt lat="45.37542" lon="6.51274">
        <ele>1584.62</ele>
        <time>2014-01-26T15:04:36Z</time>
      </trkpt>
      <trkpt lat="45.37527" lon="6.51218">
        <ele>1577.38</ele>
        <time>2014-01-26T15:04:41Z</time>
      </trkpt>
      <trkpt lat="45.37504" lon="6.51162">
        <ele>1568.65</ele>
        <time>2014-01-26T15:04:47Z</time>
      </trkpt>
      <trkpt lat="45.37475" lon="6.51125">
        <ele>1560.31</ele>
        <time>2014-01-26T15:04:53Z</time>
      </trkpt>
      <trkpt lat="45.37464" lon="6.51064">
        <ele>1554.29</ele>
        <time>2014-01-26T15:04:58Z</time>
      </trkpt>
      <trkpt lat="45.37488" lon="6.51014">
        <ele>1549.51</ele>
        <time>2014-01-26T15:05:06Z</time>
      </trkpt>
      <trkpt lat="45.37511" lon="6.50961">
        <ele>1533.9</ele>
        <time>2014-01-26T15:05:15Z</time>
      </trkpt>
      <trkpt lat="45.3752" lon="6.50908">
        <ele>1516.98</ele>
        <time>2014-01-26T15:05:24Z</time>
      </trkpt>
      <trkpt lat="45.37537" lon="6.50859">
        <ele>1508.97</ele>
        <time>2014-01-26T15:05:30Z</time>
      </trkpt>
      <trkpt lat="45.37568" lon="6.5082">
        <ele>1503.43</ele>
        <time>2014-01-26T15:05:37Z</time>
      </trkpt>
      <trkpt lat="45.37595" lon="6.50778">
        <ele>1494.96</ele>
        <time>2014-01-26T15:05:45Z</time>
      </trkpt>
      <trkpt lat="45.37631" lon="6.5075">
        <ele>1488.17</ele>
        <time>2014-01-26T15:05:54Z</time>
      </trkpt>
      <trkpt lat="45.37672" lon="6.50737">
        <ele>1472.92</ele>
        <time>2014-01-26T15:06:01Z</time>
      </trkpt>
      <trkpt lat="45.37675" lon="6.50671">
        <ele>1460.43</ele>
        <time>2014-01-26T15:06:07Z</time>
      </trkpt>
      <trkpt lat="45.37685" lon="6.50619">
        <ele>1450.18</ele>
        <time>2014-01-26T15:06:15Z</time>
      </trkpt>
      <trkpt lat="45.37701" lon="6.50564">
        <ele>1439.21</ele>
        <time>2014-01-26T15:06:21Z</time>
      </trkpt>
      <trkpt lat="45.37709" lon="6.5051">
        <ele>1432.15</ele>
        <time>2014-01-26T15:06:29Z</time>
      </trkpt>
      <trkpt lat="45.37703" lon="6.50458">
        <ele>1427.35</ele>
        <time>2014-01-26T15:06:36Z</time>
      </trkpt>
      <trkpt lat="45.3767" lon="6.5046">
        <ele>1427.3</ele>
        <time>2014-01-26T15:08:41Z</time>
      </trkpt>
      <trkpt lat="45.37664" lon="6.50514">
        <ele>1434.52</ele>
        <time>2014-01-26T15:08:49Z</time>
      </trkpt>
      <trkpt lat="45.37659" lon="6.50569">
        <ele>1445.24</ele>
        <time>2014-01-26T15:09:00Z</time>
      </trkpt>
      <trkpt lat="45.37656" lon="6.50627">
        <ele>1455.22</ele>
        <time>2014-01-26T15:09:10Z</time>
      </trkpt>
      <trkpt lat="45.37646" lon="6.50679">
        <ele>1470.05</ele>
        <time>2014-01-26T15:09:20Z</time>
      </trkpt>
      <trkpt lat="45.37635" lon="6.50735">
        <ele>1484.4</ele>
        <time>2014-01-26T15:09:30Z</time>
      </trkpt>
      <trkpt lat="45.37628" lon="6.50787">
        <ele>1489.92</ele>
        <time>2014-01-26T15:09:40Z</time>
      </trkpt>
      <trkpt lat="45.37622" lon="6.50846">
        <ele>1497.25</ele>
        <time>2014-01-26T15:09:51Z</time>
      </trkpt>
      <trkpt lat="45.37611" lon="6.50899">
        <ele>1509.49</ele>
        <time>2014-01-26T15:10:00Z</time>
      </trkpt>
      <trkpt lat="45.37602" lon="6.50953">
        <ele>1519.32</ele>
        <time>2014-01-26T15:10:10Z</time>
      </trkpt>
      <trkpt lat="45.37598" lon="6.51009">
        <ele>1532.2</ele>
        <time>2014-01-26T15:10:21Z</time>
      </trkpt>
      <trkpt lat="45.37593" lon="6.51069">
        <ele>1544.74</ele>
        <time>2014-01-26T15:10:30Z</time>
      </trkpt>
      <trkpt lat="45.37582" lon="6.51129">
        <ele>1559.43</ele>
        <time>2014-01-26T15:10:40Z</time>
      </trkpt>
      <trkpt lat="45.37571" lon="6.51188">
        <ele>1577.15</ele>
        <time>2014-01-26T15:10:50Z</time>
      </trkpt>
      <trkpt lat="45.3756" lon="6.5124">
        <ele>1582.51</ele>
        <time>2014-01-26T15:11:00Z</time>
      </trkpt>
      <trkpt lat="45.37551" lon="6.51296">
        <ele>1587.81</ele>
        <time>2014-01-26T15:11:10Z</time>
      </trkpt>
      <trkpt lat="45.3754" lon="6.51354">
        <ele>1593.26</ele>
        <time>2014-01-26T15:11:20Z</time>
      </trkpt>
      <trkpt lat="45.37534" lon="6.5141">
        <ele>1597.34</ele>
        <time>2014-01-26T15:11:30Z</time>
      </trkpt>
      <trkpt lat="45.37529" lon="6.51466">
        <ele>1603.07</ele>
        <time>2014-01-26T15:11:39Z</time>
      </trkpt>
      <trkpt lat="45.3752" lon="6.51525">
        <ele>1613.45</ele>
        <time>2014-01-26T15:11:49Z</time>
      </trkpt>
      <trkpt lat="45.37512" lon="6.51586">
        <ele>1618.84</ele>
        <time>2014-01-26T15:11:59Z</time>
      </trkpt>
      <trkpt lat="45.37504" lon="6.51643">
        <ele>1619.9</ele>
        <time>2014-01-26T15:12:09Z</time>
      </trkpt>
      <trkpt lat="45.37494" lon="6.51701">
        <ele>1619.96</ele>
        <time>2014-01-26T15:12:19Z</time>
      </trkpt>
      <trkpt lat="45.37485" lon="6.51759">
        <ele>1620.06</ele>
        <time>2014-01-26T15:12:29Z</time>
      </trkpt>
      <trkpt lat="45.37477" lon="6.5182">
        <ele>1620.16</ele>
        <time>2014-01-26T15:12:38Z</time>
      </trkpt>
      <trkpt lat="45.3747" lon="6.51876">
        <ele>1624.87</ele>
        <time>2014-01-26T15:12:46Z</time>
      </trkpt>
      <trkpt lat="45.3736" lon="6.5265">
        <ele>1779.92</ele>
        <time>2014-01-26T15:14:51Z</time>
      </trkpt>
      <trkpt lat="45.37351" lon="6.52701">
        <ele>1785.76</ele>
        <time>2014-01-26T15:14:57Z</time>
      </trkpt>
      <trkpt lat="45.37343" lon="6.52758">
        <ele>1789.47</ele>
        <time>2014-01-26T15:15:06Z</time>
      </trkpt>
      <trkpt lat="45.37334" lon="6.52811">
        <ele>1791.53</ele>
        <time>2014-01-26T15:15:14Z</time>
      </trkpt>
      <trkpt lat="45.37326" lon="6.52868">
        <ele>1797.96</ele>
        <time>2014-01-26T15:15:23Z</time>
      </trkpt>
      <trkpt lat="45.37293" lon="6.52876">
        <ele>1794.97</ele>
        <time>2014-01-26T15:17:24Z</time>
      </trkpt>
      <trkpt lat="45.37259" lon="6.5288">
        <ele>1789.08</ele>
        <time>2014-01-26T15:17:54Z</time>
      </trkpt>
      <trkpt lat="45.37243" lon="6.52935">
        <ele>1797.18</ele>
        <time>2014-01-26T15:18:19Z</time>
      </trkpt>
      <trkpt lat="45.37226" lon="6.52989">
        <ele>1805.62</ele>
        <time>2014-01-26T15:18:29Z</time>
      </trkpt>
      <trkpt lat="45.37213" lon="6.53041">
        <ele>1812.34</ele>
        <time>2014-01-26T15:18:38Z</time>
      </trkpt>
      <trkpt lat="45.372" lon="6.53095">
        <ele>1820.9</ele>
        <time>2014-01-26T15:18:48Z</time>
      </trkpt>
      <trkpt lat="45.37186" lon="6.53147">
        <ele>1834.72</ele>
        <time>2014-01-26T15:18:57Z</time>
      </trkpt>
      <trkpt lat="45.3717" lon="6.53201">
        <ele>1856.57</ele>
        <time>2014-01-26T15:19:07Z</time>
      </trkpt>
      <trkpt lat="45.37158" lon="6.53256">
        <ele>1872.05</ele>
        <time>2014-01-26T15:19:17Z</time>
      </trkpt>
      <trkpt lat="45.37141" lon="6.53307">
        <ele>1879.1</ele>
        <time>2014-01-26T15:19:26Z</time>
      </trkpt>
      <trkpt lat="45.37124" lon="6.53363">
        <ele>1886.24</ele>
        <time>2014-01-26T15:19:36Z</time>
      </trkpt>
      <trkpt lat="45.37108" lon="6.53419">
        <ele>1894.82</ele>
        <time>2014-01-26T15:19:46Z</time>
      </trkpt>
      <trkpt lat="45.37093" lon="6.53475">
        <ele>1903.95</ele>
        <time>2014-01-26T15:19:56Z</time>
      </trkpt>
      <trkpt lat="45.37078" lon="6.53531">
        <ele>1911.58</ele>
        <time>2014-01-26T15:20:06Z</time>
      </trkpt>
      <trkpt lat="45.37061" lon="6.53586">
        <ele>1923.8</ele>
        <time>2014-01-26T15:20:16Z</time>
      </trkpt>
      <trkpt lat="45.37045" lon="6.53639">
        <ele>1938.17</ele>
        <time>2014-01-26T15:20:26Z</time>
      </trkpt>
      <trkpt lat="45.3703" lon="6.53696">
        <ele>1947.05</ele>
        <time>2014-01-26T15:20:36Z</time>
      </trkpt>
      <trkpt lat="45.37014" lon="6.5375">
        <ele>1963.88</ele>
        <time>2014-01-26T15:20:46Z</time>
      </trkpt>
      <trkpt lat="45.37" lon="6.53808">
        <ele>1975.59</ele>
        <time>2014-01-26T15:20:56Z</time>
      </trkpt>
      <trkpt lat="45.36987" lon="6.53866">
        <ele>1990.85</ele>
        <time>2014-01-26T15:21:06Z</time>
      </trkpt>
      <trkpt lat="45.36972" lon="6.53918">
        <ele>1998.15</ele>
        <time>2014-01-26T15:21:16Z</time>
      </trkpt>
      <trkpt lat="45.36955" lon="6.53973">
        <ele>2003.3</ele>
        <time>2014-01-26T15:21:26Z</time>
      </trkpt>
      <trkpt lat="45.36938" lon="6.54025">
        <ele>2010.4</ele>
        <time>2014-01-26T15:21:36Z</time>
      </trkpt>
      <trkpt lat="45.36921" lon="6.54079">
        <ele>2021</ele>
        <time>2014-01-26T15:21:46Z</time>
      </trkpt>
      <trkpt lat="45.36907" lon="6.54131">
        <ele>2042.96</ele>
        <time>2014-01-26T15:21:56Z</time>
      </trkpt>
      <trkpt lat="45.36897" lon="6.54183">
        <ele>2066.17</ele>
        <time>2014-01-26T15:22:07Z</time>
      </trkpt>
      <trkpt lat="45.36876" lon="6.54232">
        <ele>2076.14</ele>
        <time>2014-01-26T15:22:19Z</time>
      </trkpt>
      <trkpt lat="45.36859" lon="6.54284">
        <ele>2087.96</ele>
        <time>2014-01-26T15:22:31Z</time>
      </trkpt>
      <trkpt lat="45.36843" lon="6.54339">
        <ele>2090.27</ele>
        <time>2014-01-26T15:22:41Z</time>
      </trkpt>
      <trkpt lat="45.36825" lon="6.54395">
        <ele>2094.85</ele>
        <time>2014-01-26T15:22:51Z</time>
      </trkpt>
      <trkpt lat="45.36813" lon="6.54447">
        <ele>2101.45</ele>
        <time>2014-01-26T15:23:00Z</time>
      </trkpt>
      <trkpt lat="45.36801" lon="6.545">
        <ele>2118.22</ele>
        <time>2014-01-26T15:23:07Z</time>
      </trkpt>
      <trkpt lat="45.36785" lon="6.54556">
        <ele>2125.09</ele>
        <time>2014-01-26T15:23:14Z</time>
      </trkpt>
      <trkpt lat="45.3677" lon="6.5461">
        <ele>2128.39</ele>
        <time>2014-01-26T15:23:22Z</time>
      </trkpt>
      <trkpt lat="45.36758" lon="6.54659">
        <ele>2136.26</ele>
        <time>2014-01-26T15:23:30Z</time>
      </trkpt>
      <trkpt lat="45.36749" lon="6.54709">
        <ele>2153.5</ele>
        <time>2014-01-26T15:23:42Z</time>
      </trkpt>
      <trkpt lat="45.36728" lon="6.54765">
        <ele>2180.72</ele>
        <time>2014-01-26T15:23:56Z</time>
      </trkpt>
      <trkpt lat="45.3671" lon="6.54819">
        <ele>2186.39</ele>
        <time>2014-01-26T15:24:04Z</time>
      </trkpt>
      <trkpt lat="45.36694" lon="6.54874">
        <ele>2194.9</ele>
        <time>2014-01-26T15:24:12Z</time>
      </trkpt>
      <trkpt lat="45.36682" lon="6.54925">
        <ele>2195.56</ele>
        <time>2014-01-26T15:24:20Z</time>
      </trkpt>
      <trkpt lat="45.36667" lon="6.54976">
        <ele>2193.93</ele>
        <time>2014-01-26T15:24:28Z</time>
      </trkpt>
      <trkpt lat="45.36654" lon="6.55034">
        <ele>2203.34</ele>
        <time>2014-01-26T15:24:38Z</time>
      </trkpt>
      <trkpt lat="45.36635" lon="6.55081">
        <ele>2215.96</ele>
        <time>2014-01-26T15:24:51Z</time>
      </trkpt>
      <trkpt lat="45.36619" lon="6.55134">
        <ele>2231.3</ele>
        <time>2014-01-26T15:25:03Z</time>
      </trkpt>
      <trkpt lat="45.36603" lon="6.55188">
        <ele>2246.8</ele>
        <time>2014-01-26T15:25:13Z</time>
      </trkpt>
      <trkpt lat="45.3659" lon="6.55237">
        <ele>2256.26</ele>
        <time>2014-01-26T15:25:23Z</time>
      </trkpt>
      <trkpt lat="45.36577" lon="6.55294">
        <ele>2262.24</ele>
        <time>2014-01-26T15:25:33Z</time>
      </trkpt>
      <trkpt lat="45.36562" lon="6.55353">
        <ele>2268.57</ele>
        <time>2014-01-26T15:25:41Z</time>
      </trkpt>
      <trkpt lat="45.3655" lon="6.55413">
        <ele>2286.11</ele>
        <time>2014-01-26T15:25:47Z</time>
      </trkpt>
      <trkpt lat="45.3654" lon="6.55466">
        <ele>2294.36</ele>
        <time>2014-01-26T15:25:55Z</time>
      </trkpt>
      <trkpt lat="45.36528" lon="6.55519">
        <ele>2306.73</ele>
        <time>2014-01-26T15:26:07Z</time>
      </trkpt>
      <trkpt lat="45.36525" lon="6.55575">
        <ele>2323.22</ele>
        <time>2014-01-26T15:26:20Z</time>
      </trkpt>
      <trkpt lat="45.36508" lon="6.55633">
        <ele>2354.7</ele>
        <time>2014-01-26T15:26:30Z</time>
      </trkpt>
      <trkpt lat="45.36498" lon="6.55689">
        <ele>2384.53</ele>
        <time>2014-01-26T15:26:39Z</time>
      </trkpt>
      <trkpt lat="45.36508" lon="6.55725">
        <ele>2402.7</ele>
        <time>2014-01-26T15:27:09Z</time>
      </trkpt>
      <trkpt lat="45.36545" lon="6.55715">
        <ele>2403.41</ele>
        <time>2014-01-26T15:27:20Z</time>
      </trkpt>
      <trkpt lat="45.36579" lon="6.5568">
        <ele>2397.37</ele>
        <time>2014-01-26T15:27:38Z</time>
      </trkpt>
      <trkpt lat="45.36616" lon="6.5566">
        <ele>2385.52</ele>
        <time>2014-01-26T15:27:45Z</time>
      </trkpt>
      <trkpt lat="45.36655" lon="6.55637">
        <ele>2372.56</ele>
        <time>2014-01-26T15:27:50Z</time>
      </trkpt>
      <trkpt lat="45.36685" lon="6.55594">
        <ele>2355.68</ele>
        <time>2014-01-26T15:27:56Z</time>
      </trkpt>
      <trkpt lat="45.36714" lon="6.5554">
        <ele>2345.28</ele>
        <time>2014-01-26T15:28:02Z</time>
      </trkpt>
      <trkpt lat="45.36732" lon="6.55486">
        <ele>2336.88</ele>
        <time>2014-01-26T15:28:07Z</time>
      </trkpt>
      <trkpt lat="45.36747" lon="6.55436">
        <ele>2336.96</ele>
        <time>2014-01-26T15:28:11Z</time>
      </trkpt>
      <trkpt lat="45.36763" lon="6.55379">
        <ele>2330.57</ele>
        <time>2014-01-26T15:28:17Z</time>
      </trkpt>
      <trkpt lat="45.36803" lon="6.55338">
        <ele>2320.35</ele>
        <time>2014-01-26T15:28:22Z</time>
      </trkpt>
      <trkpt lat="45.36836" lon="6.55296">
        <ele>2305.3</ele>
        <time>2014-01-26T15:28:26Z</time>
      </trkpt>
      <trkpt lat="45.36852" lon="6.5524">
        <ele>2304.83</ele>
        <time>2014-01-26T15:28:31Z</time>
      </trkpt>
      <trkpt lat="45.36877" lon="6.5519">
        <ele>2304.94</ele>
        <time>2014-01-26T15:28:38Z</time>
      </trkpt>
      <trkpt lat="45.36919" lon="6.5516">
        <ele>2301.04</ele>
        <time>2014-01-26T15:28:44Z</time>
      </trkpt>
      <trkpt lat="45.36952" lon="6.55125">
        <ele>2298.52</ele>
        <time>2014-01-26T15:28:50Z</time>
      </trkpt>
      <trkpt lat="45.3698" lon="6.55084">
        <ele>2294.83</ele>
        <time>2014-01-26T15:28:56Z</time>
      </trkpt>
      <trkpt lat="45.37011" lon="6.55035">
        <ele>2291.69</ele>
        <time>2014-01-26T15:29:04Z</time>
      </trkpt>
      <trkpt lat="45.37048" lon="6.55011">
        <ele>2291.13</ele>
        <time>2014-01-26T15:29:11Z</time>
      </trkpt>
      <trkpt lat="45.37088" lon="6.55007">
        <ele>2289.72</ele>
        <time>2014-01-26T15:29:17Z</time>
      </trkpt>
      <trkpt lat="45.37131" lon="6.55">
        <ele>2286.59</ele>
        <time>2014-01-26T15:29:23Z</time>
      </trkpt>
      <trkpt lat="45.37173" lon="6.54986">
        <ele>2282.63</ele>
        <time>2014-01-26T15:29:30Z</time>
      </trkpt>
      <trkpt lat="45.37215" lon="6.54996">
        <ele>2282.32</ele>
        <time>2014-01-26T15:29:36Z</time>
      </trkpt>
      <trkpt lat="45.37253" lon="6.55016">
        <ele>2278.33</ele>
        <time>2014-01-26T15:29:42Z</time>
      </trkpt>
      <trkpt lat="45.37291" lon="6.5504">
        <ele>2274.79</ele>
        <time>2014-01-26T15:29:48Z</time>
      </trkpt>
      <trkpt lat="45.3733" lon="6.55014">
        <ele>2264</ele>
        <time>2014-01-26T15:29:54Z</time>
      </trkpt>
      <trkpt lat="45.37358" lon="6.5497">
        <ele>2253.11</ele>
        <time>2014-01-26T15:30:01Z</time>
      </trkpt>
      <trkpt lat="45.37382" lon="6.54925">
        <ele>2235.86</ele>
        <time>2014-01-26T15:30:07Z</time>
      </trkpt>
      <trkpt lat="45.37401" lon="6.54878">
        <ele>2222.59</ele>
        <time>2014-01-26T15:30:13Z</time>
      </trkpt>
      <trkpt lat="45.37428" lon="6.54835">
        <ele>2209.01</ele>
        <time>2014-01-26T15:30:21Z</time>
      </trkpt>
      <trkpt lat="45.3745" lon="6.54793">
        <ele>2186.82</ele>
        <time>2014-01-26T15:30:31Z</time>
      </trkpt>
      <trkpt lat="45.37474" lon="6.54755">
        <ele>2169.48</ele>
        <time>2014-01-26T15:30:39Z</time>
      </trkpt>
      <trkpt lat="45.37496" lon="6.5471">
        <ele>2151.73</ele>
        <time>2014-01-26T15:30:46Z</time>
      </trkpt>
      <trkpt lat="45.37508" lon="6.54665">
        <ele>2144.77</ele>
        <time>2014-01-26T15:30:52Z</time>
      </trkpt>
      <trkpt lat="45.37501" lon="6.54609">
        <ele>2135.09</ele>
        <time>2014-01-26T15:31:01Z</time>
      </trkpt>
      <trkpt lat="45.3751" lon="6.54548">
        <ele>2116.36</ele>
        <time>2014-01-26T15:31:10Z</time>
      </trkpt>
      <trkpt lat="45.37526" lon="6.54494">
        <ele>2104.32</ele>
        <time>2014-01-26T15:31:18Z</time>
      </trkpt>
      <trkpt lat="45.37539" lon="6.54454">
        <ele>2090.93</ele>
        <time>2014-01-26T15:31:26Z</time>
      </trkpt>
      <trkpt lat="45.3756" lon="6.54403">
        <ele>2075.78</ele>
        <time>2014-01-26T15:31:34Z</time>
      </trkpt>
      <trkpt lat="45.3757" lon="6.54338">
        <ele>2066.66</ele>
        <time>2014-01-26T15:31:39Z</time>
      </trkpt>
      <trkpt lat="45.37581" lon="6.54275">
        <ele>2060.38</ele>
        <time>2014-01-26T15:31:43Z</time>
      </trkpt>
      <trkpt lat="45.37598" lon="6.54221">
        <ele>2057.87</ele>
        <time>2014-01-26T15:31:50Z</time>
      </trkpt>
      <trkpt lat="45.3761" lon="6.54168">
        <ele>2051.99</ele>
        <time>2014-01-26T15:32:00Z</time>
      </trkpt>
      <trkpt lat="45.37604" lon="6.54104">
        <ele>2035.47</ele>
        <time>2014-01-26T15:32:09Z</time>
      </trkpt>
      <trkpt lat="45.37618" lon="6.54049">
        <ele>2027.88</ele>
        <time>2014-01-26T15:32:14Z</time>
      </trkpt>
      <trkpt lat="45.37622" lon="6.53993">
        <ele>2022.57</ele>
        <time>2014-01-26T15:32:18Z</time>
      </trkpt>
      <trkpt lat="45.37616" lon="6.53938">
        <ele>2015.73</ele>
        <time>2014-01-26T15:32:23Z</time>
      </trkpt>
      <trkpt lat="45.37592" lon="6.53889">
        <ele>2007.34</ele>
        <time>2014-01-26T15:32:30Z</time>
      </trkpt>
      <trkpt lat="45.37578" lon="6.53825">
        <ele>1995.72</ele>
        <time>2014-01-26T15:32:36Z</time>
      </trkpt>
      <trkpt lat="45.37584" lon="6.53761">
        <ele>1986.53</ele>
        <time>2014-01-26T15:32:40Z</time>
      </trkpt>
      <trkpt lat="45.37587" lon="6.53696">
        <ele>1977.11</ele>
        <time>2014-01-26T15:32:44Z</time>
      </trkpt>
      <trkpt lat="45.3759" lon="6.53636">
        <ele>1971.98</ele>
        <time>2014-01-26T15:32:48Z</time>
      </trkpt>
      <trkpt lat="45.37605" lon="6.53574">
        <ele>1966.31</ele>
        <time>2014-01-26T15:33:17Z</time>
      </trkpt>
      <trkpt lat="45.3761" lon="6.53514">
        <ele>1958.94</ele>
        <time>2014-01-26T15:33:23Z</time>
      </trkpt>
      <trkpt lat="45.37621" lon="6.53455">
        <ele>1951.5</ele>
        <time>2014-01-26T15:33:28Z</time>
      </trkpt>
      <trkpt lat="45.37639" lon="6.53404">
        <ele>1942.62</ele>
        <time>2014-01-26T15:33:32Z</time>
      </trkpt>
      <trkpt lat="45.37645" lon="6.5334">
        <ele>1938.02</ele>
        <time>2014-01-26T15:33:36Z</time>
      </trkpt>
      <trkpt lat="45.37652" lon="6.53276">
        <ele>1934.95</ele>
        <time>2014-01-26T15:33:42Z</time>
      </trkpt>
      <trkpt lat="45.37661" lon="6.53211">
        <ele>1930.94</ele>
        <time>2014-01-26T15:33:48Z</time>
      </trkpt>
      <trkpt lat="45.37652" lon="6.53152">
        <ele>1926.51</ele>
        <time>2014-01-26T15:33:55Z</time>
      </trkpt>
      <trkpt lat="45.37629" lon="6.53099">
        <ele>1914.39</ele>
        <time>2014-01-26T15:34:02Z</time>
      </trkpt>
      <trkpt lat="45.37607" lon="6.53051">
        <ele>1908.83</ele>
        <time>2014-01-26T15:34:07Z</time>
      </trkpt>
      <trkpt lat="45.37593" lon="6.53001">
        <ele>1893.26</ele>
        <time>2014-01-26T15:34:12Z</time>
      </trkpt>
      <trkpt lat="45.37596" lon="6.52939">
        <ele>1883.06</ele>
        <time>2014-01-26T15:34:17Z</time>
      </trkpt>
      <trkpt lat="45.37604" lon="6.52882">
        <ele>1871.22</ele>
        <time>2014-01-26T15:34:25Z</time>
      </trkpt>
      <trkpt lat="45.37598" lon="6.52825">
        <ele>1857.14</ele>
        <time>2014-01-26T15:34:34Z</time>
      </trkpt>
      <trkpt lat="45.37589" lon="6.52766">
        <ele>1847.46</ele>
        <time>2014-01-26T15:34:39Z</time>
      </trkpt>
      <trkpt lat="45.3759" lon="6.5271">
        <ele>1838</ele>
        <time>2014-01-26T15:34:43Z</time>
      </trkpt>
      <trkpt lat="45.37558" lon="6.52672">
        <ele>1823.34</ele>
        <time>2014-01-26T15:34:49Z</time>
      </trkpt>
      <trkpt lat="45.37521" lon="6.52689">
        <ele>1821.93</ele>
        <time>2014-01-26T15:34:55Z</time>
      </trkpt>
      <trkpt lat="45.37499" lon="6.52702">
        <ele>1822.27</ele>
        <time>2014-01-26T15:34:59Z</time>
      </trkpt>
      <trkpt lat="45.37483" lon="6.52712">
        <ele>1822.36</ele>
        <time>2014-01-26T15:35:02Z</time>
      </trkpt>
      <trkpt lat="45.37464" lon="6.5272">
        <ele>1821.22</ele>
        <time>2014-01-26T15:35:06Z</time>
      </trkpt>
      <trkpt lat="45.37445" lon="6.52727">
        <ele>1819.4</ele>
        <time>2014-01-26T15:35:13Z</time>
      </trkpt>
      <trkpt lat="45.37432" lon="6.52746">
        <ele>1810.3</ele>
        <time>2014-01-26T15:35:22Z</time>
      </trkpt>
      <trkpt lat="45.37422" lon="6.5277">
        <ele>1804.53</ele>
        <time>2014-01-26T15:35:27Z</time>
      </trkpt>
      <trkpt lat="45.37411" lon="6.52799">
        <ele>1802.33</ele>
        <time>2014-01-26T15:35:32Z</time>
      </trkpt>
      <trkpt lat="45.37403" lon="6.52823">
        <ele>1802.45</ele>
        <time>2014-01-26T15:35:35Z</time>
      </trkpt>
      <trkpt lat="45.37392" lon="6.52852">
        <ele>1800.09</ele>
        <time>2014-01-26T15:35:39Z</time>
      </trkpt>
      <trkpt lat="45.37381" lon="6.52876">
        <ele>1802.08</ele>
        <time>2014-01-26T15:35:42Z</time>
      </trkpt>
      <trkpt lat="45.37369" lon="6.52896">
        <ele>1803.87</ele>
        <time>2014-01-26T15:35:45Z</time>
      </trkpt>
      <trkpt lat="45.37354" lon="6.52921">
        <ele>1804.13</ele>
        <time>2014-01-26T15:35:48Z</time>
      </trkpt>
      <trkpt lat="45.37332" lon="6.52928">
        <ele>1803.72</ele>
        <time>2014-01-26T15:35:51Z</time>
      </trkpt>
      <trkpt lat="45.37308" lon="6.52929">
        <ele>1802.1</ele>
        <time>2014-01-26T15:35:54Z</time>
      </trkpt>
      <trkpt lat="45.37291" lon="6.52921">
        <ele>1799.31</ele>
        <time>2014-01-26T15:35:57Z</time>
      </trkpt>
      <trkpt lat="45.37292" lon="6.52892">
        <ele>1796.44</ele>
        <time>2014-01-26T15:36:00Z</time>
      </trkpt>
      <trkpt lat="45.37295" lon="6.52863">
        <ele>1794.03</ele>
        <time>2014-01-26T15:36:03Z</time>
      </trkpt>
      <trkpt lat="45.37294" lon="6.52832">
        <ele>1791.76</ele>
        <time>2014-01-26T15:36:06Z</time>
      </trkpt>
      <trkpt lat="45.37293" lon="6.52798">
        <ele>1790.63</ele>
        <time>2014-01-26T15:36:09Z</time>
      </trkpt>
      <trkpt lat="45.37292" lon="6.52766">
        <ele>1788.03</ele>
        <time>2014-01-26T15:36:12Z</time>
      </trkpt>
      <trkpt lat="45.37291" lon="6.52734">
        <ele>1783.54</ele>
        <time>2014-01-26T15:36:15Z</time>
      </trkpt>
      <trkpt lat="45.37288" lon="6.52701">
        <ele>1778.72</ele>
        <time>2014-01-26T15:36:18Z</time>
      </trkpt>
      <trkpt lat="45.3728" lon="6.52664">
        <ele>1775.08</ele>
        <time>2014-01-26T15:36:21Z</time>
      </trkpt>
      <trkpt lat="45.37276" lon="6.52633">
        <ele>1772.47</ele>
        <time>2014-01-26T15:36:23Z</time>
      </trkpt>
      <trkpt lat="45.3727" lon="6.52604">
        <ele>1770.36</ele>
        <time>2014-01-26T15:36:25Z</time>
      </trkpt>
      <trkpt lat="45.37267" lon="6.52578">
        <ele>1769</ele>
        <time>2014-01-26T15:36:27Z</time>
      </trkpt>
      <trkpt lat="45.37266" lon="6.52552">
        <ele>1766.71</ele>
        <time>2014-01-26T15:36:29Z</time>
      </trkpt>
      <trkpt lat="45.37269" lon="6.52518">
        <ele>1763.17</ele>
        <time>2014-01-26T15:36:32Z</time>
      </trkpt>
      <trkpt lat="45.37277" lon="6.52493">
        <ele>1759.84</ele>
        <time>2014-01-26T15:36:35Z</time>
      </trkpt>
      <trkpt lat="45.37294" lon="6.52473">
        <ele>1758.18</ele>
        <time>2014-01-26T15:36:38Z</time>
      </trkpt>
      <trkpt lat="45.37309" lon="6.52451">
        <ele>1754.97</ele>
        <time>2014-01-26T15:36:41Z</time>
      </trkpt>
      <trkpt lat="45.37323" lon="6.52432">
        <ele>1755.63</ele>
        <time>2014-01-26T15:36:44Z</time>
      </trkpt>
      <trkpt lat="45.37338" lon="6.52411">
        <ele>1756.46</ele>
        <time>2014-01-26T15:36:47Z</time>
      </trkpt>
      <trkpt lat="45.37352" lon="6.52384">
        <ele>1752.55</ele>
        <time>2014-01-26T15:36:50Z</time>
      </trkpt>
      <trkpt lat="45.37369" lon="6.52365">
        <ele>1750.79</ele>
        <time>2014-01-26T15:36:53Z</time>
      </trkpt>
      <trkpt lat="45.37389" lon="6.52361">
        <ele>1753.97</ele>
        <time>2014-01-26T15:36:56Z</time>
      </trkpt>
      <trkpt lat="45.37413" lon="6.52358">
        <ele>1754.74</ele>
        <time>2014-01-26T15:36:59Z</time>
      </trkpt>
      <trkpt lat="45.37435" lon="6.52343">
        <ele>1746.64</ele>
        <time>2014-01-26T15:37:02Z</time>
      </trkpt>
      <trkpt lat="45.37461" lon="6.52334">
        <ele>1741.9</ele>
        <time>2014-01-26T15:37:05Z</time>
      </trkpt>
      <trkpt lat="45.37479" lon="6.52324">
        <ele>1738.09</ele>
        <time>2014-01-26T15:37:07Z</time>
      </trkpt>
      <trkpt lat="45.37495" lon="6.52312">
        <ele>1735.2</ele>
        <time>2014-01-26T15:37:09Z</time>
      </trkpt>
      <trkpt lat="45.37512" lon="6.52298">
        <ele>1731.69</ele>
        <time>2014-01-26T15:37:11Z</time>
      </trkpt>
      <trkpt lat="45.37526" lon="6.52276">
        <ele>1725.73</ele>
        <time>2014-01-26T15:37:13Z</time>
      </trkpt>
      <trkpt lat="45.37539" lon="6.52249">
        <ele>1722.45</ele>
        <time>2014-01-26T15:37:15Z</time>
      </trkpt>
      <trkpt lat="45.37547" lon="6.52222">
        <ele>1718.84</ele>
        <time>2014-01-26T15:37:17Z</time>
      </trkpt>
      <trkpt lat="45.37552" lon="6.52197">
        <ele>1715.88</ele>
        <time>2014-01-26T15:37:19Z</time>
      </trkpt>
      <trkpt lat="45.37552" lon="6.52171">
        <ele>1712.06</ele>
        <time>2014-01-26T15:37:21Z</time>
      </trkpt>
      <trkpt lat="45.37554" lon="6.52137">
        <ele>1709.43</ele>
        <time>2014-01-26T15:37:24Z</time>
      </trkpt>
      <trkpt lat="45.37574" lon="6.52122">
        <ele>1713.83</ele>
        <time>2014-01-26T15:37:27Z</time>
      </trkpt>
      <trkpt lat="45.37596" lon="6.52126">
        <ele>1717.29</ele>
        <time>2014-01-26T15:37:29Z</time>
      </trkpt>
      <trkpt lat="45.37616" lon="6.52133">
        <ele>1718.2</ele>
        <time>2014-01-26T15:37:31Z</time>
      </trkpt>
      <trkpt lat="45.37633" lon="6.52142">
        <ele>1717.45</ele>
        <time>2014-01-26T15:37:33Z</time>
      </trkpt>
      <trkpt lat="45.37656" lon="6.52155">
        <ele>1715.54</ele>
        <time>2014-01-26T15:37:36Z</time>
      </trkpt>
      <trkpt lat="45.37661" lon="6.52125">
        <ele>1706.67</ele>
        <time>2014-01-26T15:37:39Z</time>
      </trkpt>
      <trkpt lat="45.37654" lon="6.52093">
        <ele>1702.04</ele>
        <time>2014-01-26T15:37:41Z</time>
      </trkpt>
      <trkpt lat="45.37639" lon="6.52062">
        <ele>1697.71</ele>
        <time>2014-01-26T15:37:43Z</time>
      </trkpt>
      <trkpt lat="45.37623" lon="6.52036">
        <ele>1694.88</ele>
        <time>2014-01-26T15:37:45Z</time>
      </trkpt>
      <trkpt lat="45.37609" lon="6.52012">
        <ele>1692.78</ele>
        <time>2014-01-26T15:37:47Z</time>
      </trkpt>
      <trkpt lat="45.376" lon="6.51978">
        <ele>1686.19</ele>
        <time>2014-01-26T15:37:50Z</time>
      </trkpt>
      <trkpt lat="45.37605" lon="6.51947">
        <ele>1678.44</ele>
        <time>2014-01-26T15:37:53Z</time>
      </trkpt>
      <trkpt lat="45.37625" lon="6.51924">
        <ele>1678.94</ele>
        <time>2014-01-26T15:37:56Z</time>
      </trkpt>
      <trkpt lat="45.37643" lon="6.51917">
        <ele>1680.78</ele>
        <time>2014-01-26T15:37:58Z</time>
      </trkpt>
      <trkpt lat="45.37666" lon="6.51924">
        <ele>1681.16</ele>
        <time>2014-01-26T15:38:00Z</time>
      </trkpt>
      <trkpt lat="45.37685" lon="6.51921">
        <ele>1676.73</ele>
        <time>2014-01-26T15:38:02Z</time>
      </trkpt>
      <trkpt lat="45.37711" lon="6.51912">
        <ele>1672.5</ele>
        <time>2014-01-26T15:38:05Z</time>
      </trkpt>
      <trkpt lat="45.37731" lon="6.51895">
        <ele>1670.05</ele>
        <time>2014-01-26T15:38:08Z</time>
      </trkpt>
      <trkpt lat="45.37747" lon="6.51878">
        <ele>1663.77</ele>
        <time>2014-01-26T15:38:11Z</time>
      </trkpt>
      <trkpt lat="45.37753" lon="6.51854">
        <ele>1657.16</ele>
        <time>2014-01-26T15:38:14Z</time>
      </trkpt>
      <trkpt lat="45.37761" lon="6.51827">
        <ele>1653.69</ele>
        <time>2014-01-26T15:38:18Z</time>
      </trkpt>
      <trkpt lat="45.37755" lon="6.51798">
        <ele>1648.42</ele>
        <time>2014-01-26T15:38:21Z</time>
      </trkpt>
      <trkpt lat="45.37752" lon="6.51769">
        <ele>1645.83</ele>
        <time>2014-01-26T15:38:23Z</time>
      </trkpt>
      <trkpt lat="45.37741" lon="6.5174">
        <ele>1642.91</ele>
        <time>2014-01-26T15:38:25Z</time>
      </trkpt>
      <trkpt lat="45.37729" lon="6.51714">
        <ele>1640.56</ele>
        <time>2014-01-26T15:38:26Z</time>
      </trkpt>
      <trkpt lat="45.37715" lon="6.51694">
        <ele>1639.75</ele>
        <time>2014-01-26T15:38:28Z</time>
      </trkpt>
      <trkpt lat="45.37702" lon="6.51676">
        <ele>1638.3</ele>
        <time>2014-01-26T15:38:30Z</time>
      </trkpt>
      <trkpt lat="45.37685" lon="6.51649">
        <ele>1636.84</ele>
        <time>2014-01-26T15:38:33Z</time>
      </trkpt>
      <trkpt lat="45.37674" lon="6.51628">
        <ele>1637.27</ele>
        <time>2014-01-26T15:38:35Z</time>
      </trkpt>
      <trkpt lat="45.37664" lon="6.51607">
        <ele>1636.12</ele>
        <time>2014-01-26T15:38:37Z</time>
      </trkpt>
      <trkpt lat="45.37652" lon="6.51577">
        <ele>1631.54</ele>
        <time>2014-01-26T15:38:40Z</time>
      </trkpt>
      <trkpt lat="45.37642" lon="6.5155">
        <ele>1630.08</ele>
        <time>2014-01-26T15:38:43Z</time>
      </trkpt>
      <trkpt lat="45.37633" lon="6.51522">
        <ele>1627.64</ele>
        <time>2014-01-26T15:38:46Z</time>
      </trkpt>
      <trkpt lat="45.37623" lon="6.51489">
        <ele>1620.99</ele>
        <time>2014-01-26T15:38:49Z</time>
      </trkpt>
      <trkpt lat="45.37613" lon="6.5146">
        <ele>1615.04</ele>
        <time>2014-01-26T15:38:52Z</time>
      </trkpt>
      <trkpt lat="45.37604" lon="6.51431">
        <ele>1610.45</ele>
        <time>2014-01-26T15:38:56Z</time>
      </trkpt>
      <trkpt lat="45.37589" lon="6.51415">
        <ele>1605.75</ele>
        <time>2014-01-26T15:38:59Z</time>
      </trkpt>
      <trkpt lat="45.37583" lon="6.51386">
        <ele>1601.54</ele>
        <time>2014-01-26T15:39:02Z</time>
      </trkpt>
      <trkpt lat="45.37569" lon="6.51358">
        <ele>1596.03</ele>
        <time>2014-01-26T15:39:05Z</time>
      </trkpt>
      <trkpt lat="45.3756" lon="6.51336">
        <ele>1592.44</ele>
        <time>2014-01-26T15:39:08Z</time>
      </trkpt>
      <trkpt lat="45.37546" lon="6.51305">
        <ele>1588.58</ele>
        <time>2014-01-26T15:39:12Z</time>
      </trkpt>
      <trkpt lat="45.37536" lon="6.51283">
        <ele>1585.2</ele>
        <time>2014-01-26T15:39:14Z</time>
      </trkpt>
      <trkpt lat="45.37523" lon="6.51253">
        <ele>1580.72</ele>
        <time>2014-01-26T15:39:17Z</time>
      </trkpt>
      <trkpt lat="45.37521" lon="6.51223">
        <ele>1577.27</ele>
        <time>2014-01-26T15:39:20Z</time>
      </trkpt>
      <trkpt lat="45.37512" lon="6.51198">
        <ele>1573.25</ele>
        <time>2014-01-26T15:39:23Z</time>
      </trkpt>
      <trkpt lat="45.375" lon="6.51177">
        <ele>1570.04</ele>
        <time>2014-01-26T15:39:26Z</time>
      </trkpt>
      <trkpt lat="45.37495" lon="6.5115">
        <ele>1565.79</ele>
        <time>2014-01-26T15:39:29Z</time>
      </trkpt>
      <trkpt lat="45.37483" lon="6.51124">
        <ele>1560.8</ele>
        <time>2014-01-26T15:39:32Z</time>
      </trkpt>
      <trkpt lat="45.37471" lon="6.51097">
        <ele>1557.46</ele>
        <time>2014-01-26T15:39:35Z</time>
      </trkpt>
      <trkpt lat="45.37461" lon="6.51066">
        <ele>1554.37</ele>
        <time>2014-01-26T15:39:38Z</time>
      </trkpt>
      <trkpt lat="45.37454" lon="6.51036">
        <ele>1551.67</ele>
        <time>2014-01-26T15:39:41Z</time>
      </trkpt>
      <trkpt lat="45.37457" lon="6.51009">
        <ele>1548.63</ele>
        <time>2014-01-26T15:39:46Z</time>
      </trkpt>
      <trkpt lat="45.37474" lon="6.50998">
        <ele>1546.62</ele>
        <time>2014-01-26T15:39:50Z</time>
      </trkpt>
      <trkpt lat="45.37492" lon="6.50981">
        <ele>1542.68</ele>
        <time>2014-01-26T15:39:54Z</time>
      </trkpt>
      <trkpt lat="45.37498" lon="6.50953">
        <ele>1535.94</ele>
        <time>2014-01-26T15:39:57Z</time>
      </trkpt>
      <trkpt lat="45.37505" lon="6.50923">
        <ele>1525.98</ele>
        <time>2014-01-26T15:40:00Z</time>
      </trkpt>
      <trkpt lat="45.37519" lon="6.50891">
        <ele>1513.96</ele>
        <time>2014-01-26T15:40:03Z</time>
      </trkpt>
      <trkpt lat="45.37534" lon="6.50866">
        <ele>1509.42</ele>
        <time>2014-01-26T15:40:05Z</time>
      </trkpt>
      <trkpt lat="45.3755" lon="6.50846">
        <ele>1507.87</ele>
        <time>2014-01-26T15:40:07Z</time>
      </trkpt>
      <trkpt lat="45.3756" lon="6.50819">
        <ele>1504.1</ele>
        <time>2014-01-26T15:40:10Z</time>
      </trkpt>
      <trkpt lat="45.3758" lon="6.50798">
        <ele>1499.65</ele>
        <time>2014-01-26T15:40:14Z</time>
      </trkpt>
      <trkpt lat="45.37597" lon="6.50776">
        <ele>1494.38</ele>
        <time>2014-01-26T15:40:17Z</time>
      </trkpt>
      <trkpt lat="45.37621" lon="6.50773">
        <ele>1490.03</ele>
        <time>2014-01-26T15:40:21Z</time>
      </trkpt>
      <trkpt lat="45.37639" lon="6.50764">
        <ele>1486.92</ele>
        <time>2014-01-26T15:40:24Z</time>
      </trkpt>
      <trkpt lat="45.37657" lon="6.50755">
        <ele>1481.02</ele>
        <time>2014-01-26T15:40:27Z</time>
      </trkpt>
      <trkpt lat="45.37675" lon="6.50733">
        <ele>1471.63</ele>
        <time>2014-01-26T15:40:31Z</time>
      </trkpt>
      <trkpt lat="45.37682" lon="6.507">
        <ele>1464.15</ele>
        <time>2014-01-26T15:40:34Z</time>
      </trkpt>
      <trkpt lat="45.37678" lon="6.50663">
        <ele>1458.29</ele>
        <time>2014-01-26T15:40:37Z</time>
      </trkpt>
      <trkpt lat="45.37673" lon="6.50634">
        <ele>1454.33</ele>
        <time>2014-01-26T15:40:40Z</time>
      </trkpt>
      <trkpt lat="45.37683" lon="6.50609">
        <ele>1448.72</ele>
        <time>2014-01-26T15:40:44Z</time>
      </trkpt>
      <trkpt lat="45.37684" lon="6.50582">
        <ele>1444.13</ele>
        <time>2014-01-26T15:40:47Z</time>
      </trkpt>
      <trkpt lat="45.37697" lon="6.50556">
        <ele>1438.1</ele>
        <time>2014-01-26T15:40:51Z</time>
      </trkpt>
      <trkpt lat="45.377" lon="6.50521">
        <ele>1434</ele>
        <time>2014-01-26T15:40:55Z</time>
      </trkpt>
      <trkpt lat="45.37708" lon="6.50488">
        <ele>1429.97</ele>
        <time>2014-01-26T15:40:58Z</time>
      </trkpt>
      <trkpt lat="45.37704" lon="6.50462">
        <ele>1427.73</ele>
        <time>2014-01-26T15:41:01Z</time>
      </trkpt>
      <trkpt lat="45.37713" lon="6.50437">
        <ele>1425.16</ele>
        <time>2014-01-26T15:41:08Z</time>
      </trkpt>
      <trkpt lat="45.37731" lon="6.50421">
        <ele>1422.28</ele>
        <time>2014-01-26T15:43:15Z</time>
      </trkpt>
      <trkpt lat="45.37752" lon="6.50433">
        <ele>1420.69</ele>
        <time>2014-01-26T15:43:37Z</time>
      </trkpt>
      <trkpt lat="45.37738" lon="6.5045">
        <ele>1424.31</ele>
        <time>2014-01-26T15:52:33Z</time>
      </trkpt>
    </trkseg>
  </trk>
</gpx>